[[{"header":{"parameterUnit":"m.s-1","parameterCategory":1,"la1":31.0,"la2":29.5877,"lo1":-88.7671,"lo2":-86.6584,"dy":0.0162,"dx":0.0185,"nx":115,"ny":88,"refTime":"2025-04-12T12:00:00:Z","depth":0,"parameterNumber":2,"parameterNumberName":"U-component_of_WINDS"},"data":[0.0,0.0,0.0,0.0,0.0,0.0,0.0,0.0,0.0,0.0,0.0,0.0,0.0,0.0,0.0,0.0,0.0,0.0,0.0,0.0,0.0,0.0,0.0,0.0,0.0,0.0,0.0,0.0,0.0,0.0,0.0,0.0,0.0,0.0,0.0,0.0,0.0,0.0,0.0,0.0,0.0,0.0,0.0,0.0,0.0,0.0,0.0,0.0,0.0,0.0,0.0,0.0,0.0,0.0,0.0,0.0,0.0,0.0,0.0,0.0,0.0,0.0,0.0,0.0,0.0,0.0,0.0,0.0,0.0,0.0,0.0,0.0,0.0,0.0,0.0,0.0,0.0,0.0,0.0,0.0,0.0,0.0,0.0,0.0,0.0,0.0,0.0,0.0,0.0,0.0,0.0,0.0,0.0,0.0,0.0,0.0,0.0,0.0,0.0,0.0,0.0,0.0,0.0,0.0,0.0,0.0,0.0,0.0,0.0,0.0,0.0,0.0,0.0,0.0,0.0,0.0,0.0,0.0,0.0,0.0,0.0,0.0,0.0,0.0,0.0,0.0,0.0,0.0,0.0,0.0,0.0,0.0,0.0,0.0,0.0,0.0,0.0,0.0,0.0,0.0,0.0,0.0,0.0,0.0,0.0,0.0,0.0,0.0,0.0,0.0,0.0,0.0,0.0,0.0,0.0,0.0,0.0,0.0,0.0,0.0,0.0,0.0,0.0,0.0,0.0,0.0,0.0,0.0,0.0,0.0,0.0,0.0,0.0,0.0,0.0,0.0,0.0,0.0,0.0,0.0,0.0,0.0,0.0,0.0,0.0,0.0,0.0,0.0,0.0,0.0,0.0,0.0,0.0,0.0,0.0,0.0,0.0,0.0,0.0,0.0,0.0,0.0,0.0,0.0,0.0,0.0,0.0,0.0,0.0,0.0,0.0,0.0,0.0,0.0,0.0,0.0,0.0,0.0,0.0,0.0,0.0,0.0,0.0,0.0,0.0,0.0,0.0,0.0,0.0,0.0,0.0,0.0,0.0,0.0,0.0,0.0,0.0,0.0,0.0,0.0,0.0,0.0,0.0,0.0,0.0,0.0,0.0,0.0,0.0,0.0,0.0,0.0,0.0,0.0,0.0,0.0,0.0,0.0,0.0,0.0,0.0,0.0,0.0,0.0,0.0,0.0,0.0,0.0,0.0,0.0,0.0,0.0,0.0,0.0,0.0,0.0,0.0,0.0,0.0,0.0,0.0,0.0,0.0,0.0,0.0,0.0,0.0,0.0,0.0,0.0,0.0,0.0,0.0,0.0,0.0,0.0,0.0,0.0,0.0,0.0,0.0,0.0,0.0,0.0,0.0,0.0,0.0,0.0,0.0,0.0,0.0,0.0,0.0,0.0,0.0,0.0,0.0,0.0,0.0,0.0,0.0,0.0,0.0,0.0,0.0,0.0,0.0,0.0,0.0,0.0,0.0,0.0,0.0,0.0,0.0,0.0,0.0,0.0,0.0,0.0,0.0,0.0,0.0,0.0,0.0,0.0,0.0,0.0,0.0,0.0,0.0,0.0,0.0,0.0,0.0,0.0,0.0,0.0,0.0,0.0,0.0,0.0,0.0,0.0,0.0,0.0,0.0,0.0,0.0,0.0,0.0,0.0,0.0,0.0,0.0,0.0,0.0,0.0,0.0,0.0,0.0,0.0,0.0,0.0,0.0,0.0,0.0,0.0,0.0,0.0,0.0,0.0,0.0,0.0,0.0,0.0,0.0,0.0,0.0,0.0,0.0,0.0,0.0,0.0,0.0,0.0,0.0,0.0,0.0,0.0,0.0,0.0,0.0,0.0,0.0,0.0,0.0,0.0,0.0,0.0,0.0,0.0,0.0,0.0,0.0,0.0,0.0,0.0,0.0,0.0,0.0,0.0,0.0,0.0,0.0,0.0,0.0,0.0,0.0,0.0,0.0,0.0,0.0,0.0,0.0,0.0,0.0,0.0,0.0,0.0,0.0,0.0,0.0,0.0,0.0,0.0,0.0,0.0,0.0,0.0,0.0,0.0,0.0,0.0,0.0,0.0,0.0,0.0,0.0,0.0,0.0,0.0,0.0,0.0,0.0,0.0,0.0,0.0,0.0,0.0,0.0,0.0,0.0,0.0,0.0,0.0,0.0,0.0,0.0,0.0,0.0,0.0,0.0,0.0,0.0,0.0,0.0,0.0,0.0,0.0,0.0,0.0,0.0,0.0,0.0,0.0,0.0,0.0,0.0,0.0,0.0,0.0,0.0,0.0,0.0,0.0,0.0,0.0,0.0,0.0,0.0,0.0,0.0,0.0,0.0,0.0,0.0,0.0,0.0,0.0,0.0,0.0,0.0,0.0,0.0,0.0,0.0,0.0,0.0,0.0,0.0,0.0,0.0,0.0,0.0,0.0,0.0,0.0,0.0,0.0,0.0,0.0,0.0,0.0,0.0,0.0,0.0,0.0,0.0,0.0,0.0,0.0,0.0,0.0,0.0,0.0,0.0,0.0,0.0,0.0,0.0,0.0,0.0,0.0,0.0,0.0,0.0,0.0,0.0,0.0,0.0,0.0,0.0,0.0,0.0,0.0,0.0,0.0,0.0,0.0,0.0,0.0,0.0,0.0,0.0,0.0,0.0,0.0,0.0,0.0,0.0,0.0,0.0,0.0,0.0,0.0,0.0,0.0,0.0,0.0,0.0,0.0,0.0,0.0,0.0,0.0,0.0,0.0,0.0,0.0,0.0,0.0,0.0,0.0,0.0,0.0,0.0,0.0,0.0,0.0,0.0,0.0,0.0,0.0,0.0,0.0,0.0,0.0,0.0,0.0,0.0,0.0,0.0,0.0,0.0,0.0,0.0,0.0,0.0,0.0,0.0,0.0,0.0,0.0,0.0,0.0,0.0,0.0,0.0,0.0,0.0,0.0,0.0,0.0,0.0,0.0,0.0,0.0,0.0,0.0,0.0,0.0,0.0,0.0,0.0,0.0,0.0,0.0,0.0,0.0,0.0,0.0,0.0,0.0,0.0,0.0,0.0,0.0,0.0,0.0,0.0,0.0,0.0,0.0,0.0,0.0,0.0,0.0,0.0,0.0,0.0,0.0,0.0,0.0,0.0,0.0,0.0,0.0,0.0,0.0,0.0,0.0,0.0,0.0,0.0,0.0,0.0,0.0,0.0,0.0,0.0,0.0,0.0,0.0,0.0,0.0,0.0,0.0,0.0,0.0,0.0,0.0,0.0,0.0,0.0,0.0,0.0,0.0,0.0,0.0,0.0,0.0,0.0,0.0,0.0,0.0,0.0,0.0,0.0,0.0,0.0,0.0,0.0,0.0,0.0,0.0,0.0,0.0,0.0,0.0,0.0,0.0,0.0,0.0,0.0,0.0,0.0,0.0,0.0,0.0,0.0,0.0,0.0,0.0,0.0,0.0,0.0,0.0,0.0,0.0,0.0,0.0,0.0,0.0,0.0,0.0,0.0,0.0,0.0,0.0,0.0,0.0,0.0,0.0,0.0,0.0,0.0,0.0,0.0,0.0,0.0,0.0,0.0,0.0,0.0,0.0,0.0,0.0,0.0,0.0,0.0,0.0,0.0,0.0,0.0,0.0,0.0,0.0,0.0,0.0,0.0,0.0,0.0,0.0,0.0,0.0,0.0,0.0,0.0,0.0,0.0,0.0,0.0,0.0,0.0,0.0,0.0,0.0,0.0,0.0,0.0,0.0,0.0,0.0,0.0,0.0,0.0,0.0,0.0,0.0,0.0,0.0,0.0,0.0,0.0,0.0,0.0,0.0,0.0,0.0,0.0,0.0,0.0,0.0,0.0,0.0,0.0,0.0,0.0,0.0,0.0,0.0,0.0,0.0,0.0,0.0,0.0,0.0,0.0,0.0,0.0,0.0,0.0,0.0,0.0,0.0,0.0,0.0,0.0,0.0,0.0,0.0,0.0,0.0,0.0,0.0,0.0,0.0,0.0,0.0,0.0,0.0,0.0,0.0,0.0,0.0,0.0,0.0,0.0,0.0,0.0,0.0,0.0,0.0,0.0,0.0,0.0,0.0,0.0,0.0,0.0,0.0,0.0,0.0,0.0,0.0,0.0,0.0,0.0,0.0,0.0,0.0,0.0,0.0,0.0,0.0,0.0,0.0,0.0,0.0,0.0,0.0,0.0,0.0,0.0,0.0,0.0,0.0,0.0,0.0,0.0,0.0,0.0,0.0,0.0,0.0,0.0,0.0,0.0,0.0,0.0,0.0,0.0,0.0,0.0,0.0,-5.3984,0.0,0.0,0.0,0.0,0.0,0.0,0.0,0.0,0.0,0.0,0.0,0.0,0.0,0.0,0.0,0.0,0.0,0.0,0.0,0.0,0.0,0.0,0.0,0.0,0.0,0.0,0.0,0.0,0.0,0.0,0.0,0.0,0.0,0.0,0.0,0.0,0.0,0.0,0.0,0.0,0.0,0.0,0.0,0.0,0.0,0.0,0.0,0.0,0.0,0.0,0.0,0.0,0.0,0.0,0.0,0.0,0.0,0.0,0.0,0.0,0.0,0.0,0.0,0.0,0.0,0.0,0.0,0.0,0.0,0.0,0.0,0.0,0.0,0.0,0.0,0.0,0.0,0.0,0.0,0.0,0.0,0.0,0.0,0.0,0.0,0.0,0.0,0.0,0.0,0.0,0.0,0.0,0.0,0.0,0.0,0.0,0.0,0.0,0.0,0.0,0.0,0.0,0.0,0.0,0.0,0.0,0.0,0.0,0.0,0.0,-5.6621,-5.6601,-5.623,-5.5371,-5.4023,0.0,0.0,0.0,0.0,0.0,0.0,0.0,0.0,0.0,0.0,0.0,0.0,0.0,0.0,0.0,0.0,0.0,0.0,0.0,0.0,0.0,0.0,0.0,0.0,0.0,0.0,0.0,0.0,0.0,0.0,0.0,0.0,0.0,0.0,0.0,0.0,0.0,0.0,0.0,0.0,0.0,0.0,0.0,0.0,0.0,0.0,0.0,0.0,0.0,0.0,0.0,0.0,0.0,0.0,0.0,0.0,0.0,0.0,0.0,0.0,0.0,0.0,0.0,0.0,0.0,0.0,0.0,0.0,0.0,0.0,0.0,0.0,0.0,0.0,0.0,0.0,0.0,0.0,0.0,0.0,0.0,0.0,0.0,0.0,0.0,0.0,0.0,0.0,0.0,0.0,0.0,0.0,0.0,0.0,0.0,0.0,0.0,0.0,0.0,0.0,0.0,0.0,0.0,0.0,0.0,0.0,0.0,0.0,0.0,0.0,0.0,0.0,-5.6699,-5.5586,-5.3476,0.0,0.0,0.0,0.0,0.0,0.0,0.0,0.0,0.0,0.0,0.0,0.0,0.0,0.0,0.0,0.0,0.0,0.0,0.0,0.0,0.0,0.0,0.0,0.0,0.0,0.0,0.0,0.0,0.0,0.0,0.0,0.0,0.0,0.0,0.0,0.0,0.0,0.0,0.0,0.0,0.0,0.0,0.0,0.0,0.0,0.0,0.0,0.0,0.0,0.0,0.0,0.0,0.0,0.0,0.0,0.0,0.0,0.0,0.0,0.0,0.0,0.0,0.0,0.0,0.0,0.0,0.0,0.0,0.0,0.0,0.0,0.0,0.0,0.0,0.0,0.0,0.0,0.0,0.0,0.0,0.0,0.0,0.0,0.0,0.0,0.0,0.0,0.0,0.0,0.0,0.0,0.0,0.0,0.0,0.0,0.0,0.0,0.0,0.0,0.0,0.0,0.0,0.0,0.0,0.0,0.0,0.0,0.0,0.0,0.0,-5.6973,-5.7734,-5.6992,0.0,-5.1894,0.0,0.0,0.0,0.0,0.0,0.0,0.0,0.0,0.0,0.0,0.0,0.0,0.0,0.0,0.0,0.0,0.0,0.0,0.0,0.0,0.0,0.0,0.0,0.0,0.0,0.0,0.0,0.0,0.0,0.0,0.0,0.0,0.0,0.0,0.0,0.0,0.0,0.0,0.0,0.0,0.0,0.0,0.0,0.0,0.0,0.0,0.0,0.0,0.0,0.0,0.0,0.0,0.0,0.0,0.0,0.0,0.0,0.0,0.0,0.0,0.0,0.0,0.0,0.0,0.0,0.0,0.0,0.0,0.0,0.0,0.0,0.0,0.0,0.0,0.0,0.0,0.0,0.0,0.0,0.0,0.0,0.0,0.0,0.0,0.0,0.0,0.0,0.0,0.0,0.0,0.0,0.0,0.0,0.0,0.0,0.0,0.0,0.0,0.0,0.0,0.0,0.0,0.0,0.0,0.0,0.0,0.0,0.0,0.0,0.0,-5.7305,-5.7148,-5.5781,-5.3906,0.0,0.0,0.0,0.0,0.0,0.0,0.0,0.0,0.0,0.0,0.0,0.0,0.0,0.0,0.0,0.0,0.0,0.0,0.0,0.0,0.0,0.0,0.0,0.0,0.0,0.0,0.0,0.0,0.0,0.0,0.0,0.0,0.0,0.0,0.0,0.0,0.0,0.0,0.0,0.0,0.0,0.0,0.0,0.0,0.0,0.0,0.0,0.0,0.0,0.0,0.0,0.0,0.0,0.0,0.0,0.0,0.0,0.0,0.0,0.0,0.0,0.0,0.0,0.0,0.0,0.0,0.0,0.0,0.0,0.0,0.0,0.0,0.0,0.0,0.0,0.0,0.0,0.0,0.0,0.0,0.0,0.0,0.0,0.0,0.0,0.0,0.0,0.0,0.0,0.0,0.0,0.0,0.0,0.0,0.0,0.0,0.0,0.0,0.0,0.0,0.0,0.0,0.0,0.0,0.0,0.0,0.0,0.0,0.0,0.0,-5.7441,-5.7129,-5.625,-5.5254,-5.3574,-5.1152,0.0,0.0,0.0,0.0,0.0,0.0,0.0,0.0,0.0,0.0,0.0,0.0,0.0,0.0,0.0,0.0,0.0,0.0,0.0,0.0,0.0,0.0,0.0,0.0,0.0,0.0,0.0,0.0,0.0,0.0,0.0,0.0,0.0,0.0,0.0,0.0,0.0,0.0,0.0,0.0,0.0,0.0,0.0,0.0,0.0,0.0,0.0,0.0,0.0,0.0,0.0,0.0,0.0,0.0,0.0,0.0,0.0,0.0,0.0,0.0,0.0,0.0,0.0,0.0,0.0,0.0,0.0,0.0,0.0,0.0,0.0,0.0,0.0,0.0,0.0,0.0,0.0,0.0,0.0,0.0,0.0,0.0,0.0,0.0,0.0,0.0,0.0,0.0,0.0,0.0,0.0,0.0,0.0,0.0,0.0,0.0,0.0,0.0,0.0,0.0,0.0,0.0,0.0,0.0,0.0,0.0,0.0,0.0,-5.8646,-5.7377,-5.625,-5.5469,-5.6094,-5.4531,0.0,0.0,0.0,0.0,0.0,0.0,0.0,0.0,0.0,0.0,0.0,0.0,0.0,0.0,0.0,0.0,0.0,0.0,0.0,0.0,0.0,0.0,0.0,0.0,0.0,0.0,0.0,0.0,0.0,0.0,0.0,0.0,0.0,0.0,0.0,0.0,0.0,0.0,0.0,0.0,0.0,0.0,0.0,0.0,0.0,0.0,0.0,0.0,0.0,0.0,0.0,0.0,0.0,0.0,0.0,0.0,0.0,0.0,0.0,0.0,0.0,0.0,0.0,0.0,0.0,0.0,0.0,0.0,0.0,0.0,0.0,0.0,0.0,0.0,0.0,0.0,0.0,0.0,0.0,0.0,0.0,0.0,0.0,0.0,0.0,0.0,0.0,0.0,0.0,0.0,0.0,0.0,0.0,0.0,0.0,0.0,0.0,0.0,0.0,0.0,0.0,0.0,0.0,0.0,0.0,0.0,0.0,0.0,0.0,-5.7231,-5.6849,-5.6719,-5.6914,-5.5664,-5.3672,0.0,0.0,0.0,0.0,0.0,0.0,0.0,0.0,0.0,0.0,0.0,0.0,0.0,0.0,0.0,0.0,0.0,0.0,0.0,0.0,0.0,0.0,0.0,0.0,0.0,0.0,0.0,0.0,0.0,0.0,0.0,0.0,0.0,0.0,0.0,0.0,0.0,0.0,0.0,0.0,0.0,0.0,0.0,0.0,0.0,0.0,0.0,0.0,0.0,0.0,0.0,0.0,0.0,0.0,0.0,0.0,0.0,0.0,0.0,0.0,0.0,0.0,0.0,0.0,0.0,0.0,0.0,0.0,0.0,0.0,0.0,0.0,0.0,0.0,0.0,0.0,0.0,0.0,0.0,0.0,0.0,0.0,0.0,0.0,0.0,0.0,0.0,0.0,0.0,0.0,0.0,0.0,0.0,0.0,0.0,0.0,0.0,0.0,0.0,0.0,0.0,0.0,0.0,0.0,0.0,0.0,0.0,0.0,0.0,-5.6066,0.0,-5.7051,-5.6992,-5.5351,-5.334,0.0,0.0,0.0,0.0,0.0,0.0,0.0,0.0,0.0,0.0,0.0,0.0,0.0,0.0,0.0,0.0,0.0,0.0,0.0,0.0,0.0,0.0,0.0,0.0,0.0,0.0,0.0,0.0,0.0,0.0,0.0,0.0,0.0,0.0,0.0,0.0,0.0,0.0,0.0,0.0,0.0,0.0,0.0,0.0,0.0,0.0,0.0,0.0,0.0,0.0,0.0,0.0,0.0,0.0,0.0,0.0,0.0,0.0,0.0,0.0,0.0,0.0,0.0,0.0,0.0,0.0,0.0,0.0,0.0,0.0,0.0,0.0,0.0,0.0,0.0,0.0,0.0,0.0,0.0,0.0,0.0,0.0,0.0,0.0,0.0,0.0,0.0,0.0,0.0,0.0,0.0,0.0,0.0,0.0,0.0,0.0,0.0,0.0,0.0,0.0,0.0,0.0,0.0,0.0,0.0,0.0,0.0,0.0,-5.5096,-5.539,-5.6972,-5.707,-5.543,-5.5293,-5.3691,0.0,0.0,0.0,0.0,0.0,0.0,0.0,0.0,0.0,0.0,0.0,0.0,0.0,0.0,0.0,0.0,0.0,0.0,0.0,0.0,0.0,0.0,0.0,0.0,0.0,0.0,0.0,0.0,0.0,0.0,0.0,0.0,0.0,0.0,0.0,0.0,0.0,0.0,0.0,0.0,0.0,0.0,0.0,0.0,0.0,0.0,0.0,0.0,0.0,0.0,0.0,0.0,0.0,0.0,0.0,0.0,0.0,0.0,0.0,0.0,0.0,0.0,0.0,0.0,0.0,0.0,0.0,0.0,0.0,0.0,0.0,0.0,0.0,0.0,0.0,0.0,0.0,0.0,0.0,0.0,0.0,0.0,0.0,0.0,0.0,0.0,0.0,0.0,0.0,0.0,0.0,0.0,0.0,0.0,0.0,0.0,0.0,0.0,0.0,0.0,0.0,0.0,0.0,0.0,0.0,0.0,0.0,0.0,0.0,-5.6066,-5.6677,-5.7031,-5.7031,-5.5332,-5.3906,0.0,0.0,0.0,0.0,0.0,0.0,0.0,0.0,0.0,0.0,0.0,0.0,0.0,0.0,0.0,0.0,0.0,0.0,0.0,0.0,0.0,0.0,0.0,0.0,0.0,0.0,0.0,0.0,0.0,0.0,0.0,0.0,0.0,0.0,0.0,0.0,0.0,0.0,0.0,0.0,0.0,0.0,0.0,0.0,0.0,0.0,0.0,0.0,0.0,0.0,0.0,0.0,0.0,0.0,0.0,0.0,0.0,0.0,0.0,0.0,0.0,0.0,0.0,0.0,0.0,0.0,0.0,0.0,0.0,0.0,0.0,0.0,0.0,0.0,0.0,0.0,0.0,0.0,0.0,0.0,0.0,0.0,0.0,0.0,0.0,0.0,0.0,0.0,0.0,0.0,0.0,0.0,0.0,0.0,0.0,0.0,0.0,0.0,0.0,0.0,0.0,0.0,0.0,0.0,0.0,0.0,0.0,0.0,0.0,-5.6749,-5.6924,-5.7301,-5.789,-5.5683,-5.418,-5.3496,0.0,0.0,0.0,0.0,0.0,0.0,0.0,0.0,0.0,0.0,0.0,0.0,0.0,0.0,0.0,0.0,0.0,0.0,0.0,0.0,0.0,0.0,0.0,0.0,0.0,0.0,0.0,0.0,0.0,0.0,0.0,0.0,0.0,0.0,0.0,0.0,0.0,0.0,0.0,0.0,0.0,0.0,0.0,0.0,0.0,0.0,0.0,0.0,0.0,0.0,0.0,0.0,0.0,0.0,0.0,0.0,0.0,0.0,0.0,0.0,0.0,0.0,0.0,0.0,0.0,0.0,0.0,0.0,0.0,0.0,0.0,0.0,0.0,0.0,0.0,0.0,0.0,0.0,0.0,0.0,0.0,0.0,0.0,0.0,0.0,0.0,0.0,0.0,0.0,0.0,0.0,0.0,0.0,0.0,0.0,0.0,0.0,0.0,0.0,0.0,0.0,0.0,0.0,0.0,0.0,0.0,0.0,0.0,-5.7453,-5.7697,-5.7877,-5.793,-5.6269,-5.457,0.0,0.0,0.0,0.0,0.0,0.0,0.0,0.0,0.0,0.0,0.0,0.0,0.0,0.0,0.0,0.0,0.0,0.0,0.0,0.0,0.0,0.0,0.0,0.0,0.0,0.0,0.0,0.0,0.0,0.0,0.0,0.0,0.0,0.0,0.0,0.0,0.0,0.0,0.0,0.0,0.0,0.0,0.0,0.0,0.0,0.0,0.0,0.0,0.0,0.0,0.0,0.0,0.0,0.0,0.0,0.0,0.0,0.0,0.0,0.0,0.0,0.0,0.0,0.0,0.0,0.0,0.0,0.0,0.0,0.0,0.0,0.0,0.0,0.0,0.0,0.0,0.0,0.0,0.0,0.0,0.0,0.0,0.0,0.0,0.0,0.0,0.0,0.0,0.0,0.0,0.0,0.0,0.0,0.0,0.0,0.0,0.0,0.0,0.0,0.0,0.0,0.0,0.0,0.0,0.0,0.0,0.0,0.0,0.0,-5.8192,-5.8891,-5.9043,-5.8614,-5.7016,-5.5648,0.0,0.0,0.0,0.0,0.0,0.0,0.0,0.0,0.0,0.0,0.0,0.0,0.0,0.0,0.0,0.0,0.0,0.0,0.0,0.0,0.0,0.0,0.0,0.0,0.0,0.0,0.0,0.0,0.0,0.0,0.0,0.0,0.0,0.0,0.0,0.0,0.0,0.0,0.0,0.0,0.0,0.0,0.0,0.0,0.0,0.0,0.0,0.0,0.0,0.0,0.0,0.0,0.0,0.0,0.0,0.0,0.0,0.0,0.0,0.0,0.0,0.0,0.0,0.0,0.0,0.0,0.0,0.0,0.0,0.0,0.0,0.0,0.0,0.0,0.0,0.0,0.0,0.0,0.0,0.0,0.0,0.0,0.0,0.0,0.0,0.0,0.0,0.0,0.0,0.0,0.0,0.0,0.0,0.0,0.0,0.0,0.0,0.0,0.0,0.0,0.0,0.0,0.0,0.0,0.0,0.0,0.0,0.0,-5.8002,-5.8916,-5.9785,-5.9744,-5.8762,-5.7492,-5.6137,0.0,0.0,0.0,0.0,0.0,0.0,0.0,0.0,0.0,0.0,0.0,0.0,0.0,0.0,0.0,0.0,0.0,0.0,0.0,0.0,0.0,0.0,0.0,0.0,0.0,0.0,0.0,0.0,0.0,0.0,0.0,0.0,0.0,0.0,0.0,0.0,0.0,0.0,0.0,0.0,0.0,0.0,0.0,0.0,0.0,0.0,0.0,0.0,0.0,0.0,0.0,0.0,0.0,0.0,0.0,0.0,0.0,0.0,0.0,0.0,0.0,0.0,0.0,0.0,0.0,0.0,0.0,0.0,0.0,0.0,0.0,0.0,0.0,0.0,0.0,0.0,0.0,0.0,0.0,0.0,0.0,0.0,0.0,0.0,0.0,0.0,0.0,0.0,0.0,0.0,0.0,0.0,0.0,0.0,0.0,0.0,0.0,0.0,0.0,0.0,0.0,0.0,0.0,0.0,0.0,0.0,0.0,0.0,-5.8684,-5.9492,-6.0339,-6.0057,-5.8544,-5.7857,-5.6349,0.0,0.0,0.0,0.0,0.0,0.0,0.0,0.0,0.0,0.0,0.0,0.0,0.0,0.0,0.0,0.0,0.0,0.0,0.0,0.0,0.0,0.0,0.0,0.0,0.0,0.0,0.0,0.0,0.0,0.0,0.0,0.0,0.0,0.0,0.0,0.0,0.0,0.0,0.0,0.0,0.0,0.0,0.0,0.0,0.0,0.0,0.0,0.0,0.0,0.0,0.0,0.0,0.0,0.0,0.0,0.0,0.0,0.0,0.0,0.0,0.0,0.0,0.0,0.0,0.0,0.0,0.0,0.0,0.0,0.0,0.0,0.0,0.0,0.0,0.0,0.0,0.0,0.0,0.0,0.0,0.0,0.0,0.0,0.0,0.0,0.0,0.0,0.0,0.0,0.0,0.0,0.0,0.0,0.0,0.0,0.0,0.0,0.0,0.0,0.0,0.0,0.0,0.0,0.0,0.0,0.0,0.0,0.0,-5.8684,-5.9492,-6.0339,-6.0007,-5.8368,-5.8303,-5.6861,0.0,0.0,0.0,0.0,0.0,0.0,0.0,0.0,0.0,0.0,0.0,0.0,0.0,0.0,0.0,0.0,0.0,0.0,0.0,0.0,0.0,0.0,0.0,0.0,0.0,0.0,0.0,0.0,0.0,0.0,0.0,0.0,0.0,0.0,0.0,0.0,0.0,0.0,0.0,0.0,0.0,0.0,0.0,0.0,0.0,0.0,0.0,0.0,-5.3186,0.0,0.0,0.0,0.0,0.0,0.0,0.0,0.0,0.0,0.0,0.0,0.0,0.0,0.0,0.0,0.0,0.0,0.0,0.0,0.0,0.0,0.0,0.0,0.0,0.0,0.0,0.0,0.0,0.0,0.0,0.0,0.0,0.0,0.0,0.0,0.0,0.0,0.0,0.0,0.0,0.0,0.0,0.0,0.0,0.0,0.0,0.0,0.0,0.0,0.0,0.0,0.0,0.0,0.0,0.0,0.0,0.0,0.0,0.0,-5.8896,-6.0089,-6.055,-5.9992,-5.8415,-5.8363,-5.6914,0.0,0.0,0.0,0.0,0.0,0.0,0.0,0.0,0.0,0.0,0.0,0.0,0.0,0.0,0.0,0.0,0.0,0.0,0.0,0.0,0.0,0.0,0.0,0.0,0.0,0.0,0.0,0.0,0.0,0.0,0.0,0.0,0.0,0.0,0.0,0.0,0.0,0.0,0.0,0.0,0.0,0.0,0.0,0.0,0.0,0.0,0.0,0.0,0.0,0.0,0.0,0.0,0.0,0.0,0.0,0.0,0.0,0.0,0.0,0.0,0.0,0.0,0.0,0.0,0.0,0.0,0.0,0.0,0.0,0.0,0.0,0.0,0.0,0.0,0.0,0.0,0.0,0.0,0.0,0.0,0.0,0.0,0.0,0.0,0.0,0.0,0.0,0.0,0.0,0.0,0.0,0.0,0.0,0.0,0.0,0.0,0.0,0.0,0.0,0.0,0.0,0.0,0.0,0.0,0.0,0.0,0.0,-5.7415,-5.8992,-6.0704,-6.08,-6.0012,-5.8346,-5.8288,-5.6751,-5.3536,0.0,0.0,0.0,0.0,0.0,0.0,0.0,0.0,0.0,0.0,0.0,0.0,0.0,0.0,0.0,0.0,0.0,0.0,0.0,0.0,0.0,0.0,0.0,0.0,0.0,0.0,0.0,0.0,0.0,0.0,0.0,0.0,0.0,0.0,0.0,0.0,0.0,0.0,-5.0048,-5.1952,0.0,0.0,0.0,0.0,0.0,0.0,0.0,0.0,-5.4074,0.0,0.0,0.0,0.0,0.0,0.0,0.0,0.0,0.0,0.0,0.0,0.0,0.0,0.0,0.0,0.0,0.0,0.0,0.0,0.0,0.0,0.0,0.0,0.0,0.0,0.0,0.0,0.0,0.0,0.0,0.0,0.0,0.0,0.0,0.0,0.0,0.0,0.0,0.0,0.0,0.0,0.0,0.0,0.0,0.0,0.0,0.0,0.0,0.0,0.0,0.0,0.0,0.0,0.0,0.0,0.0,-5.7819,-5.7453,-5.8377,-6.0723,-6.08,-5.9992,-5.8396,-5.8288,-5.6714,-5.3485,0.0,0.0,0.0,0.0,0.0,0.0,0.0,0.0,0.0,0.0,0.0,0.0,0.0,0.0,0.0,0.0,0.0,0.0,0.0,0.0,0.0,0.0,0.0,0.0,0.0,0.0,0.0,0.0,0.0,0.0,0.0,0.0,0.0,0.0,0.0,0.0,0.0,0.0,0.0,-5.3568,-5.4376,0.0,0.0,0.0,0.0,0.0,0.0,0.0,0.0,-5.2854,0.0,0.0,0.0,0.0,0.0,0.0,0.0,0.0,0.0,0.0,0.0,0.0,0.0,0.0,0.0,0.0,0.0,0.0,0.0,0.0,0.0,0.0,0.0,0.0,0.0,0.0,0.0,0.0,0.0,0.0,0.0,0.0,0.0,0.0,0.0,0.0,0.0,0.0,0.0,0.0,0.0,0.0,0.0,0.0,0.0,0.0,0.0,0.0,0.0,0.0,0.0,0.0,0.0,0.0,0.0,-5.6799,-5.7434,-5.8684,-6.0685,-6.0358,-5.955,-5.8319,-5.7434,-5.5761,0.0,0.0,0.0,0.0,0.0,0.0,0.0,0.0,0.0,0.0,0.0,0.0,0.0,0.0,0.0,0.0,0.0,0.0,0.0,0.0,0.0,0.0,0.0,0.0,0.0,0.0,0.0,0.0,0.0,0.0,0.0,0.0,0.0,0.0,0.0,0.0,0.0,0.0,0.0,0.0,-5.3953,-5.4645,-5.5068,0.0,0.0,0.0,0.0,0.0,0.0,-5.3258,-5.2945,0.0,0.0,0.0,0.0,0.0,0.0,0.0,0.0,0.0,0.0,0.0,0.0,0.0,0.0,0.0,0.0,0.0,0.0,0.0,0.0,0.0,0.0,0.0,0.0,0.0,0.0,0.0,0.0,0.0,0.0,0.0,0.0,0.0,0.0,0.0,0.0,0.0,0.0,0.0,0.0,0.0,0.0,0.0,0.0,0.0,0.0,0.0,0.0,0.0,0.0,0.0,0.0,0.0,0.0,0.0,-5.5684,-5.7242,-5.8934,-6.0666,-5.9954,-5.9127,-5.8319,-5.678,-5.5088,0.0,0.0,0.0,0.0,0.0,0.0,0.0,0.0,0.0,0.0,0.0,0.0,0.0,0.0,0.0,0.0,0.0,0.0,0.0,0.0,0.0,0.0,0.0,0.0,0.0,0.0,0.0,0.0,0.0,0.0,0.0,0.0,0.0,0.0,0.0,0.0,0.0,0.0,0.0,0.0,0.0,-5.4914,-5.5376,-5.4895,0.0,0.0,0.0,0.0,-5.4395,-5.4004,0.0,0.0,0.0,0.0,0.0,0.0,0.0,0.0,0.0,0.0,0.0,0.0,0.0,0.0,0.0,0.0,0.0,0.0,0.0,0.0,0.0,0.0,0.0,0.0,0.0,0.0,0.0,0.0,0.0,0.0,0.0,0.0,0.0,0.0,0.0,0.0,0.0,0.0,0.0,0.0,0.0,0.0,0.0,0.0,0.0,0.0,0.0,0.0,0.0,0.0,0.0,0.0,0.0,0.0,0.0,0.0,-5.5607,-5.6646,-5.8338,-6.0608,-5.9935,-5.9127,-5.8319,-5.7368,-5.5695,0.0,0.0,0.0,0.0,0.0,0.0,0.0,0.0,0.0,0.0,0.0,0.0,0.0,0.0,0.0,0.0,0.0,0.0,0.0,0.0,0.0,0.0,0.0,0.0,0.0,0.0,0.0,0.0,0.0,0.0,0.0,0.0,0.0,0.0,0.0,0.0,0.0,0.0,0.0,0.0,0.0,-5.5338,-5.4722,-5.4549,-5.4511,0.0,0.0,-5.4376,-5.4472,-5.4426,0.0,0.0,0.0,0.0,0.0,0.0,0.0,0.0,0.0,0.0,0.0,0.0,0.0,0.0,0.0,0.0,0.0,0.0,0.0,0.0,0.0,0.0,0.0,0.0,0.0,0.0,0.0,0.0,0.0,0.0,0.0,0.0,0.0,0.0,0.0,0.0,0.0,0.0,0.0,0.0,0.0,0.0,0.0,0.0,0.0,0.0,0.0,0.0,0.0,0.0,0.0,0.0,0.0,0.0,0.0,-5.2923,-5.4972,-5.6338,-5.7761,-5.9281,-5.8531,-5.7915,-5.7569,-5.628,-5.4587,0.0,0.0,0.0,0.0,0.0,0.0,0.0,0.0,0.0,0.0,0.0,0.0,0.0,0.0,0.0,0.0,0.0,0.0,0.0,0.0,0.0,0.0,0.0,0.0,0.0,0.0,0.0,0.0,0.0,0.0,0.0,0.0,0.0,0.0,0.0,0.0,0.0,0.0,0.0,0.0,0.0,0.0,-5.5088,-5.5164,0.0,0.0,0.0,-5.4645,-5.5126,0.0,0.0,0.0,0.0,0.0,0.0,0.0,0.0,0.0,0.0,0.0,0.0,0.0,0.0,0.0,0.0,0.0,0.0,0.0,0.0,0.0,0.0,0.0,0.0,0.0,0.0,0.0,0.0,0.0,0.0,0.0,0.0,0.0,0.0,0.0,0.0,0.0,0.0,0.0,0.0,0.0,0.0,0.0,0.0,0.0,0.0,0.0,0.0,0.0,0.0,0.0,0.0,0.0,0.0,0.0,0.0,0.0,-5.4164,-5.5926,-5.7328,-5.8212,-5.7434,-5.7022,-5.6983,-5.5568,0.0,0.0,0.0,0.0,0.0,0.0,0.0,0.0,0.0,0.0,0.0,0.0,0.0,0.0,0.0,0.0,0.0,0.0,0.0,0.0,0.0,0.0,0.0,0.0,0.0,0.0,0.0,-4.0851,0.0,0.0,0.0,0.0,0.0,0.0,0.0,0.0,0.0,0.0,0.0,0.0,0.0,0.0,-5.346,-5.5005,-5.5401,-5.5588,0.0,0.0,-5.5011,-5.5588,-5.5184,-5.428,0.0,0.0,0.0,0.0,0.0,0.0,0.0,0.0,0.0,0.0,0.0,0.0,0.0,0.0,0.0,0.0,0.0,0.0,0.0,0.0,0.0,0.0,0.0,0.0,0.0,0.0,0.0,0.0,0.0,0.0,0.0,0.0,0.0,0.0,0.0,0.0,0.0,0.0,0.0,0.0,0.0,0.0,0.0,0.0,0.0,0.0,0.0,0.0,0.0,0.0,0.0,0.0,0.0,0.0,-5.1966,-5.3297,-5.5369,-5.7035,-5.8212,-5.7453,-5.7022,-5.7003,-5.6088,-5.4453,0.0,0.0,0.0,0.0,0.0,0.0,0.0,0.0,0.0,0.0,0.0,0.0,0.0,0.0,0.0,0.0,0.0,0.0,0.0,0.0,0.0,0.0,0.0,0.0,0.0,0.0,0.0,0.0,0.0,0.0,0.0,0.0,0.0,0.0,0.0,0.0,0.0,0.0,0.0,0.0,0.0,-5.2528,-5.3759,-5.4619,-5.5282,0.0,-5.5645,-5.5645,-5.5684,-5.5645,-5.4549,-5.1385,0.0,0.0,0.0,0.0,0.0,0.0,0.0,0.0,0.0,0.0,0.0,0.0,0.0,0.0,0.0,0.0,0.0,0.0,0.0,0.0,0.0,0.0,0.0,0.0,0.0,0.0,0.0,0.0,0.0,0.0,0.0,0.0,0.0,0.0,0.0,0.0,0.0,0.0,0.0,0.0,0.0,0.0,0.0,0.0,0.0,0.0,0.0,0.0,0.0,0.0,0.0,0.0,0.0,-5.0811,-5.2101,-5.4397,-5.5835,-5.6295,-5.6001,-5.5708,-5.5455,-5.5371,-5.3884,0.0,0.0,0.0,0.0,0.0,0.0,0.0,0.0,0.0,0.0,0.0,0.0,0.0,0.0,0.0,0.0,0.0,0.0,0.0,0.0,0.0,0.0,0.0,0.0,0.0,0.0,0.0,0.0,-4.2065,-4.2014,-4.234,0.0,0.0,0.0,0.0,0.0,0.0,0.0,0.0,0.0,0.0,-5.1941,-5.3928,-5.4526,0.0,0.0,-5.5331,-5.5411,-5.5662,-5.528,-5.4337,-5.2529,-5.1798,0.0,0.0,0.0,0.0,0.0,0.0,0.0,0.0,0.0,0.0,0.0,0.0,0.0,0.0,0.0,0.0,0.0,0.0,0.0,0.0,0.0,0.0,0.0,0.0,0.0,0.0,0.0,0.0,0.0,0.0,0.0,0.0,0.0,0.0,0.0,0.0,0.0,0.0,0.0,0.0,0.0,0.0,0.0,0.0,0.0,0.0,0.0,0.0,0.0,0.0,0.0,0.0,-4.9929,-5.1198,-5.3514,-5.479,-5.4905,-5.4924,-5.4775,-5.45,-5.4779,-5.3446,0.0,0.0,0.0,0.0,0.0,0.0,0.0,0.0,0.0,0.0,0.0,0.0,0.0,0.0,0.0,0.0,0.0,0.0,0.0,0.0,0.0,0.0,0.0,0.0,0.0,0.0,0.0,0.0,-4.2571,-4.2173,-4.1951,0.0,0.0,0.0,0.0,0.0,0.0,0.0,0.0,0.0,0.0,-5.1588,-5.3952,-5.4288,-5.4484,-5.5021,-5.5088,-5.5148,-5.5295,-5.5068,-5.4299,-5.2722,0.0,0.0,0.0,0.0,0.0,0.0,0.0,0.0,0.0,0.0,0.0,0.0,0.0,0.0,0.0,0.0,0.0,0.0,0.0,0.0,0.0,0.0,0.0,0.0,0.0,0.0,0.0,-5.0784,0.0,0.0,-4.95,0.0,0.0,0.0,0.0,0.0,0.0,0.0,0.0,0.0,0.0,0.0,0.0,0.0,0.0,0.0,0.0,0.0,0.0,0.0,0.0,0.0,0.0,-4.9506,-5.0719,-5.2793,-5.4066,-5.4503,-5.4519,-5.4503,-5.4471,-5.4503,-5.3296,-5.0715,0.0,0.0,0.0,0.0,0.0,0.0,0.0,0.0,0.0,0.0,0.0,0.0,0.0,0.0,0.0,0.0,0.0,0.0,0.0,0.0,0.0,0.0,0.0,0.0,0.0,0.0,-4.2299,-4.0924,-3.9745,0.0,0.0,0.0,0.0,0.0,0.0,0.0,0.0,0.0,-4.9283,-5.031,-5.1518,-5.3498,-5.3814,-5.4117,-5.4947,-5.5075,-5.4944,-5.46,-5.5135,-5.4549,0.0,0.0,0.0,0.0,0.0,0.0,0.0,0.0,0.0,0.0,0.0,0.0,0.0,0.0,0.0,0.0,0.0,0.0,0.0,0.0,0.0,0.0,0.0,0.0,0.0,0.0,0.0,-5.205,-5.082,0.0,0.0,0.0,0.0,0.0,0.0,0.0,0.0,0.0,0.0,0.0,-4.9994,-5.0251,0.0,0.0,0.0,0.0,0.0,0.0,0.0,0.0,0.0,0.0,0.0,0.0,-4.9119,-5.0403,-5.2638,-5.3888,-5.4049,-5.4031,-5.3924,-5.3642,-5.3906,-5.2709,-4.9916,0.0,0.0,0.0,0.0,0.0,0.0,0.0,0.0,0.0,0.0,0.0,0.0,0.0,0.0,0.0,0.0,0.0,0.0,0.0,0.0,0.0,0.0,0.0,0.0,0.0,-4.1499,0.0,0.0,0.0,0.0,0.0,0.0,0.0,0.0,0.0,0.0,0.0,-4.8031,-4.9427,-5.0749,-5.1836,-5.2496,-5.3051,-5.3604,0.0,0.0,0.0,0.0,0.0,0.0,0.0,0.0,0.0,0.0,0.0,0.0,0.0,0.0,-5.251,-4.9163,-4.7836,-4.7528,-4.8394,0.0,0.0,0.0,0.0,0.0,0.0,0.0,0.0,0.0,0.0,0.0,0.0,0.0,0.0,-5.2197,0.0,-5.0912,0.0,0.0,0.0,0.0,0.0,0.0,0.0,0.0,-5.205,-5.2142,-5.1646,-5.1646,-5.1353,0.0,-5.0288,-4.9187,0.0,0.0,0.0,0.0,0.0,0.0,0.0,0.0,-4.9287,-5.0435,-5.2511,-5.3585,-5.3585,-5.3604,-5.3464,-5.3206,-5.3187,-5.2011,-4.9552,-4.7754,-4.5746,0.0,0.0,0.0,0.0,0.0,0.0,0.0,0.0,0.0,0.0,0.0,0.0,0.0,0.0,0.0,0.0,0.0,0.0,0.0,0.0,0.0,0.0,0.0,-4.1407,0.0,0.0,0.0,0.0,0.0,0.0,0.0,0.0,0.0,-4.6104,-4.7755,-4.9169,-5.029,-5.1573,-5.2417,-5.2417,0.0,0.0,0.0,0.0,0.0,0.0,0.0,-5.3233,-5.3157,-5.2959,-5.2839,-5.2962,-5.4062,-5.4722,-5.4145,0.0,0.0,-5.1337,-5.026,-5.0144,-5.101,-5.1164,-5.1279,-5.1895,-5.2183,-5.2288,0.0,0.0,0.0,0.0,0.0,0.0,0.0,0.0,-5.2123,-5.2105,0.0,-5.1224,0.0,0.0,0.0,0.0,0.0,-5.1263,0.0,0.0,-5.2839,-5.3185,-5.3167,-5.3148,-5.3167,-5.3185,-5.3112,-5.2286,-5.0729,-4.8415,0.0,0.0,0.0,0.0,0.0,0.0,-5.0014,-5.0839,-5.2399,-5.3206,-5.3206,-5.3206,-5.3206,-5.3188,-5.2472,-5.13,-4.9722,-4.9157,-4.7247,-4.3769,-4.3388,0.0,0.0,0.0,0.0,0.0,0.0,0.0,0.0,0.0,0.0,0.0,0.0,0.0,0.0,0.0,0.0,0.0,0.0,0.0,0.0,-4.1756,0.0,0.0,0.0,0.0,0.0,0.0,0.0,0.0,0.0,0.0,-4.7094,-4.8618,-5.0216,-5.1701,0.0,0.0,0.0,0.0,-5.3357,-5.372,-5.3777,-5.3625,-5.3268,-5.3889,-5.383,-5.2272,0.0,0.0,-5.2867,-5.4326,-5.5102,-5.3586,-5.4613,-5.5692,-5.5588,-5.4164,-5.3491,-5.4222,-5.3164,-5.2702,-5.403,-5.3818,-5.3549,-5.5629,0.0,0.0,0.0,0.0,-5.4308,-5.4252,-5.4509,-5.394,-5.339,-5.2803,-5.2013,0.0,0.0,0.0,0.0,0.0,0.0,-5.2307,-5.2858,-5.3115,-5.3185,-5.3185,-5.3185,-5.3185,-5.3185,-5.3185,-5.2674,-5.1646,-5.0949,-4.9003,-4.5957,0.0,0.0,0.0,0.0,-5.029,-5.1628,-5.2674,-5.3185,-5.3185,-5.3185,-5.3185,-5.3185,-5.2986,-5.2105,-5.0508,-4.9782,-4.8108,-4.5351,-4.4066,0.0,0.0,0.0,0.0,0.0,0.0,0.0,0.0,0.0,0.0,0.0,0.0,0.0,0.0,0.0,0.0,0.0,0.0,0.0,-4.0194,-4.0451,-4.0965,0.0,0.0,0.0,0.0,0.0,0.0,0.0,0.0,0.0,-4.8618,-4.9793,-5.0618,0.0,0.0,-5.2784,-5.1646,-5.2472,-5.323,-5.3378,-5.3361,0.0,-5.3209,-5.3126,-5.3118,-5.323,-5.3952,-5.4381,-5.4001,-5.4476,-5.4786,-5.453,-5.4925,-5.5356,-5.5621,-5.5338,-5.5068,-5.5261,-5.4914,-5.4741,-5.5184,-5.5126,-5.5049,-5.684,-5.6036,-5.5226,-5.5152,-5.5559,-5.5078,-5.5133,-5.5578,-5.5097,-5.4601,-5.4106,-5.3298,-5.2509,-5.1738,-5.1408,0.0,0.0,0.0,-5.2747,-5.3185,-5.3185,-5.3185,-5.3185,-5.3185,-5.3185,-5.3185,-5.3185,-5.2968,-5.2472,-5.2472,-5.0912,-4.7957,0.0,0.0,-4.8617,-4.9884,-5.1024,-5.1977,-5.2803,-5.3185,-5.3185,-5.3185,-5.3185,-5.3185,-5.3185,-5.2454,-5.0875,-5.0325,-4.893,-4.6489,-4.5149,-4.3718,0.0,0.0,0.0,0.0,0.0,0.0,0.0,0.0,0.0,0.0,0.0,-3.9478,-3.8524,0.0,0.0,0.0,-3.9184,-4.012,-4.122,-4.133,0.0,0.0,0.0,0.0,0.0,0.0,0.0,-4.6856,-4.6948,-4.7535,-4.9372,-5.0033,-5.0563,-5.1206,-5.2123,-5.227,-5.0967,0.0,-5.2252,-5.227,-5.2252,-5.2252,-5.2234,-5.2017,-5.2028,-5.2528,-5.2971,-5.3245,-5.3278,-5.3392,-5.3592,-5.3798,-5.385,-5.4011,-5.4395,-5.4472,-5.4786,-5.5528,-5.5684,-5.5684,-5.5684,-5.5684,-5.5684,-5.7535,-5.6733,-5.594,-5.5646,-5.5691,-5.5617,-5.5676,-5.5776,-5.5658,-5.5562,-5.5452,-5.458,-5.3771,-5.2984,-5.2315,0.0,-5.1962,-5.2773,-5.3085,-5.3121,-5.3121,-5.3124,-5.3185,-5.3185,-5.3185,-5.3185,-5.3185,-5.3185,-5.3185,-5.3185,-5.2472,-5.1022,-5.1004,-5.093,-5.0857,-5.1591,-5.2032,-5.2105,-5.2839,-5.3185,-5.3185,-5.3185,-5.317,-5.3075,-5.3115,-5.2344,-5.0802,-5.0692,-4.9627,-4.7333,-4.6379,-4.5186,-4.3663,0.0,0.0,0.0,0.0,0.0,0.0,0.0,0.0,0.0,0.0,0.0,0.0,0.0,0.0,0.0,-4.0781,0.0,-4.3369,-4.3479,0.0,0.0,0.0,-4.3956,-4.4874,-4.559,-4.6324,-4.7094,0.0,0.0,-4.9482,-4.9592,-5.0143,-5.161,-5.1887,-5.161,-5.0802,-5.0784,-5.082,-5.0912,-5.0839,-5.0839,-5.0967,-5.0914,-5.0934,-5.0991,-5.1101,-5.1432,-5.1486,-5.1703,-5.1898,-5.205,-5.1975,-5.2147,-5.2507,-5.2673,-5.3155,-5.4975,-5.5363,-5.5453,-5.5376,-5.5357,-5.5338,-5.6662,-5.5972,-5.5766,-5.6023,-5.6543,-5.5927,-5.6345,-5.7308,-5.6182,-5.5372,-5.4755,-5.3344,-5.2294,-5.1611,-5.1932,-5.1795,-5.1361,-5.2058,-5.2358,-5.2358,-5.2358,-5.2662,-5.3185,-5.3185,-5.3185,-5.3185,-5.3185,-5.3185,-5.3185,-5.3185,-5.3002,-5.2635,-5.2637,-5.2032,-5.0875,-5.1591,-5.2289,-5.2913,-5.3093,-5.3185,-5.3185,-5.3185,-5.2913,-5.2307,-5.2289,-5.1518,-4.9958,-4.9904,-4.9297,-4.8067,-4.6654,-4.5443,-4.4452,-4.1735,0.0,0.0,0.0,0.0,0.0,0.0,0.0,0.0,0.0,-4.0687,-3.8264,0.0,-4.0802,0.0,-4.2103,-4.3075,-4.346,-4.3479,0.0,0.0,-4.5278,-4.5223,-4.7186,-4.7058,-4.7113,-4.7921,-4.8196,-4.8636,-4.95,-4.9592,-4.9721,-5.0143,-5.0692,-5.0784,-5.0033,-5.0417,-5.082,-5.0765,-5.0747,-5.082,-5.0747,-5.082,-5.0765,-5.082,-5.0867,-5.0945,-5.0927,-5.1024,-5.1158,-5.146,-5.1544,-5.1708,-5.2019,-5.2129,-5.2253,-5.2816,-5.3362,-5.378,-5.3799,-5.3818,-5.3818,-5.5873,-5.5185,-5.4873,-5.5179,-5.5865,-5.5767,-5.6185,-5.6881,-5.571,-5.4765,-5.3969,-5.2413,-5.1649,-5.1562,-5.1618,-5.1462,-5.1155,-5.1494,-5.1643,-5.1643,-5.1661,-5.1874,-5.226,-5.226,-5.2417,-5.2707,-5.2707,-5.2875,-5.3185,-5.3185,-5.3185,-5.3185,-5.3185,-5.2745,-5.194,-5.2307,-5.2747,-5.3185,-5.3185,-5.3041,-5.2692,-5.2674,-5.227,-5.1499,-5.1463,-5.0692,-4.9077,-4.9022,-4.8453,-4.7278,-4.6379,-4.5535,-4.4709,-4.2671,-4.0965,0.0,0.0,0.0,0.0,0.0,0.0,0.0,0.0,0.0,0.0,0.0,-4.1034,-4.1359,-4.245,-4.3561,-4.4599,-4.4931,-4.5792,-4.7443,-4.6819,-4.6838,-4.8159,-4.7901,-4.7791,-4.8251,-4.8324,-4.8471,-4.8948,-4.9003,-4.9022,-4.9003,-4.9407,-4.9536,-4.9169,-4.9426,-4.9682,-4.9701,-4.9682,-4.9701,-4.9682,-4.9701,-4.9682,-4.9682,-4.9682,-4.9682,-4.9682,-4.9682,-4.9762,-4.9973,-5.0028,-5.0135,-5.0518,-5.0613,-5.066,-5.0906,-5.1239,-5.1856,-5.2748,-5.3061,-5.3203,-5.5124,-5.4397,-5.3754,-5.3898,-5.453,-5.5161,-5.5506,-5.5624,-5.4836,-5.3894,-5.2883,-5.1457,-5.1164,-5.1667,-5.1189,-5.0903,-5.0841,-5.0929,-5.0973,-5.0955,-5.0973,-5.1008,-5.1086,-5.1086,-5.1419,-5.1952,-5.1976,-5.2294,-5.2934,-5.2934,-5.2937,-5.2937,-5.3039,-5.302,-5.2937,-5.302,-5.3103,-5.3185,-5.3075,-5.2711,-5.2013,-5.1903,-5.1463,-5.0692,-5.0545,-4.9756,-4.8213,-4.8159,-4.7517,-4.6159,-4.5957,-4.5571,-4.4874,-4.3901,-4.2636,0.0,-4.0333,0.0,0.0,0.0,0.0,0.0,0.0,0.0,0.0,-4.1577,-4.1393,-4.1813,-4.2652,-4.398,-4.5906,-4.6628,-4.7288,-4.7964,-4.8152,-4.8173,-4.8172,-4.8267,-4.8324,-4.8324,-4.8324,-4.8324,-4.8343,-4.8324,-4.8324,-4.8361,-4.8416,-4.8453,-4.8343,-4.8398,-4.8453,-4.8324,-4.8324,-4.8526,-4.8471,-4.8416,-4.8398,-4.8342,-4.8268,-4.814,-4.8214,-4.8214,-4.8177,-4.8177,-4.8234,-4.8384,-4.8743,-4.8793,-4.8872,-4.9312,-4.9518,-5.0137,-5.1617,-5.2267,-5.2732,-5.4363,-5.3704,-5.3551,-5.3601,-5.3717,-5.3865,-5.4606,-5.5596,-5.4297,-5.2581,-5.0683,-4.9782,-4.9462,-4.9593,-5.0004,-4.9907,-4.9449,-4.9965,-5.0213,-5.0213,-5.0213,-5.0527,-5.1086,-5.1086,-5.1164,-5.1292,-5.1292,-5.1343,-5.1487,-5.1487,-5.1512,-5.1512,-5.2042,-5.2042,-5.1562,0.0,0.0,0.0,-5.2564,-5.2142,-5.1958,-5.1371,-5.0637,-4.9849,-4.9132,0.0,-4.7388,-4.7314,-4.7204,-4.6874,-4.625,0.0,0.0,0.0,0.0,0.0,0.0,0.0,0.0,0.0,0.0,0.0,-4.2043,-4.1626,-4.1645,-4.3265,-4.385,-4.278,-4.4475,-4.5612,-4.5417,-4.6082,-4.6595,-4.6761,-4.7237,-4.7572,-4.7611,-4.7977,-4.8324,-4.8324,-4.8305,-4.8305,-4.8267,-4.8324,-4.8287,-4.8248,-4.8305,-4.8324,-4.8287,-4.8287,-4.8324,-4.8324,-4.8324,-4.8324,-4.8324,-4.8288,-4.8233,-4.8251,-4.77,-4.7369,-4.7333,-4.7333,-4.7333,-4.7351,-4.7333,-4.7553,-4.8255,-4.7905,-4.7684,-4.8366,-4.8759,-4.9233,-4.9929,-5.0146,-5.0301,-5.4177,0.0,-5.3518,-5.3518,0.0,-5.3518,-5.3692,-5.3948,-5.2857,-5.149,-4.9992,-4.9274,-4.9182,-4.9492,-4.9521,-4.9346,-4.9032,-4.9359,-4.9521,-4.9492,-4.9521,-4.9693,-5.005,-5.0061,-5.023,-5.0554,-5.0554,-5.0761,-5.1086,-5.1086,-5.1086,-5.1112,-5.1462,-5.1265,-5.0571,-5.053,-5.1022,-5.2039,-5.1661,-5.1247,-5.082,-5.0398,-4.9655,-4.8553,-4.8095,0.0,0.0,0.0,0.0,0.0,0.0,0.0,0.0,0.0,0.0,-4.2111,-4.207,-4.1946,-4.1668,-4.1995,-4.2564,-4.3323,-4.3223,-4.2764,-4.1915,-4.3325,-4.3899,-4.321,-4.452,-4.5387,-4.538,-4.5987,-4.6389,-4.6413,-4.6728,-4.691,-4.6932,-4.7176,-4.7491,-4.7756,-4.7572,-4.7473,-4.7818,-4.7858,-4.7697,-4.7431,-4.7656,-4.7838,-4.7897,-4.8132,-4.8324,-4.8324,-4.8324,-4.8158,-4.7791,-4.77,-4.7535,-4.7186,-4.6783,-4.6562,-4.6507,-4.6489,-4.6617,-4.6947,-4.6801,-4.6783,-4.7424,-4.7076,-4.6654,-4.7003,-4.7278,-4.7472,-4.7742,-4.8655,-4.9547,-5.4042,-5.3518,-5.3518,-5.3518,-5.3518,-5.3518,-5.2976,-5.2063,0.0,0.0,0.0,-4.9243,-4.9316,-4.978,-4.9256,-4.9018,-4.9018,-4.9018,-4.9018,-4.9018,-4.9018,-4.9018,-4.9018,-4.9018,-4.9286,-4.9821,-4.9821,-5.0129,-5.0734,-5.0734,-5.0646,-5.0567,-5.0638,-5.0347,-4.9588,-4.8894,-4.904,-5.008,-5.0281,-4.9983,-4.9291,-4.9111,-4.8465,-4.7255,-4.709,-4.6712,-4.6079,-4.6025,-4.5639,-4.4837,-4.4783,-4.4556,-4.4083,-4.3917,-4.3843,-4.3855,-4.3862,-4.3845,-4.3892,-4.391,-4.3956,-4.4079,-4.4262,-4.3863,-4.2726,-4.3134,-4.3477,-4.3599,-4.4119,-4.4699,-4.5277,-4.5783,-4.607,-4.6088,-4.6167,-4.624,-4.6264,-4.6342,-4.6664,-4.7062,-4.6756,-4.6594,-4.715,-4.7216,-4.7062,-4.6618,-4.691,-4.7147,-4.7162,-4.7583,-4.7993,-4.8031,-4.7829,-4.7572,-4.7076,-4.6892,-4.6599,-4.614,-4.5847,-4.5681,-4.57,-4.57,-4.5957,-4.6415,-4.6067,-4.6104,-4.6636,-4.625,-4.5792,-4.5883,-4.5902,-4.5902,-4.6066,-4.7454,-4.8735,-5.3602,-5.3518,-5.3518,-5.3518,-5.3518,-5.3518,-5.2689,-5.1336,-5.0574,-4.9825,-4.9138,-4.9063,-4.9046,-4.9138,-4.9063,-4.9018,-4.9018,-4.9018,-4.9018,-4.9018,-4.9018,-4.9018,-4.9018,-4.9018,-4.9063,-4.9138,-4.9152,-4.9182,-4.9303,-4.9333,-4.898,-4.8489,-4.8923,-4.8812,-4.8107,-4.7442,-4.7144,-4.7222,-4.783,-4.8105,-4.7944,-4.7244,-4.6765,-4.653,-4.5868,-4.546,-4.5372,-4.5354,-4.527,-4.5147,-4.5129,-4.5085,-4.4999,-4.4351,-4.3797,-4.3353,-4.3339,-4.3362,-4.3488,-4.3503,-4.3776,-4.445,-4.4555,-4.4374,-4.407,-4.4251,-4.441,-4.4429,-4.4506,-4.4601,-4.4703,-4.4841,-4.4917,-4.4934,-4.5337,-4.564,-4.5648,-4.6046,-4.6383,-4.6524,-4.6478,-4.6365,-4.6501,-4.6548,-4.6483,-4.6389,-4.6218,-4.6246,-4.59,-4.6561,-4.7184,-4.7168,-4.6673,-4.625,-4.603,-4.6067,-4.5957,-4.592,-4.5278,-4.4874,-4.4874,-4.4874,-4.4984,-4.5076,-4.4984,-4.5204,-4.5883,-4.5424,-4.5204,-4.5553,-4.57,-4.5736,-4.57,-4.6209,-4.6584,-5.3518,-5.3518,-5.3518,-5.3518,-5.345,-5.2638,-5.1844,-5.1083,-4.9982,-4.9323,-4.9018,-4.9018,-4.9018,-4.9018,-4.9018,-4.9018,-4.9018,-4.9018,-4.9018,-4.9018,-4.9018,-4.9018,-4.9018,-4.9018,-4.9018,-4.9018,-4.9018,-4.9018,-4.9018,-4.9018,-4.8646,-4.7902,-4.7437,-4.6993,-4.664,-4.5971,-4.5569,-4.5556,-4.6543,-4.7079,-4.6979,-4.6601,-4.624,-4.5915,-4.554,-4.5366,-4.5366,-4.5366,-4.5302,-4.5216,-4.5198,-4.5053,-4.4712,-4.4349,-4.4113,-4.3964,-4.3945,-4.3966,-4.4039,-4.4045,-4.4198,-4.4564,-4.4598,-4.4557,-4.4483,-4.4544,-4.4598,-4.4598,-4.4598,-4.4598,-4.4598,-4.4598,-4.4598,-4.4598,-4.4852,-4.4998,-4.5035,-4.5214,-4.5545,-4.5808,-4.5622,-4.5545,-4.5865,-4.5915,-4.5548,-4.4982,-4.4759,-4.4598,-4.4278,-4.4559,-4.5055,-4.54,-4.5475,-4.527,-4.4926,-4.5077,-4.5022,-4.4708,-4.4305,-4.4066,-4.4048,-4.4048,-4.425,-4.458,-4.4378,-4.4415,-4.5094,-4.4599,-4.4342,-4.4415,-4.4599,-4.4599,-4.4599,-4.4599,-4.4962,-5.3518,-5.3518,-5.3518,-5.3399,-5.3112,-5.1792,-5.1133,-5.0845,-4.9576,-4.9018,-4.9018,-4.9018,-4.9018,-4.9018,-4.9018,-4.9018,-4.9018,-4.9018,-4.9018,-4.9018,-4.9018,-4.9018,-4.9018,-4.9018,-4.9018,-4.9018,-4.9018,-4.9018,-4.9001,-4.8849,-4.8291,-4.7348,-4.6109,-4.5466,-4.5449,-4.4902,-4.4598,-4.466,-4.5627,-4.6126,-4.6,-4.5989,-4.5757,-4.5346,-4.5294,-4.5311,-4.5294,-4.5294,-4.5234,-4.5058,-4.5054,-4.4844,-4.4406,-4.4371,-4.4436,-4.4569,-4.4598,-4.4598,-4.4598,-4.4598,-4.4598,-4.4598,-4.4598,-4.4598,-4.4598,-4.4598,-4.4598,-4.4598,-4.4598,-4.4598,-4.4598,-4.4598,-4.4598,-4.4598,-4.4598,-4.4609,-4.4598,-4.4598,-4.4776,-4.5152,-4.4879,-4.4763,-4.4946,-4.5035,-4.4524,-4.3496,-4.322,-4.3224,-4.2933,-4.2789,-4.3044,-4.3248,-4.3878,-4.4047,-4.3548,-4.3865,-4.3926,-4.3376,-4.3464,-4.3535,-4.3552,-4.3516,-4.3681,-4.4213,-4.3938,-4.3846,-4.425,-4.3975,-4.3608,-4.3663,-4.3681,-4.3589,-4.3626,-4.3626,-4.3882,-5.3518,-5.3518,-5.3518,-5.3078,-5.2384,-5.1555,-5.0845,-5.0152,-4.934,-4.9018,-4.9018,-4.9018,-4.9018,-4.9018,-4.9018,-4.9018,-4.9018,-4.9018,-4.9018,-4.9018,-4.9018,-4.9018,-4.9018,-4.9018,-4.9018,-4.9018,-4.9018,-4.9018,-4.8968,-4.8325,-4.7327,-4.5974,-4.5106,-4.4733,-4.4699,-4.4649,-4.4598,-4.4598,-4.4722,-4.476,-4.4765,-4.4776,-4.4748,-4.4709,-4.4692,-4.4682,-4.472,-4.4665,-4.4686,-4.4646,-4.465,-4.4612,-4.4574,-4.4563,-4.4569,-4.4581,-4.4598,-4.4598,-4.4598,-4.4598,-4.4598,-4.4598,-4.4598,-4.4598,-4.4598,-4.4598,-4.4598,-4.4598,-4.4598,-4.4598,-4.4598,-4.4598,-4.4598,-4.4598,-4.4598,-4.4598,-4.4598,-4.4598,-4.4626,-4.4682,-4.4603,-4.4372,-4.3861,-4.3695,-4.3274,-4.2543,-4.268,-4.2588,-4.1741,-4.1867,-4.178,-4.1113,-4.1434,-4.2094,-4.2115,-4.2508,-4.2857,-4.2807,-4.316,-4.3339,-4.3356,-4.3427,-4.3552,-4.3718,-4.3626,-4.3606,-4.3625,-4.3497,-4.3497,-4.3479,-4.3479,-4.3479,-4.3479,-4.3479,-4.3681,-5.3518,-5.3518,-5.3518,-5.3044,-5.2232,-5.1522,-5.0777,-5.0033,-4.9323,-4.9018,-4.9018,-4.9018,-4.9018,-4.9018,-4.9018,-4.9018,-4.9018,-4.9018,-4.9018,-4.9018,-4.9018,-4.9018,-4.9018,-4.9018,-4.9018,-4.9018,-4.9018,-4.9001,-4.8815,-4.7834,-4.6718,-4.5737,-4.497,-4.4598,-4.4598,-4.4598,-4.4598,-4.4598,-4.4598,-4.4598,-4.4598,-4.4598,-4.4598,-4.4598,-4.4598,-4.4598,-4.4547,-4.4147,-4.4096,-4.453,-4.4147,-4.4113,-4.4581,-4.4598,-4.4598,-4.4598,-4.4598,-4.4598,-4.4598,-4.4598,-4.4598,-4.4598,-4.4598,-4.4598,-4.4598,-4.4598,-4.4598,-4.4598,-4.4598,-4.4598,-4.4598,-4.4598,-4.4598,-4.4598,-4.4598,-4.4598,-4.4598,-4.4598,-4.4598,-4.4564,-4.4164,-4.3809,-4.3341,-4.2615,-4.2049,-4.1636,-4.1639,-4.1213,-4.0654,-4.0788,-4.0694,-4.0306,-4.0538,-4.0891,-4.1223,-4.1789,-4.2101,-4.2203,-4.2344,-4.2524,-4.2958,-4.3014,-4.3105,-4.3391,-4.3444,-4.3444,-4.3516,-4.3479,-4.3479,-4.3479,-4.3479,-4.3479,-4.3479,-4.3479,-4.3479,-5.3518,-5.3467,-5.3281,-5.2723,-5.1961,-5.1234,-5.0473,-4.9779,-4.9221,-4.9018,-4.9018,-4.9018,-4.9018,-4.9018,-4.9018,-4.9018,-4.9018,-4.9018,-4.9018,-4.9018,-4.9018,-4.9018,-4.9018,-4.9018,-4.9018,-4.9018,-4.9018,-4.8798,-4.8342,-4.7378,-4.6329,-4.5449,-4.4869,-4.4598,-4.4598,-4.4598,-4.4598,-4.4598,-4.4598,-4.4598,-4.4598,-4.4598,-4.4598,-4.4598,-4.4598,-4.4598,-4.4598,-4.4028,-4.3995,-4.4519,-4.4028,-4.3995,-4.4547,-4.4598,-4.4598,-4.4598,-4.4598,-4.4598,-4.4598,-4.4598,-4.4598,-4.4598,-4.4598,-4.4598,-4.4598,-4.4598,-4.4598,-4.4598,-4.4598,-4.4598,-4.4598,-4.4598,-4.4598,-4.4598,-4.4598,-4.4598,-4.4598,-4.4598,-4.4513,-4.4265,-4.3775,-4.3189,-4.2743,-4.1728,-4.0916,-4.0857,-4.0485,-4.0113,-4.0113,-4.013,-4.0138,-4.0113,-4.0096,-4.0262,-4.0631,-4.1155,-4.149,-4.1621,-4.1668,-4.2024,-4.2382,-4.244,-4.2673,-4.2977,-4.316,-4.3375,-4.3462,-4.3479,-4.3479,-4.3479,-4.3479,-4.3479,-4.3479,-4.3479,-4.3479,-5.3518,-5.3399,-5.2689,-5.1978,-5.1202,-5.049,-4.9746,-4.9137,-4.9035,-4.9018,-4.9018,-4.9018,-4.9018,-4.9018,-4.9018,-4.9018,-4.9018,-4.9018,-4.9018,-4.9018,-4.9018,-4.9018,-4.9018,-4.9018,-4.9018,-4.9018,-4.9001,-4.8325,-4.7056,-4.6836,-4.6058,-4.475,-4.4632,-4.4598,-4.4598,-4.4598,-4.4598,-4.4598,-4.4598,-4.4598,-4.4598,-4.4598,-4.4598,-4.4598,-4.4598,-4.4598,-4.4598,-4.4564,-4.4564,-4.4598,-4.4445,-4.4496,-4.4598,-4.4598,-4.4598,-4.4598,-4.4598,-4.4598,-4.4598,-4.4598,-4.4598,-4.4598,-4.4598,-4.4598,-4.4598,-4.4598,-4.4598,-4.4598,-4.4598,-4.4598,-4.4598,-4.4598,-4.4598,-4.4598,-4.4598,-4.4598,-4.4598,-4.4513,-4.4215,-4.369,-4.3325,-4.2692,-4.1508,-4.0629,-4.0316,-4.0248,-4.0146,-4.0113,-4.0113,-4.0113,-4.0113,-4.0113,-4.0113,-4.0121,-4.0179,-4.0601,-4.088,-4.0995,-4.1246,-4.1707,-4.1793,-4.1916,-4.2223,-4.2519,-4.2637,-4.2884,-4.3303,-4.3479,-4.3479,-4.3479,-4.3479,-4.3479,-4.3479,-4.3479,-4.3479,-5.3518,-5.3433,-5.2638,-5.1877,-5.115,-5.0405,-4.9678,-4.9035,-4.9018,-4.9018,-4.9018,-4.9018,-4.9018,-4.9018,-4.9018,-4.9018,-4.9018,-4.9018,-4.9018,-4.9018,-4.9018,-4.9018,-4.9018,-4.9018,-4.9018,-4.9018,-4.9001,-4.824,-4.6938,-4.6786,-4.607,-4.4835,-4.4598,-4.4598,-4.4598,-4.4598,-4.4598,-4.4598,-4.4598,-4.4598,-4.4598,-4.4598,-4.4598,-4.4598,-4.4598,-4.4598,-4.4598,-4.4113,-4.4062,-4.4581,-4.3701,-4.3599,-4.4479,-4.4598,-4.4598,-4.4598,-4.4598,-4.4598,-4.4598,-4.4598,-4.4598,-4.4598,-4.4598,-4.4598,-4.4598,-4.4598,-4.4598,-4.4598,-4.4598,-4.4598,-4.4598,-4.4598,-4.4598,-4.4598,-4.4598,-4.4598,-4.4496,-4.4147,-4.3707,-4.3308,-4.2632,-4.1576,-4.0832,-4.0265,-4.0113,-4.0113,-4.0113,-4.0113,-4.0113,-4.0113,-4.0113,-4.0113,-4.0113,-4.0113,-4.0113,-4.0229,-4.0392,-4.0417,-4.0618,-4.0914,-4.1059,-4.1201,-4.1468,-4.1937,-4.2103,-4.2344,-4.2753,-4.316,-4.3232,-4.3339,-4.3339,-4.3338,-4.3479,-4.3261,-4.3333,-5.3348,-5.2993,-5.2266,-5.1539,-5.0794,-5.005,-4.9458,-4.9018,-4.9018,-4.9018,-4.9018,-4.9018,-4.9018,-4.9018,-4.9018,-4.9018,-4.9018,-4.9018,-4.9018,-4.9018,-4.9018,-4.9018,-4.9018,-4.9018,-4.9018,-4.9018,-4.9018,-4.824,-4.6955,-4.6786,-4.6007,-4.4682,-4.4598,-4.4598,-4.4598,-4.4598,-4.4598,-4.4598,-4.4598,-4.4598,-4.4598,-4.4598,-4.4598,-4.4598,-4.4598,-4.4598,-4.4598,-4.4079,-4.4012,-4.4378,-4.3616,-4.3532,-4.4462,-4.4598,-4.4598,-4.4598,-4.4598,-4.4598,-4.4598,-4.4598,-4.4598,-4.4598,-4.4598,-4.4598,-4.4598,-4.4598,-4.4598,-4.4598,-4.4598,-4.4598,-4.4598,-4.4598,-4.4598,-4.4598,-4.4598,-4.4598,-4.4564,-4.4113,-4.3606,-4.2929,-4.1745,-4.0747,-4.0231,-4.013,-4.0113,-4.0113,-4.0113,-4.0113,-4.0113,-4.0113,-4.0113,-4.0113,-4.0113,-4.0113,-3.9994,-3.9917,-4.0034,-4.0076,-4.0025,-4.0256,-4.0384,-4.0528,-4.0798,-4.1278,-4.1625,-4.1856,-4.2226,-4.2678,-4.2885,-4.2996,-4.3032,-4.2978,-4.2995,-4.2916,-4.2952,-5.2993,-5.2249,-5.1522,-5.0811,-5.0135,-4.9407,-4.9035,-4.9018,-4.9018,-4.9018,-4.9018,-4.9018,-4.9018,-4.9018,-4.9018,-4.9018,-4.9018,-4.9018,-4.9018,-4.9018,-4.9018,-4.9018,-4.9018,-4.9018,-4.9018,-4.9018,-4.9018,-4.8257,-4.6972,-4.6786,-4.6058,-4.4886,-4.4649,-4.4598,-4.4598,-4.4598,-4.4598,-4.4598,-4.4598,-4.4598,-4.4598,-4.4598,-4.4598,-4.4598,-4.4598,-4.4598,-4.4598,-4.4564,-4.453,-4.4581,-4.4479,-4.4547,-4.4479,-4.4564,-4.4598,-4.4598,-4.4598,-4.4598,-4.4598,-4.4598,-4.4598,-4.4598,-4.4598,-4.4598,-4.4598,-4.4598,-4.4598,-4.4598,-4.4598,-4.4598,-4.4598,-4.4598,-4.4598,-4.4598,-4.4598,-4.4598,-4.4598,-4.4547,-4.3988,-4.2455,-4.1052,-4.0214,-4.0113,-4.0113,-4.0113,-4.0113,-4.0113,-4.0113,-4.0113,-4.0113,-4.0113,-4.0113,-4.0096,-4.0079,-3.9825,-3.9571,-3.969,-3.9757,-3.9714,-3.9763,-3.9719,-3.9825,-4.0096,-4.0516,-4.1063,-4.1327,-4.1643,-4.2065,-4.2165,-4.2286,-4.2392,-4.2513,-4.239,-4.2322,-4.2429,-5.2232,-5.1488,-5.0744,-5.0321,-4.9999,-4.9306,-4.9018,-4.9018,-4.9018,-4.9018,-4.9018,-4.9018,-4.9018,-4.9018,-4.9018,-4.9018,-4.9018,-4.9018,-4.9018,-4.9018,-4.9018,-4.9018,-4.9018,-4.9018,-4.9018,-4.9018,-4.9018,-4.8528,-4.7631,-4.7039,-4.6261,-4.5449,-4.4823,-4.4615,-4.4598,-4.4598,-4.4598,-4.4598,-4.4598,-4.4598,-4.4598,-4.4598,-4.4598,-4.4598,-4.4598,-4.4598,-4.4598,-4.4598,-4.4598,-4.4598,-4.4062,-4.3775,-4.3876,-4.4299,-4.4581,-4.4598,-4.4598,-4.4598,-4.4598,-4.4598,-4.4598,-4.4598,-4.4598,-4.4598,-4.4598,-4.4598,-4.4598,-4.4598,-4.4598,-4.4598,-4.4598,-4.4598,-4.4598,-4.4598,-4.4598,-4.4598,-4.4479,-4.3701,-4.2651,-4.1694,-4.0705,-4.0163,-4.0113,-4.0113,-4.0113,-4.0113,-4.0113,-4.0113,-4.0113,-4.0113,-4.0113,-4.0113,-4.0079,-3.991,-3.9503,-3.9089,-3.8954,-3.892,-3.887,-3.9039,-3.9039,-3.9131,-3.9414,-3.9856,-4.0397,-4.0828,-4.1138,-4.1358,-4.1508,-4.1703,-4.1923,-4.1884,-4.1749,-4.1667,-4.1668,-5.1471,-5.076,-5.0287,-4.9915,-4.9661,-4.9171,-4.9018,-4.9018,-4.9018,-4.9018,-4.9018,-4.9018,-4.9018,-4.9018,-4.9018,-4.9018,-4.9018,-4.9018,-4.9018,-4.9018,-4.9018,-4.9018,-4.9018,-4.9018,-4.9018,-4.9018,-4.9018,-4.8629,-4.7889,-4.7428,-4.6701,-4.5754,-4.5229,-4.4869,-4.4632,-4.4598,-4.4598,-4.4598,-4.4598,-4.4598,-4.4598,-4.4598,-4.4598,-4.4598,-4.4598,-4.4598,-4.4598,-4.4598,-4.4598,-4.453,-4.4079,-4.3876,-4.391,-4.4344,-4.4598,-4.4598,-4.4598,-4.4598,-4.4598,-4.4598,-4.4598,-4.4598,-4.4598,-4.4598,-4.4598,-4.4598,-4.4598,-4.4598,-4.4598,-4.4598,-4.4598,-4.4598,-4.4598,-4.4598,-4.4598,-4.4598,-4.4395,-4.3217,-4.2252,-4.1576,-4.0756,-4.0248,-4.0113,-4.0113,-4.0113,-4.0113,-4.0113,-4.0113,-4.0113,-4.0113,-4.0113,-4.0113,-4.0096,-3.974,-3.9123,-3.87,-3.8278,-3.8075,-3.7905,-3.8142,-3.8294,-3.8464,-3.8696,-3.9348,-3.9914,-4.0339,-4.0672,-4.0814,-4.0955,-4.1173,-4.134,-4.1165,-4.0936,-4.0682,-4.0677,-5.071,-5.0067,-5.0033,-4.9627,-4.9103,-4.9018,-4.9018,-4.9018,-4.9018,-4.9018,-4.9018,-4.9018,-4.9018,-4.9018,-4.9018,-4.9018,-4.9018,-4.9018,-4.9018,-4.9018,-4.9018,-4.9018,-4.9018,-4.9018,-4.9018,-4.9018,-4.9018,-4.8663,-4.8122,-4.7855,-4.7196,-4.6109,-4.5771,-4.5365,-4.484,-4.4666,-4.4598,-4.4598,-4.4598,-4.4598,-4.4598,-4.4598,-4.4598,-4.4598,-4.4598,-4.4598,-4.4598,-4.4598,-4.4598,-4.4598,-4.453,-4.4451,-4.4564,-4.4598,-4.4598,-4.4598,-4.4598,-4.4598,-4.4598,-4.4598,-4.4598,-4.4598,-4.4598,-4.4598,-4.4598,-4.4598,-4.4598,-4.4598,-4.4598,-4.4598,-4.4598,-4.4598,-4.4598,-4.4598,-4.4598,-4.4598,-4.4479,-4.3261,-4.2354,-4.1999,-4.1077,-4.0113,-4.0113,-4.0113,-4.0113,-4.0113,-4.0113,-4.0113,-4.0113,-4.0113,-4.0113,-4.0079,-4.0011,-3.9377,-3.8734,-3.8041,-3.7601,-3.7094,-3.6958,-3.7178,-3.7483,-3.7686,-3.8278,-3.8935,-3.94,-3.9807,-4.0204,-4.0392,-4.0441,-4.0514,-4.0494,-4.0325,-4.0184,-4.0017,-4.0135,-4.9949,-4.9306,-4.9289,-4.9171,-4.9018,-4.9018,-4.9018,-4.9018,-4.9018,-4.9018,-4.9018,-4.9018,-4.9018,-4.9018,-4.9018,-4.9018,-4.9018,-4.9018,-4.9018,-4.9018,-4.9018,-4.9018,-4.9018,-4.9018,-4.9018,-4.9018,-4.9001,-4.8917,-4.868,-4.8206,-4.7716,-4.728,-4.621,-4.5652,-4.5382,-4.4869,-4.4615,-4.4598,-4.4598,-4.4598,-4.4598,-4.4598,-4.4598,-4.4598,-4.4598,-4.4598,-4.4598,-4.4598,-4.4598,-4.4598,-4.4598,-4.4598,-4.4598,-4.4598,-4.4598,-4.4598,-4.4598,-4.4598,-4.4598,-4.4598,-4.4598,-4.4598,-4.4598,-4.4598,-4.4598,-4.4598,-4.4598,-4.4598,-4.4598,-4.4598,-4.4598,-4.4598,-4.4598,-4.4598,-4.4598,-4.4598,-4.4361,-4.3295,-4.2303,-4.2134,-4.101,-4.0282,-4.0113,-4.0113,-4.0113,-4.0113,-4.0113,-4.0113,-4.0113,-4.0113,-4.0096,-3.9893,-3.9673,-3.8954,-3.8261,-3.7533,-3.6857,-3.6197,-3.6022,-3.6124,-3.6468,-3.6772,-3.7702,-3.8708,-3.8894,-3.9257,-3.9799,-4.0187,-4.0104,-4.0011,-4.0136,-4.0168,-3.9898,-3.9692,-3.9901,-4.9661,-4.9018,-4.9018,-4.9018,-4.9018,-4.9018,-4.9018,-4.9018,-4.9018,-4.9018,-4.9018,-4.9018,-4.9018,-4.9018,-4.9018,-4.9018,-4.9018,-4.9018,-4.9018,-4.9018,-4.9018,-4.9018,-4.9018,-4.9018,-4.9018,-4.9018,-4.9018,-4.9001,-4.8934,-4.8562,-4.8257,-4.7703,-4.6752,-4.6041,-4.5618,-4.4976,-4.4598,-4.4598,-4.4598,-4.4598,-4.4598,-4.4598,-4.4598,-4.4598,-4.4598,-4.4598,-4.4598,-4.4598,-4.4598,-4.4598,-4.4598,-4.4598,-4.4598,-4.4598,-4.4598,-4.4598,-4.4598,-4.4598,-4.4598,-4.4598,-4.4598,-4.4598,-4.4598,-4.4598,-4.4598,-4.4598,-4.4598,-4.4598,-4.4598,-4.4598,-4.4598,-4.4598,-4.4598,-4.4598,-4.4598,-4.4598,-4.4581,-4.3217,-4.2439,-4.1948,-4.1094,-4.0113,-4.0113,-4.0113,-4.0113,-4.0113,-4.0113,-4.0113,-4.0113,-4.0113,-4.0079,-3.991,-3.958,-3.9005,-3.8294,-3.755,-3.6931,-3.618,-3.587,-3.5802,-3.5859,-3.6197,-3.7015,-3.7929,-3.8278,-3.8717,-3.9242,-3.9706,-3.9808,-3.9825,-3.9977,-4.0002,-3.9787,-3.9401,-3.9654,-4.9661,-4.9018,-4.9018,-4.9018,-4.9018,-4.9018,-4.9018,-4.9018,-4.9018,-4.9018,-4.9018,-4.9018,-4.9018,-4.9018,-4.9018,-4.9018,-4.9018,-4.9018,-4.9018,-4.9018,-4.9018,-4.9018,-4.9018,-4.9018,-4.9018,-4.9018,-4.9018,-4.9018,-4.8984,-4.8951,-4.8663,-4.8088,-4.731,-4.6549,-4.594,-4.5145,-4.4716,-4.4598,-4.4598,-4.4598,-4.4598,-4.4598,-4.4598,-4.4598,-4.4598,-4.4598,-4.4598,-4.4598,-4.4598,-4.4598,-4.4598,-4.4598,-4.4598,-4.4598,-4.4598,-4.4598,-4.4598,-4.4598,-4.4598,-4.4598,-4.4598,-4.4598,-4.4598,-4.4598,-4.4598,-4.4598,-4.4598,-4.4598,-4.4598,-4.4598,-4.4598,-4.4598,-4.4598,-4.4598,-4.4598,-4.4598,-4.4327,-4.3244,-4.2303,-4.2202,-4.101,-4.0265,-4.0113,-4.0113,-4.0113,-4.0113,-4.0113,-4.0113,-4.0113,-4.0113,-4.0113,-4.0062,-3.9673,-3.9157,-3.8413,-3.7611,-3.7043,-3.6434,-3.6214,-3.6062,-3.5752,-3.6045,-3.6491,-3.7032,-3.7533,-3.8108,-3.8684,-3.9022,-3.9208,-3.9394,-3.9436,-3.9706,-3.9867,-3.9374,-3.933,-4.9661,-4.9018,-4.9018,-4.9018,-4.9018,-4.9018,-4.9018,-4.9018,-4.9018,-4.9018,-4.9018,-4.9018,-4.9018,-4.9018,-4.9018,-4.9018,-4.9018,-4.9018,-4.9018,-4.9018,-4.9018,-4.9018,-4.9018,-4.9018,-4.9018,-4.9018,-4.9018,-4.9018,-4.9018,-4.9001,-4.8951,-4.868,-4.7919,-4.7293,-4.6515,-4.572,-4.5128,-4.4716,-4.4598,-4.4598,-4.4598,-4.4598,-4.4598,-4.4598,-4.4598,-4.4598,-4.4598,-4.4598,-4.4598,-4.4598,-4.4598,-4.4598,-4.4598,-4.4598,-4.4598,-4.4598,-4.4598,-4.4598,-4.4598,-4.4598,-4.4598,-4.4598,-4.4598,-4.4598,-4.4598,-4.4598,-4.4598,-4.4598,-4.4598,-4.4598,-4.4598,-4.4598,-4.4598,-4.4598,-4.4598,-4.4598,-4.4361,-4.3261,-4.2388,-4.1999,-4.106,-4.0113,-4.0113,-4.0113,-4.0113,-4.0113,-4.0113,-4.0113,-4.0113,-4.0113,-4.0113,-4.0096,-3.9639,-3.9056,-3.821,-3.7432,-3.6772,-3.6468,-3.6349,-3.6129,-3.5859,-3.5752,-3.6163,-3.6518,-3.6914,-3.7449,-3.7973,-3.8142,-3.8294,-3.8565,-3.887,-3.9073,-3.9174,-3.8937,-3.9039,-4.9661,-4.9018,-4.9018,-4.9018,-4.9018,-4.9018,-4.9018,-4.9018,-4.9018,-4.9018,-4.9018,-4.9018,-4.9018,-4.9018,-4.9018,-4.9018,-4.9018,-4.9018,-4.9018,-4.9018,-4.9018,-4.9018,-4.9018,-4.9018,-4.9018,-4.9018,-4.9018,-4.9018,-4.9018,-4.9018,-4.9001,-4.8951,-4.8291,-4.7496,-4.6802,-4.6075,-4.5314,-4.475,-4.4598,-4.4598,-4.4598,-4.4598,-4.4598,-4.4598,-4.4598,-4.4598,-4.4598,-4.4598,-4.4598,-4.4598,-4.4598,-4.4598,-4.4598,-4.4598,-4.4598,-4.4598,-4.4598,-4.4598,-4.4598,-4.4598,-4.4598,-4.4598,-4.4598,-4.4598,-4.4598,-4.4598,-4.4598,-4.4598,-4.4598,-4.4598,-4.4598,-4.4598,-4.4598,-4.4598,-4.4598,-4.4598,-4.4361,-4.3261,-4.2303,-4.2016,-4.1027,-4.035,-4.0113,-4.0113,-4.0113,-4.0113,-4.0113,-4.0113,-4.0113,-4.0113,-4.0113,-3.9977,-3.9537,-3.8911,-3.8007,-3.7195,-3.6417,-3.6248,-3.6299,-3.6062,-3.5769,-3.5735,-3.5791,-3.6113,-3.64,-3.6671,-3.711,-3.7246,-3.755,-3.8024,-3.8328,-3.8447,-3.8565,-3.865,-3.887,-4.9661,-4.9018,-4.9018,-4.9018,-4.9018,-4.9018,-4.9018,-4.9018,-4.9018,-4.9018,-4.9018,-4.9018,-4.9018,-4.9018,-4.9018,-4.9018,-4.9018,-4.9018,-4.9018,-4.9018,-4.9018,-4.9018,-4.9018,-4.9018,-4.9018,-4.9018,-4.9018,-4.9018,-4.9018,-4.9018,-4.9018,-4.89,-4.846,-4.7682,-4.6853,-4.621,-4.5483,-4.475,-4.4598,-4.4598,-4.4598,-4.4598,-4.4598,-4.4598,-4.4598,-4.4598,-4.4598,-4.4598,-4.4598,-4.4598,-4.4598,-4.4598,-4.4598,-4.4598,-4.4598,-4.4598,-4.4598,-4.4598,-4.4598,-4.4598,-4.4598,-4.4598,-4.4598,-4.4598,-4.4598,-4.4598,-4.4598,-4.4598,-4.4598,-4.4598,-4.4598,-4.4598,-4.4598,-4.4598,-4.4598,-4.4598,-4.4327,-4.3261,-4.2439,-4.21,-4.1094,-4.0214,-4.0113,-4.0113,-4.0113,-4.0113,-4.0113,-4.0113,-4.0113,-4.0113,-4.0113,-3.9926,-3.9486,-3.8556,-3.7601,-3.6823,-3.6062,-3.6011,-3.6129,-3.596,-3.5701,-3.5684,-3.5667,-3.565,-3.591,-3.6197,-3.6366,-3.6502,-3.6907,-3.7483,-3.7719,-3.7736,-3.8007,-3.8379,-3.8684,-4.9661,-4.9018,-4.9018,-4.9018,-4.9018,-4.9018,-4.9018,-4.9018,-4.9018,-4.9018,-4.9018,-4.9018,-4.9018,-4.9018,-4.9018,-4.9018,-4.9018,-4.9018,-4.9018,-4.9018,-4.9018,-4.9018,-4.9018,-4.9018,-4.9018,-4.9018,-4.9018,-4.9018,-4.9018,-4.9018,-4.9018,-4.8968,-4.8849,-4.8156,-4.7158,-4.6566,-4.5872,-4.4902,-4.4649,-4.4598,-4.4598,-4.4598,-4.4598,-4.4598,-4.4598,-4.4598,-4.4598,-4.4598,-4.4598,-4.4598,-4.4598,-4.4598,-4.4598,-4.4598,-4.4598,-4.4598,-4.4598,-4.4598,-4.4598,-4.4598,-4.4598,-4.4598,-4.4598,-4.4598,-4.4598,-4.457,-4.4542,-4.4468,-4.4485,-4.4542,-4.4598,-4.4412,-4.4542,-4.457,-4.457,-4.4598,-4.431,-4.3403,-4.2455,-4.2354,-4.1213,-4.0113,-4.0113,-4.0113,-4.0113,-4.0113,-4.0113,-4.0113,-4.0113,-4.0113,-4.0113,-3.9825,-3.9469,-3.8335,-3.7185,-3.64,-3.5701,-3.5735,-3.5802,-3.5802,-3.5633,-3.5633,-3.5616,-3.5616,-3.5616,-3.5785,-3.5887,-3.5943,-3.6056,-3.6495,-3.6755,-3.6992,-3.728,-3.7635,-3.8379,-4.9323,-4.9018,-4.9018,-4.9018,-4.9018,-4.9018,-4.9018,-4.9018,-4.9018,-4.9018,-4.9018,-4.9018,-4.9018,-4.9018,-4.9018,-4.9018,-4.9018,-4.9018,-4.9018,-4.9018,-4.9018,-4.9018,-4.9018,-4.9018,-4.9018,-4.9018,-4.9018,-4.9018,-4.9018,-4.9018,-4.9018,-4.9001,-4.9001,-4.8426,-4.7513,-4.6938,-4.6227,-4.5297,-4.4835,-4.4615,-4.4598,-4.4598,-4.4598,-4.4598,-4.4598,-4.4598,-4.4598,-4.4598,-4.4598,-4.4598,-4.4598,-4.4598,-4.4598,-4.4598,-4.4598,-4.4598,-4.4598,-4.4598,-4.4598,-4.4598,-4.4598,-4.4598,-4.4598,-4.4598,-4.4598,-4.457,-4.4384,-4.4064,-4.3919,-4.371,-4.3259,-4.3663,-4.3902,-4.4006,-4.4253,-4.4497,-4.4288,-4.3443,-4.2922,-4.2456,-4.1116,-4.0205,-4.0113,-4.0113,-4.0113,-4.0113,-4.0113,-4.0113,-4.0113,-4.0113,-4.0096,-3.9656,-3.9191,-3.8125,-3.6992,-3.6231,-3.5633,-3.5616,-3.5616,-3.5616,-3.5616,-3.5616,-3.5616,-3.5616,-3.5616,-3.5616,-3.565,-3.5752,-3.5667,-3.5616,-3.6062,-3.6434,-3.6569,-3.6958,-3.7855,-4.9018,-4.9018,-4.9018,-4.9018,-4.9018,-4.9018,-4.9018,-4.9018,-4.9018,-4.9018,-4.9018,-4.9018,-4.9018,-4.9018,-4.9018,-4.9018,-4.9018,-4.9018,-4.9018,-4.9018,-4.9018,-4.9018,-4.9018,-4.9018,-4.9018,-4.9018,-4.9018,-4.9018,-4.9018,-4.9018,-4.9018,-4.9018,-4.9001,-4.8646,-4.7902,-4.7361,-4.6583,-4.5754,-4.5179,-4.4818,-4.4632,-4.4598,-4.4598,-4.4598,-4.4598,-4.4598,-4.4598,-4.4598,-4.4598,-4.4598,-4.4598,-4.4598,-4.4598,-4.4598,-4.4598,-4.4598,-4.4598,-4.4598,-4.4598,-4.4598,-4.4598,-4.4598,-4.4598,-4.4598,-4.4468,-4.4327,-4.4006,-4.3426,-4.3078,-4.2847,-4.2458,-4.2645,-4.2986,-4.3139,-4.3575,-4.3985,-4.3673,-4.3119,-4.2551,-4.1793,-4.0766,-4.0387,-4.0314,-4.0113,-4.0113,-4.0113,-4.0113,-4.0113,-4.0113,-4.0113,-3.9977,-3.9486,-3.8836,-3.7855,-3.6907,-3.6163,-3.5718,-3.5616,-3.5616,-3.5616,-3.5616,-3.5616,-3.5616,-3.5611,-3.5616,-3.5616,-3.5616,-3.56,-3.5616,-3.565,-3.5735,-3.6045,-3.6502,-3.711,-3.7939,-4.9018,-4.9018,-4.9018,-4.9018,-4.9018,-4.9018,-4.9018,-4.9018,-4.9018,-4.9018,-4.9018,-4.9018,-4.9018,-4.9018,-4.9018,-4.9018,-4.9018,-4.9018,-4.9018,-4.9018,-4.9018,-4.9018,-4.9018,-4.9018,-4.9018,-4.9018,-4.9018,-4.9018,-4.9018,-4.9018,-4.9018,-4.9018,-4.8951,-4.8663,-4.8091,-4.7736,-4.7043,-4.5974,-4.5602,-4.5196,-4.4716,-4.4598,-4.4598,-4.4598,-4.4598,-4.4598,-4.4598,-4.4598,-4.4598,-4.4598,-4.4598,-4.4598,-4.4598,-4.4598,-4.4598,-4.4598,-4.4598,-4.4598,-4.4598,-4.4598,-4.4598,-4.4598,-4.4598,-4.4598,-4.444,-4.3948,-4.3502,-4.3353,-4.2661,-4.2029,-4.1772,-4.2029,-4.2173,-4.2237,-4.2442,-4.2567,-4.2407,-4.2689,-4.2141,-4.148,-4.0516,-4.0569,-4.0595,-4.0321,-4.0113,-4.0113,-4.0096,-4.007,-3.9995,-3.9876,-3.9564,-3.9009,-3.8871,-3.8024,-3.7212,-3.6417,-3.6134,-3.5881,-3.5628,-3.5701,-3.5988,-3.6039,-3.5599,-3.5616,-3.5583,-3.5396,-3.5184,-3.5224,-3.5487,-3.5825,-3.6113,-3.64,-3.6728,-3.7398,-3.8176,-4.9018,-4.9018,-4.9018,-4.9018,-4.9018,-4.9018,-4.9018,-4.9018,-4.9018,-4.9018,-4.9018,-4.9018,-4.9018,-4.9018,-4.9018,-4.9018,-4.9018,-4.9018,-4.9018,-4.9018,-4.9018,-4.9018,-4.9018,-4.9018,-4.9018,-4.9018,-4.9018,-4.9018,-4.9018,-4.9018,-4.9018,-4.9018,-4.9001,-4.89,-4.8426,-4.8075,-4.7344,-4.6397,-4.5568,-4.497,-4.4682,-4.4598,-4.4598,-4.4598,-4.4598,-4.4598,-4.4598,-4.4598,-4.4598,-4.4598,-4.4598,-4.4598,-4.4598,-4.4598,-4.4598,-4.4598,-4.4598,-4.4598,-4.4598,-4.457,-4.4598,-4.4598,-4.4598,-4.4598,-4.4412,-4.3814,-4.2986,-4.2552,-4.1772,-4.1147,-4.0842,-4.1028,-4.1213,-4.1346,-4.1543,-4.1739,-4.1756,-4.1789,-4.1659,-4.0989,-4.0367,-4.0267,-4.0074,-3.9594,-3.952,-3.9927,-3.985,-3.9731,-3.9558,-3.9315,-3.889,-3.8358,-3.8405,-3.8379,-3.7652,-3.6924,-3.6858,-3.6538,-3.5712,-3.592,-3.6563,-3.6574,-3.5853,-3.5382,-3.5224,-3.5022,-3.4747,-3.4991,-3.5383,-3.5965,-3.6535,-3.6753,-3.706,-3.799,-3.8734,-4.9018,-4.9018,-4.9018,-4.9018,-4.9018,-4.9018,-4.9018,-4.9018,-4.9018,-4.9018,-4.9018,-4.9018,-4.9018,-4.9018,-4.9018,-4.9018,-4.9018,-4.9018,-4.9018,-4.9018,-4.9018,-4.9018,-4.9018,-4.9018,-4.9018,-4.9018,-4.9018,-4.9018,-4.9018,-4.9018,-4.9018,-4.9018,-4.9018,-4.8968,-4.8866,-4.8477,-4.7784,-4.6701,-4.5602,-4.4942,-4.4666,-4.4598,-4.4598,-4.4598,-4.4598,-4.4598,-4.4598,-4.4598,-4.4598,-4.4598,-4.4598,-4.4598,-4.4598,-4.4598,-4.4598,-4.4497,-4.4367,-4.415,-4.4253,-4.4384,-4.4542,-4.4598,-4.4542,-4.4468,-4.4093,-4.3502,-4.263,-4.1739,-4.086,-4.0115,-3.9722,-4.008,-4.0239,-4.0535,-4.0842,-4.1162,-4.133,-4.1103,-4.0827,-4.0235,-3.9677,-3.9345,-3.9082,-3.8615,-3.8799,-3.9566,-3.9653,-3.9385,-3.9032,-3.8646,-3.8378,-3.7886,-3.7768,-3.7885,-3.7493,-3.709,-3.719,-3.6932,-3.6095,-3.5859,-3.6314,-3.6108,-3.5358,-3.5046,-3.4898,-3.4652,-3.4347,-3.4814,-3.5242,-3.54,-3.575,-3.6764,-3.7472,-3.8334,-3.9091,-4.9018,-4.9018,-4.9018,-4.9018,-4.9018,-4.9018,-4.9018,-4.9018,-4.9018,-4.9018,-4.9018,-4.9018,-4.9018,-4.9018,-4.9018,-4.9018,-4.9018,-4.9018,-4.9018,-4.9018,-4.9018,-4.9018,-4.9018,-4.9018,-4.9018,-4.9018,-4.9018,-4.9018,-4.9018,-4.9018,-4.9018,-4.9018,-4.9018,-4.9018,-4.8934,-4.868,-4.802,-4.7005,-4.5957,-4.5229,-4.484,-4.4649,-4.4598,-4.4598,-4.4598,-4.4598,-4.4598,-4.4598,-4.4598,-4.4598,-4.4598,-4.4598,-4.4598,-4.4598,-4.457,-4.4281,-4.3873,-4.3591,-4.3532,-4.3873,-4.4412,-4.4525,-4.4367,-4.396,-4.3426,-4.2583,-4.1739,-4.0979,-4.0255,-3.9702,-3.9445,-3.9481,-3.9702,-3.9829,-4.006,-4.013,-4.022,-4.006,-3.9743,-3.938,-3.897,-3.8547,-3.8197,-3.7787,-3.8094,-3.8832,-3.8663,-3.8398,-3.8161,-3.7857,-3.7845,-3.7561,-3.7189,-3.708,-3.6908,-3.6753,-3.6731,-3.6352,-3.5656,-3.5548,-3.5743,-3.5287,-3.4679,-3.4645,-3.4477,-3.4222,-3.3904,-3.3825,-3.3889,-3.4284,-3.4924,-3.6041,-3.6895,-3.756,-3.848,-4.9018,-4.9018,-4.9018,-4.9018,-4.9018,-4.9018,-4.9018,-4.9018,-4.9018,-4.9018,-4.9018,-4.9018,-4.9018,-4.9018,-4.9018,-4.9018,-4.9018,-4.9018,-4.9018,-4.9018,-4.9018,-4.9018,-4.9018,-4.9018,-4.9018,-4.9018,-4.9018,-4.9018,-4.9018,-4.9018,-4.9018,-4.9018,-4.9018,-4.9018,-4.8934,-4.8663,-4.802,-4.7411,-4.6397,-4.5534,-4.5314,-4.4784,-4.4598,-4.4598,-4.4598,-4.4598,-4.4598,-4.4598,-4.4598,-4.4615,-4.4632,-4.4682,-4.4688,-4.4671,-4.4349,-4.3952,-4.3446,-4.297,-4.2583,-4.2847,-4.297,-4.3,-4.297,-4.2878,-4.2489,-4.1723,-4.118,-4.0535,-3.9935,-3.9424,-3.9388,-3.9424,-3.946,-3.9424,-3.9388,-3.9388,-3.9388,-3.9388,-3.9275,-3.9122,-3.8312,-3.7571,-3.7273,-3.6938,-3.7455,-3.7991,-3.7687,-3.7424,-3.7219,-3.713,-3.7157,-3.7246,-3.693,-3.7046,-3.6973,-3.6653,-3.627,-3.5721,-3.5216,-3.5153,-3.5075,-3.4452,-3.4005,-3.4027,-3.3873,-3.3377,-3.2905,-3.2499,-3.2765,-3.3625,-3.4462,-3.5386,-3.6124,-3.6806,-3.7597,-4.9018,-4.9018,-4.9018,-4.9018,-4.9018,-4.9018,-4.9018,-4.9018,-4.9018,-4.9018,-4.9018,-4.9018,-4.9018,-4.9018,-4.9018,-4.9018,-4.9018,-4.9018,-4.9018,-4.9018,-4.9018,-4.9018,-4.9018,-4.9018,-4.9018,-4.9018,-4.9018,-4.9018,-4.9018,-4.9018,-4.9018,-4.9018,-4.9018,-4.9018,-4.8883,-4.8562,-4.8108,-4.7618,-4.7043,-4.6194,-4.6024,-4.5602,-4.5122,-4.5156,-4.5241,-4.5004,-4.4902,-4.4835,-4.4993,-4.4993,-4.501,-4.5077,-4.5037,-4.4798,-4.4236,-4.3644,-4.2899,-4.2269,-4.1836,-4.1901,-4.1965,-4.2221,-4.2189,-4.1997,-4.1495,-4.0997,-4.0724,-4.0205,-3.9702,-3.9388,-3.9388,-3.9388,-3.9388,-3.9388,-3.9388,-3.9388,-3.9388,-3.9373,-3.92,-3.896,-3.8063,-3.7274,-3.6929,-3.6689,-3.6708,-3.7205,-3.7188,-3.6828,-3.6384,-3.6352,-3.6477,-3.6598,-3.6674,-3.6976,-3.7273,-3.6541,-3.5824,-3.5191,-3.4742,-3.4558,-3.4304,-3.3743,-3.3359,-3.3321,-3.3014,-3.242,-3.2211,-3.2165,-3.2624,-3.3322,-3.4006,-3.4605,-3.5664,-3.6329,-3.6502,-4.9018,-4.9018,-4.9018,-4.9018,-4.9018,-4.9018,-4.9018,-4.9018,-4.9018,-4.9018,-4.9018,-4.9018,-4.9018,-4.9018,-4.9018,-4.9018,-4.9018,-4.9018,-4.9018,-4.9018,-4.9018,-4.9018,-4.9018,-4.9018,-4.9018,-4.9018,-4.9018,-4.9018,-4.9018,-4.9018,-4.9018,-4.9018,-4.9018,-4.9001,-4.8984,-4.8984,-4.8612,-4.8007,-4.7804,-4.731,-4.687,-4.6566,-4.6109,-4.5923,-4.6138,-4.5821,-4.5376,-4.5449,-4.5652,-4.5686,-4.5479,-4.5669,-4.6026,-4.4826,-4.4198,-4.3901,-4.196,-4.1026,-4.0758,-4.1495,-4.1658,-4.1576,-4.1379,-4.1295,-4.0894,-4.0569,-4.0309,-3.9758,-3.9445,-3.9388,-3.9388,-3.9388,-3.9388,-3.9388,-3.9388,-3.9388,-3.9388,-3.9373,-3.9215,-3.8766,-3.8033,-3.7315,-3.6896,-3.6535,-3.6262,-3.6383,-3.6569,-3.6306,-3.5846,-3.5782,-3.5975,-3.6054,-3.6228,-3.6352,-3.6477,-3.599,-3.5369,-3.4719,-3.4332,-3.4196,-3.3815,-3.334,-3.2998,-3.2735,-3.263,-3.2448,-3.2225,-3.2032,-3.2362,-3.267,-3.3141,-3.3802,-3.492,-3.5568,-3.5482,-4.9018,-4.9018,-4.9018,-4.9018,-4.9018,-4.9018,-4.9018,-4.9018,-4.9018,-4.9018,-4.9018,-4.9018,-4.9018,-4.9018,-4.9018,-4.9018,-4.9018,-4.9018,-4.9018,-4.9018,-4.9018,-4.9018,-4.9018,-4.9018,-4.9018,-4.9018,-4.9018,-4.9018,-4.9018,-4.9018,-4.9018,-4.9018,-4.9018,-4.9018,-4.9001,-4.9001,-4.8815,-4.8595,-4.8176,-4.772,-4.7496,-4.7107,-4.6735,-4.6481,-4.6735,-4.649,-4.5899,-4.6144,-4.6279,-4.6237,-4.5995,-4.5813,-4.5792,-4.4556,-4.3379,-4.2793,-4.1143,-4.0447,-4.008,-4.0165,-4.0255,-4.0324,-4.0393,-4.0324,-3.9864,-3.9844,-3.961,-3.9502,-3.9424,-3.9388,-3.9388,-3.9388,-3.9388,-3.9388,-3.9388,-3.9388,-3.9388,-3.9373,-3.9194,-3.8571,-3.7853,-3.703,-3.6462,-3.6656,-3.6504,-3.6116,-3.6281,-3.6067,-3.5634,-3.5587,-3.5668,-3.5668,-3.5718,-3.5718,-3.5636,-3.5554,-3.5237,-3.4671,-3.4236,-3.3984,-3.3546,-3.3051,-3.2706,-3.2496,-3.2572,-3.2572,-3.2168,-3.1809,-3.169,-3.1921,-3.2511,-3.2884,-3.3598,-3.3889,-3.3721,-4.9018,-4.9018,-4.9018,-4.9018,-4.9018,-4.9018,-4.9018,-4.9018,-4.9018,-4.9018,-4.9018,-4.9018,-4.9018,-4.9018,-4.9018,-4.9018,-4.9018,-4.9018,-4.9018,-4.9018,-4.9018,-4.9018,-4.9018,-4.9018,-4.9018,-4.9018,-4.9018,-4.9018,-4.9018,-4.9018,-4.9018,-4.9018,-4.9018,-4.9018,-4.9018,-4.9001,-4.9001,-4.8832,-4.8528,-4.8328,-4.8173,-4.7885,-4.7496,-4.7254,-4.7103,-4.6823,-4.6505,-4.6518,-4.6703,-4.6502,-4.6175,-4.5878,-4.5473,-4.4391,-4.3016,-4.2132,-4.0846,-4.0112,-3.9595,-3.9481,-3.9646,-3.9589,-3.9388,-3.9388,-3.9388,-3.9481,-3.9496,-3.9424,-3.9388,-3.9388,-3.9388,-3.9388,-3.9388,-3.9388,-3.9388,-3.9388,-3.9388,-3.9373,-3.9313,-3.8646,-3.8123,-3.7165,-3.6387,-3.6596,-3.6783,-3.6409,-3.6046,-3.5789,-3.5564,-3.5519,-3.5504,-3.5489,-3.5522,-3.5554,-3.5587,-3.5522,-3.513,-3.4593,-3.4292,-3.4098,-3.344,-3.3006,-3.2647,-3.2273,-3.2288,-3.2198,-3.1869,-3.163,-3.1884,-3.1974,-3.2151,-3.2405,-3.2452,-3.2781,-3.308,-4.9018,-4.9018,-4.9018,-4.9018,-4.9018,-4.9018,-4.9018,-4.9018,-4.9018,-4.9018,-4.9018,-4.9018,-4.9018,-4.9018,-4.9018,-4.9018,-4.9018,-4.9018,-4.9018,-4.9018,-4.9018,-4.9018,-4.9018,-4.9018,-4.9018,-4.9018,-4.9018,-4.9018,-4.9018,-4.9018,-4.9018,-4.9018,-4.9018,-4.9018,-4.9018,-4.9018,-4.9018,-4.8951,-4.89,-4.8641,-4.8399,-4.8514,-4.7939,-4.7552,-4.7205,-4.6634,-4.6289,-4.6174,-4.6421,-4.6421,-4.6323,-4.6717,-4.633,-4.5033,-4.3747,-4.2253,-4.0374,-3.9754,-3.9409,-3.9388,-3.9388,-3.9388,-3.9388,-3.9388,-3.9388,-3.9388,-3.9388,-3.9388,-3.9388,-3.9388,-3.9388,-3.9388,-3.9388,-3.9388,-3.9388,-3.9388,-3.9388,-3.9388,-3.9388,-3.908,-3.8736,-3.8018,-3.7255,-3.7195,-3.718,-3.6791,-3.6387,-3.5983,-3.5759,-3.5549,-3.5534,-3.5489,-3.5489,-3.5489,-3.5489,-3.5489,-3.534,-3.4876,-3.4758,-3.4472,-3.3739,-3.3275,-3.326,-3.2946,-3.2213,-3.1959,-3.2168,-3.2362,-3.2512,-3.2557,-3.2632,-3.2677,-3.2976,-3.335,-3.3679,-4.9018,-4.9018,-4.9018,-4.9018,-4.9018,-4.9018,-4.9018,-4.9018,-4.9018,-4.9018,-4.9018,-4.9018,-4.9018,-4.9018,-4.9018,-4.9018,-4.9018,-4.9018,-4.9018,-4.9018,-4.9018,-4.9018,-4.9018,-4.9018,-4.9018,-4.9018,-4.9018,-4.9018,-4.9018,-4.9018,-4.9018,-4.9018,-4.9018,-4.9018,-4.9018,-4.9001,-4.897,-4.8909,-4.8877,-4.8576,-4.8193,-4.8047,-4.7539,-4.7043,-4.6705,-4.6173,-4.6058,-4.6009,-4.6203,-4.6219,-4.5603,-4.5539,-4.5326,-4.3402,-4.1669,-4.0504,-3.9667,-3.9388,-3.9388,-3.9388,-3.9388,-3.9388,-3.9388,-3.9388,-3.9388,-3.9388,-3.9388,-3.9388,-3.9388,-3.9388,-3.9388,-3.9388,-3.9388,-3.9388,-3.9388,-3.9388,-3.9388,-3.9388,-3.9388,-3.9313,-3.9005,-3.8646,-3.7893,-3.7659,-3.7569,-3.718,-3.6776,-3.6342,-3.5938,-3.5714,-3.5534,-3.5504,-3.5489,-3.5489,-3.5489,-3.5489,-3.5415,-3.5265,-3.51,-3.4938,-3.4472,-3.4128,-3.4083,-3.3709,-3.3065,-3.2931,-3.3021,-3.314,-3.3185,-3.3395,-3.3484,-3.344,-3.3484,-3.3814,-3.4158,-4.9018,-4.9018,-4.9018,-4.9018,-4.9018,-4.9018,-4.9018,-4.9018,-4.9018,-4.9018,-4.9018,-4.9018,-4.9018,-4.9018,-4.9018,-4.9018,-4.9018,-4.9018,-4.9018,-4.9018,-4.9018,-4.9018,-4.9018,-4.9018,-4.9018,-4.9018,-4.9018,-4.9018,-4.9018,-4.9018,-4.9018,-4.9018,-4.9018,-4.9018,-4.9018,-4.897,-4.8736,-4.8545,-4.8338,-4.8096,-4.7704,-4.7205,-4.6678,-4.6224,-4.5905,-4.567,-4.5634,-4.5634,-4.5634,-4.5634,-4.4946,-4.4849,-4.4467,-4.2705,-4.1115,-4.0111,-3.9574,-3.9433,-3.9388,-3.9388,-3.9388,-3.9388,-3.9388,-3.9388,-3.9388,-3.9388,-3.9388,-3.9388,-3.9388,-3.9388,-3.9388,-3.9388,-3.9388,-3.9388,-3.9388,-3.9388,-3.9388,-3.9388,-3.9388,-3.9388,-3.9194,-3.8925,-3.8566,-3.8302,-3.8018,-3.7734,-3.727,-3.6716,-3.6222,-3.5789,-3.5609,-3.5504,-3.5489,-3.5489,-3.5489,-3.5489,-3.5444,-3.5415,-3.5385,-3.519,-3.4981,-3.4683,-3.4292,-3.4158,-3.4008,-3.3873,-3.3709,-3.3799,-3.3873,-3.4023,-3.4083,-3.4053,-3.4008,-3.4128,-3.4472,-4.9018,-4.9018,-4.9018,-4.9018,-4.9018,-4.9018,-4.9018,-4.9018,-4.9018,-4.9018,-4.9018,-4.9018,-4.9018,-4.9018,-4.9018,-4.9018,-4.9018,-4.9018,-4.9018,-4.9018,-4.9018,-4.9018,-4.9018,-4.9018,-4.9018,-4.9018,-4.9018,-4.9018,-4.9018,-4.9018,-4.9018,-4.9018,-4.9018,-4.9018,-4.9018,-4.9018,-4.8656,-4.795,-4.7589,-4.7273,-4.7002,-4.6539,-4.6012,-4.5726,-4.5174,-4.4646,-4.4646,-4.4662,-4.4715,-4.4662,-4.4646,-4.4586,-4.3577,-4.2614,-4.1235,-4.0307,-3.9664,-3.9463,-3.9388,-3.9388,-3.9388,-3.9388,-3.9388,-3.9388,-3.9388,-3.9388,-3.9388,-3.9388,-3.9388,-3.9388,-3.9388,-3.9388,-3.9388,-3.9388,-3.9388,-3.9388,-3.9388,-3.9388,-3.9388,-3.9313,-3.9059,-3.885,-3.8955,-3.8661,-3.8317,-3.8167,-3.7704,-3.706,-3.6611,-3.6073,-3.5699,-3.5534,-3.5489,-3.5489,-3.5489,-3.5489,-3.5489,-3.5489,-3.5489,-3.5459,-3.5265,-3.4846,-3.4414,-3.4487,-3.4622,-3.4457,-3.4337,-3.4442,-3.4442,-3.4322,-3.4412,-3.4563,-3.4623,-3.4638,-3.4786,-4.9018,-4.9018,-4.9018,-4.9018,-4.9018,-4.9018,-4.9018,-4.9018,-4.9018,-4.9018,-4.9018,-4.9018,-4.9018,-4.9018,-4.9018,-4.9018,-4.9018,-4.9018,-4.9018,-4.9018,-4.9018,-4.9018,-4.9018,-4.9018,-4.9018,-4.9018,-4.9018,-4.9018,-4.9018,-4.9018,-4.9018,-4.9018,-4.9018,-4.9018,-4.9018,-4.897,-4.8401,-4.744,-4.6781,-4.6154,-4.5561,-4.5285,-4.4856,-4.4343,-4.3747,-4.3771,-4.3771,-4.3747,-4.3708,-4.3669,-4.3669,-4.3156,-4.2206,-4.1648,-4.0838,-3.9888,-3.9544,-3.9418,-3.9388,-3.9388,-3.9388,-3.9388,-3.9388,-3.9388,-3.9388,-3.9388,-3.9388,-3.9388,-3.9388,-3.9388,-3.9388,-3.9388,-3.9388,-3.9388,-3.9388,-3.9388,-3.9388,-3.9388,-3.9388,-3.9179,-3.8945,-3.899,-3.9104,-3.897,-3.8661,-3.8227,-3.7749,-3.7255,-3.6971,-3.6492,-3.5848,-3.5624,-3.5519,-3.5489,-3.5489,-3.5489,-3.5489,-3.5489,-3.5489,-3.5489,-3.5489,-3.5205,-3.4906,-3.5115,-3.522,-3.4996,-3.4921,-3.5145,-3.51,-3.4831,-3.4801,-3.4966,-3.5085,-3.513,-3.5265,-4.9018,-4.9018,-4.9018,-4.9018,-4.9018,-4.9018,-4.9018,-4.9018,-4.9018,-4.9018,-4.9018,-4.9018,-4.9018,-4.9018,-4.9018,-4.9018,-4.9018,-4.9018,-4.9018,-4.9018,-4.9018,-4.9018,-4.9018,-4.9018,-4.9018,-4.9018,-4.9018,-4.9018,-4.9018,-4.9018,-4.9018,-4.9018,-4.9018,-4.897,-4.894,-4.8608,-4.7933,-4.6952,-4.6083,-4.5174,-4.4282,-4.4066,-4.3966,-4.3369,-4.3305,-4.3305,-4.3305,-4.3305,-4.3305,-4.3305,-4.3369,-4.265,-4.1963,-4.1467,-4.0696,-3.9873,-3.9403,-3.9388,-3.9388,-3.9388,-3.9388,-3.9388,-3.9388,-3.9388,-3.9388,-3.9388,-3.9388,-3.9388,-3.9388,-3.9388,-3.9388,-3.9388,-3.9388,-3.9388,-3.9388,-3.9388,-3.9388,-3.9388,-3.9388,-3.9313,-3.9185,-3.92,-3.929,-3.9239,-3.8886,-3.8332,-3.7823,-3.727,-3.7015,-3.6821,-3.6193,-3.5684,-3.5549,-3.5489,-3.5489,-3.5489,-3.5489,-3.5489,-3.5489,-3.5489,-3.5489,-3.5489,-3.5474,-3.5459,-3.5459,-3.5415,-3.5444,-3.5489,-3.5489,-3.5235,-3.5295,-3.5415,-3.5489,-3.5489,-3.5489,-4.9018,-4.9018,-4.9018,-4.9018,-4.9018,-4.9018,-4.9018,-4.9018,-4.9018,-4.9018,-4.9018,-4.9018,-4.9018,-4.9018,-4.9018,-4.9018,-4.9018,-4.9018,-4.9018,-4.9018,-4.9018,-4.9018,-4.9018,-4.9018,-4.9018,-4.9018,-4.9018,-4.9018,-4.9018,-4.9018,-4.9018,-4.9018,-4.897,-4.8923,-4.8608,-4.8047,-4.7239,-4.6189,-4.5248,-4.4396,-4.3747,-4.3305,-4.3329,-4.3344,-4.3305,-4.3305,-4.3305,-4.3305,-4.3305,-4.3215,-4.311,-4.2402,-4.1698,-4.119,-4.0457,-3.9723,-3.9388,-3.9388,-3.9388,-3.9388,-3.9388,-3.9388,-3.9388,-3.9388,-3.9388,-3.9388,-3.9388,-3.9388,-3.9388,-3.9388,-3.9388,-3.9388,-3.9388,-3.9388,-3.9388,-3.9388,-3.9388,-3.9388,-3.9388,-3.9373,-3.9298,-3.9305,-3.9379,-3.9328,-3.9005,-3.8452,-3.7988,-3.7345,-3.6881,-3.6731,-3.6372,-3.5863,-3.5534,-3.5489,-3.5489,-3.5489,-3.5489,-3.5489,-3.5489,-3.5489,-3.5489,-3.5489,-3.5489,-3.5489,-3.5489,-3.5489,-3.5489,-3.5489,-3.5489,-3.5489,-3.5489,-3.5489,-3.5489,-3.5489,-3.5489,-4.9018,-4.9018,-4.9018,-4.9018,-4.9018,-4.9018,-4.9018,-4.9018,-4.9018,-4.9018,-4.9018,-4.9018,-4.9018,-4.9018,-4.9018,-4.9018,-4.9018,-4.9018,-4.9018,-4.9018,-4.9018,-4.9018,-4.9018,-4.9018,-4.9018,-4.9018,-4.9018,-4.9018,-4.9018,-4.9018,-4.9018,-4.9018,-4.9018,-4.8639,-4.7901,-4.734,-4.6763,-4.5597,-4.4856,-4.4182,-4.3591,-4.3305,-4.3305,-4.3305,-4.3305,-4.3305,-4.3305,-4.3305,-4.3305,-4.3155,-4.2836,-4.2177,-4.1549,-4.0935,-4.0217,-3.9709,-3.9388,-3.9388,-3.9388,-3.9388,-3.9388,-3.9388,-3.9388,-3.9388,-3.9388,-3.9388,-3.9388,-3.9388,-3.9388,-3.9388,-3.9388,-3.9388,-3.9388,-3.9388,-3.9388,-3.9388,-3.9388,-3.9388,-3.9388,-3.9209,-3.905,-3.9185,-3.9343,-3.9254,-3.9065,-3.8736,-3.8856,-3.8197,-3.721,-3.6881,-3.6552,-3.6028,-3.5549,-3.5489,-3.5489,-3.5489,-3.5489,-3.5489,-3.5489,-3.5489,-3.5489,-3.5489,-3.5489,-3.5489,-3.5489,-3.5489,-3.5489,-3.5489,-3.5489,-3.5489,-3.5489,-3.5489,-3.5489,-3.5489,-3.5489]},{"header":{"parameterUnit":"m.s-1","parameterCategory":1,"la1":31.0,"la2":29.5877,"lo1":-88.7671,"lo2":-86.6584,"dy":0.0162,"dx":0.0185,"nx":115,"ny":88,"refTime":"2025-04-12T12:00:00:Z","depth":0,"parameterNumber":3,"parameterNumberName":"V-component_of_WINDS"},"data":[0.0,0.0,0.0,0.0,0.0,0.0,0.0,0.0,0.0,0.0,0.0,0.0,0.0,0.0,0.0,0.0,0.0,0.0,0.0,0.0,0.0,0.0,0.0,0.0,0.0,0.0,0.0,0.0,0.0,0.0,0.0,0.0,0.0,0.0,0.0,0.0,0.0,0.0,0.0,0.0,0.0,0.0,0.0,0.0,0.0,0.0,0.0,0.0,0.0,0.0,0.0,0.0,0.0,0.0,0.0,0.0,0.0,0.0,0.0,0.0,0.0,0.0,0.0,0.0,0.0,0.0,0.0,0.0,0.0,0.0,0.0,0.0,0.0,0.0,0.0,0.0,0.0,0.0,0.0,0.0,0.0,0.0,0.0,0.0,0.0,0.0,0.0,0.0,0.0,0.0,0.0,0.0,0.0,0.0,0.0,0.0,0.0,0.0,0.0,0.0,0.0,0.0,0.0,0.0,0.0,0.0,0.0,0.0,0.0,0.0,0.0,0.0,0.0,0.0,0.0,0.0,0.0,0.0,0.0,0.0,0.0,0.0,0.0,0.0,0.0,0.0,0.0,0.0,0.0,0.0,0.0,0.0,0.0,0.0,0.0,0.0,0.0,0.0,0.0,0.0,0.0,0.0,0.0,0.0,0.0,0.0,0.0,0.0,0.0,0.0,0.0,0.0,0.0,0.0,0.0,0.0,0.0,0.0,0.0,0.0,0.0,0.0,0.0,0.0,0.0,0.0,0.0,0.0,0.0,0.0,0.0,0.0,0.0,0.0,0.0,0.0,0.0,0.0,0.0,0.0,0.0,0.0,0.0,0.0,0.0,0.0,0.0,0.0,0.0,0.0,0.0,0.0,0.0,0.0,0.0,0.0,0.0,0.0,0.0,0.0,0.0,0.0,0.0,0.0,0.0,0.0,0.0,0.0,0.0,0.0,0.0,0.0,0.0,0.0,0.0,0.0,0.0,0.0,0.0,0.0,0.0,0.0,0.0,0.0,0.0,0.0,0.0,0.0,0.0,0.0,0.0,0.0,0.0,0.0,0.0,0.0,0.0,0.0,0.0,0.0,0.0,0.0,0.0,0.0,0.0,0.0,0.0,0.0,0.0,0.0,0.0,0.0,0.0,0.0,0.0,0.0,0.0,0.0,0.0,0.0,0.0,0.0,0.0,0.0,0.0,0.0,0.0,0.0,0.0,0.0,0.0,0.0,0.0,0.0,0.0,0.0,0.0,0.0,0.0,0.0,0.0,0.0,0.0,0.0,0.0,0.0,0.0,0.0,0.0,0.0,0.0,0.0,0.0,0.0,0.0,0.0,0.0,0.0,0.0,0.0,0.0,0.0,0.0,0.0,0.0,0.0,0.0,0.0,0.0,0.0,0.0,0.0,0.0,0.0,0.0,0.0,0.0,0.0,0.0,0.0,0.0,0.0,0.0,0.0,0.0,0.0,0.0,0.0,0.0,0.0,0.0,0.0,0.0,0.0,0.0,0.0,0.0,0.0,0.0,0.0,0.0,0.0,0.0,0.0,0.0,0.0,0.0,0.0,0.0,0.0,0.0,0.0,0.0,0.0,0.0,0.0,0.0,0.0,0.0,0.0,0.0,0.0,0.0,0.0,0.0,0.0,0.0,0.0,0.0,0.0,0.0,0.0,0.0,0.0,0.0,0.0,0.0,0.0,0.0,0.0,0.0,0.0,0.0,0.0,0.0,0.0,0.0,0.0,0.0,0.0,0.0,0.0,0.0,0.0,0.0,0.0,0.0,0.0,0.0,0.0,0.0,0.0,0.0,0.0,0.0,0.0,0.0,0.0,0.0,0.0,0.0,0.0,0.0,0.0,0.0,0.0,0.0,0.0,0.0,0.0,0.0,0.0,0.0,0.0,0.0,0.0,0.0,0.0,0.0,0.0,0.0,0.0,0.0,0.0,0.0,0.0,0.0,0.0,0.0,0.0,0.0,0.0,0.0,0.0,0.0,0.0,0.0,0.0,0.0,0.0,0.0,0.0,0.0,0.0,0.0,0.0,0.0,0.0,0.0,0.0,0.0,0.0,0.0,0.0,0.0,0.0,0.0,0.0,0.0,0.0,0.0,0.0,0.0,0.0,0.0,0.0,0.0,0.0,0.0,0.0,0.0,0.0,0.0,0.0,0.0,0.0,0.0,0.0,0.0,0.0,0.0,0.0,0.0,0.0,0.0,0.0,0.0,0.0,0.0,0.0,0.0,0.0,0.0,0.0,0.0,0.0,0.0,0.0,0.0,0.0,0.0,0.0,0.0,0.0,0.0,0.0,0.0,0.0,0.0,0.0,0.0,0.0,0.0,0.0,0.0,0.0,0.0,0.0,0.0,0.0,0.0,0.0,0.0,0.0,0.0,0.0,0.0,0.0,0.0,0.0,0.0,0.0,0.0,0.0,0.0,0.0,0.0,0.0,0.0,0.0,0.0,0.0,0.0,0.0,0.0,0.0,0.0,0.0,0.0,0.0,0.0,0.0,0.0,0.0,0.0,0.0,0.0,0.0,0.0,0.0,0.0,0.0,0.0,0.0,0.0,0.0,0.0,0.0,0.0,0.0,0.0,0.0,0.0,0.0,0.0,0.0,0.0,0.0,0.0,0.0,0.0,0.0,0.0,0.0,0.0,0.0,0.0,0.0,0.0,0.0,0.0,0.0,0.0,0.0,0.0,0.0,0.0,0.0,0.0,0.0,0.0,0.0,0.0,0.0,0.0,0.0,0.0,0.0,0.0,0.0,0.0,0.0,0.0,0.0,0.0,0.0,0.0,0.0,0.0,0.0,0.0,0.0,0.0,0.0,0.0,0.0,0.0,0.0,0.0,0.0,0.0,0.0,0.0,0.0,0.0,0.0,0.0,0.0,0.0,0.0,0.0,0.0,0.0,0.0,0.0,0.0,0.0,0.0,0.0,0.0,0.0,0.0,0.0,0.0,0.0,0.0,0.0,0.0,0.0,0.0,0.0,0.0,0.0,0.0,0.0,0.0,0.0,0.0,0.0,0.0,0.0,0.0,0.0,0.0,0.0,0.0,0.0,0.0,0.0,0.0,0.0,0.0,0.0,0.0,0.0,0.0,0.0,0.0,0.0,0.0,0.0,0.0,0.0,0.0,0.0,0.0,0.0,0.0,0.0,0.0,0.0,0.0,0.0,0.0,0.0,0.0,0.0,0.0,0.0,0.0,0.0,0.0,0.0,0.0,0.0,0.0,0.0,0.0,0.0,0.0,0.0,0.0,0.0,0.0,0.0,0.0,0.0,0.0,0.0,0.0,0.0,0.0,0.0,0.0,0.0,0.0,0.0,0.0,0.0,0.0,0.0,0.0,0.0,0.0,0.0,0.0,0.0,0.0,0.0,0.0,0.0,0.0,0.0,0.0,0.0,0.0,0.0,0.0,0.0,0.0,0.0,0.0,0.0,0.0,0.0,0.0,0.0,0.0,0.0,0.0,0.0,0.0,0.0,0.0,0.0,0.0,0.0,0.0,0.0,0.0,0.0,0.0,0.0,0.0,0.0,0.0,0.0,0.0,0.0,0.0,0.0,0.0,0.0,0.0,0.0,0.0,0.0,0.0,0.0,0.0,0.0,0.0,0.0,0.0,0.0,0.0,0.0,0.0,0.0,0.0,0.0,0.0,0.0,0.0,0.0,0.0,0.0,0.0,0.0,0.0,0.0,0.0,0.0,0.0,0.0,0.0,0.0,0.0,0.0,0.0,0.0,0.0,0.0,0.0,0.0,0.0,0.0,0.0,0.0,0.0,0.0,0.0,0.0,0.0,0.0,0.0,0.0,0.0,0.0,0.0,0.0,0.0,0.0,0.0,0.0,0.0,0.0,0.0,0.0,0.0,0.0,0.0,0.0,0.0,0.0,0.0,0.0,0.0,0.0,0.0,0.0,0.0,0.0,0.0,0.0,0.0,0.0,0.0,0.0,0.0,0.0,0.0,0.0,0.0,0.0,0.0,0.0,0.0,0.0,0.0,0.0,0.0,0.0,0.0,0.0,0.0,0.0,0.0,0.0,0.0,0.0,0.0,0.0,0.0,0.0,0.0,0.0,0.0,0.0,0.0,0.0,0.0,0.0,0.0,0.0,0.0,0.0,0.0,0.0,0.0,0.0,0.0,0.0,0.0,0.0,0.0,0.0,0.0,0.0,0.0,0.0,0.0,0.0,0.0,0.0,0.0,0.0,0.0,0.0,0.0,0.0,0.0,0.0,0.0,0.0,0.0,0.0,0.0,0.0,0.0,0.0,0.0,0.0,0.0,0.0,0.0,0.0,0.0,0.0,0.0,0.0,0.0,0.0,0.0,0.0,0.0,0.0,0.0,0.0,0.0,0.0,0.0,0.0,0.0,0.0,0.0,0.0,0.0,0.0,0.0,0.0,0.0,0.0,0.0,0.0,0.0,0.0,0.0,0.0,0.0,0.0,0.0,0.0,0.0,0.0,0.0,0.0,0.0,0.0,0.0,0.0,0.0,0.0,0.0,0.0,0.0,0.0,0.0,0.0,0.0,0.0,0.0,0.0,0.0,0.0,0.0,0.0,0.0,0.0,0.0,0.0,0.0,0.0,0.0,0.0,0.0,0.0,0.0,0.0,0.0,0.0,0.0,0.0,0.0,0.0,0.0,0.0,0.0,0.0,0.0,0.0,0.0,0.0,0.0,0.0,0.0,0.0,0.0,0.0,0.0,0.0,0.0,0.0,0.0,0.0,0.0,0.0,0.0,0.0,0.0,0.0,0.0,0.0,0.0,0.0,0.0,0.0,0.0,0.0,0.0,0.0,0.0,0.0,0.0,0.0,0.0,0.0,0.0,0.0,0.0,0.0,0.0,0.0,0.0,0.0,0.0,0.0,0.0,0.0,0.0,0.0,0.0,0.0,0.0,0.0,0.0,0.0,0.0,0.0,0.0,0.0,0.0,0.0,0.0,0.0,0.0,0.0,0.0,0.0,0.0,0.0,0.0,0.0,0.0,0.0,0.0,0.0,0.0,0.0,0.0,0.0,0.0,0.0,0.0,0.0,0.0,0.0,0.0,0.0,0.0,0.0,0.0,0.0,0.0,0.0,0.0,0.0,0.0,0.0,0.0,0.0,0.0,0.0,0.0,0.0,0.0,0.0,0.0,0.0,0.0,0.0,0.0,0.0,0.0,0.0,0.0,0.0,0.0,0.0,0.0,0.0,0.0,0.0,0.0,0.0,0.0,0.0,0.0,0.0,0.0,0.0,0.0,0.0,0.0,0.0,0.0,0.0,0.0,0.0,0.0,0.0,0.0,0.0,0.0,0.0,0.0,0.0,0.0,0.0,0.0,0.0,0.0,0.0,0.0,0.0,0.0,0.0,0.0,0.0,0.0,0.0,0.0,0.0,0.0,0.0,0.0,0.0,0.0,0.0,0.0,0.0,0.0,0.0,0.0,0.0,0.0,0.0,0.0,0.0,0.0,0.0,0.0,0.0,0.0,0.0,0.0,0.0,0.0,0.0,0.0,0.0,0.0,0.0,0.0,0.0,0.0,0.0,0.0,0.0,0.0,0.0,0.0,0.0,0.0,0.0,0.0,0.0,0.0,0.0,0.0,0.0,0.0,0.0,0.0,0.0,0.0,0.0,0.0,0.0,0.0,0.0,0.0,0.0,0.0,0.0,0.0,0.0,0.0,0.0,0.0,0.0,0.0,0.0,0.0,0.0,0.0,0.0,0.0,0.0,0.0,0.0,0.0,0.0,0.0,0.0,0.0,0.0,0.0,0.0,0.0,0.0,0.0,0.0,0.0,0.0,0.0,0.0,0.0,0.0,0.0,0.0,0.0,0.0,0.0,0.0,0.0,0.0,0.0,0.0,0.0,0.0,0.0,0.0,0.0,0.0,0.0,0.0,0.0,0.0,0.0,0.0,0.0,0.0,0.0,0.0,0.0,0.0,0.0,0.0,0.0,0.0,0.0,0.0,0.0,0.0,0.0,0.0,0.0,0.0,0.0,0.0,0.0,0.0,0.0,0.0,0.0,0.0,0.0,0.0,0.0,0.0,0.0,0.0,0.0,0.0,0.0,0.0,0.0,0.0,0.0,0.0,0.0,0.0,0.0,0.0,0.0,0.0,0.0,0.0,0.0,0.0,0.0,0.0,0.0,0.0,0.0,0.0,0.0,0.0,0.0,0.0,0.0,0.0,0.0,0.0,0.0,0.0,0.0,0.0,0.0,0.0,0.0,0.0,0.0,0.0,0.0,0.0,0.0,0.0,0.0,0.0,0.0,0.0,0.0,0.0,0.0,0.0,0.0,0.0,0.0,0.0,0.0,0.0,0.0,0.0,0.0,0.0,0.0,0.0,0.0,0.0,0.0,0.0,0.0,0.0,0.0,0.0,0.0,0.0,0.0,0.0,0.0,0.0,0.0,0.0,0.0,0.0,0.0,0.0,0.0,0.0,0.0,0.0,0.0,0.0,0.0,0.0,0.0,0.0,0.0,0.0,0.0,0.0,0.0,0.0,0.0,0.0,0.0,0.0,0.0,0.0,0.0,0.0,0.0,0.0,0.0,0.0,0.0,0.0,0.0,0.0,0.0,0.0,0.0,0.0,0.0,0.0,0.0,0.0,0.0,0.0,0.0,0.0,0.0,0.0,0.0,0.0,0.0,0.0,0.0,0.0,0.0,0.0,0.0,0.0,0.0,0.0,0.0,0.0,0.0,0.0,0.0,0.0,0.0,0.0,0.0,0.0,0.0,0.0,0.0,0.0,0.0,0.0,0.0,0.0,0.0,0.0,0.0,0.0,0.0,0.0,0.0,0.0,0.0,0.0,0.0,0.0251,0.0,0.0,0.0,0.0,0.0,0.0,0.0,0.0,0.0,0.0,0.0,0.0,0.0,0.0,0.0,0.0,0.0,0.0,0.0,0.0,0.0,0.0,0.0,0.0,0.0,0.0,0.0,0.0,0.0,0.0,0.0,0.0,0.0,0.0,0.0,0.0,0.0,0.0,0.0,0.0,0.0,0.0,0.0,0.0,0.0,0.0,0.0,0.0,0.0,0.0,0.0,0.0,0.0,0.0,0.0,0.0,0.0,0.0,0.0,0.0,0.0,0.0,0.0,0.0,0.0,0.0,0.0,0.0,0.0,0.0,0.0,0.0,0.0,0.0,0.0,0.0,0.0,0.0,0.0,0.0,0.0,0.0,0.0,0.0,0.0,0.0,0.0,0.0,0.0,0.0,0.0,0.0,0.0,0.0,0.0,0.0,0.0,0.0,0.0,0.0,0.0,0.0,0.0,0.0,0.0,0.0,0.0,0.0,0.0,0.0,0.0,0.0,0.0,0.2304,0.0814,0.0,0.0,0.0,0.0,0.0,0.0,0.0,0.0,0.0,0.0,0.0,0.0,0.0,0.0,0.0,0.0,0.0,0.0,0.0,0.0,0.0,0.0,0.0,0.0,0.0,0.0,0.0,0.0,0.0,0.0,0.0,0.0,0.0,0.0,0.0,0.0,0.0,0.0,0.0,0.0,0.0,0.0,0.0,0.0,0.0,0.0,0.0,0.0,0.0,0.0,0.0,0.0,0.0,0.0,0.0,0.0,0.0,0.0,0.0,0.0,0.0,0.0,0.0,0.0,0.0,0.0,0.0,0.0,0.0,0.0,0.0,0.0,0.0,0.0,0.0,0.0,0.0,0.0,0.0,0.0,0.0,0.0,0.0,0.0,0.0,0.0,0.0,0.0,0.0,0.0,0.0,0.0,0.0,0.0,0.0,0.0,0.0,0.0,0.0,0.0,0.0,0.0,0.0,0.0,0.0,0.0,0.0,0.0,0.0,0.0,0.0,0.0,0.0,0.2499,0.0868,0.0,0.0,0.0,0.0,0.0,0.0,0.0,0.0,0.0,0.0,0.0,0.0,0.0,0.0,0.0,0.0,0.0,0.0,0.0,0.0,0.0,0.0,0.0,0.0,0.0,0.0,0.0,0.0,0.0,0.0,0.0,0.0,0.0,0.0,0.0,0.0,0.0,0.0,0.0,0.0,0.0,0.0,0.0,0.0,0.0,0.0,0.0,0.0,0.0,0.0,0.0,0.0,0.0,0.0,0.0,0.0,0.0,0.0,0.0,0.0,0.0,0.0,0.0,0.0,0.0,0.0,0.0,0.0,0.0,0.0,0.0,0.0,0.0,0.0,0.0,0.0,0.0,0.0,0.0,0.0,0.0,0.0,0.0,0.0,0.0,0.0,0.0,0.0,0.0,0.0,0.0,0.0,0.0,0.0,0.0,0.0,0.0,0.0,0.0,0.0,0.0,0.0,0.0,0.0,0.0,0.0,0.0,0.0,0.0,0.0,0.0,0.0,0.0,0.1774,0.0,0.0,0.0,0.0,0.0,0.0,0.0,0.0,0.0,0.0,0.0,0.0,0.0,0.0,0.0,0.0,0.0,0.0,0.0,0.0,0.0,0.0,0.0,0.0,0.0,0.0,0.0,0.0,0.0,0.0,0.0,0.0,0.0,0.0,0.0,0.0,0.0,0.0,0.0,0.0,0.0,0.0,0.0,0.0,0.0,0.0,0.0,0.0,0.0,0.0,0.0,0.0,0.0,0.0,0.0,0.0,0.0,0.0,0.0,0.0,0.0,0.0,0.0,0.0,0.0,0.0,0.0,0.0,0.0,0.0,0.0,0.0,0.0,0.0,0.0,0.0,0.0,0.0,0.0,0.0,0.0,0.0,0.0,0.0,0.0,0.0,0.0,0.0,0.0,0.0,0.0,0.0,0.0,0.0,0.0,0.0,0.0,0.0,0.0,0.0,0.0,0.0,0.0,0.0,0.0,0.0,0.0,0.0,0.0,0.0,0.0,0.0,0.0,0.3309,0.0242,0.0062,0.0,0.0,0.0,0.0,0.0,0.0,0.0,0.0,0.0,0.0,0.0,0.0,0.0,0.0,0.0,0.0,0.0,0.0,0.0,0.0,0.0,0.0,0.0,0.0,0.0,0.0,0.0,0.0,0.0,0.0,0.0,0.0,0.0,0.0,0.0,0.0,0.0,0.0,0.0,0.0,0.0,0.0,0.0,0.0,0.0,0.0,0.0,0.0,0.0,0.0,0.0,0.0,0.0,0.0,0.0,0.0,0.0,0.0,0.0,0.0,0.0,0.0,0.0,0.0,0.0,0.0,0.0,0.0,0.0,0.0,0.0,0.0,0.0,0.0,0.0,0.0,0.0,0.0,0.0,0.0,0.0,0.0,0.0,0.0,0.0,0.0,0.0,0.0,0.0,0.0,0.0,0.0,0.0,0.0,0.0,0.0,0.0,0.0,0.0,0.0,0.0,0.0,0.0,0.0,0.0,0.0,0.0,0.0,0.0,0.0,0.0,0.0,0.0,0.1774,0.0556,0.0,0.0,0.0,0.0,0.0,0.0,0.0,0.0,0.0,0.0,0.0,0.0,0.0,0.0,0.0,0.0,0.0,0.0,0.0,0.0,0.0,0.0,0.0,0.0,0.0,0.0,0.0,0.0,0.0,0.0,0.0,0.0,0.0,0.0,0.0,0.0,0.0,0.0,0.0,0.0,0.0,0.0,0.0,0.0,0.0,0.0,0.0,0.0,0.0,0.0,0.0,0.0,0.0,0.0,0.0,0.0,0.0,0.0,0.0,0.0,0.0,0.0,0.0,0.0,0.0,0.0,0.0,0.0,0.0,0.0,0.0,0.0,0.0,0.0,0.0,0.0,0.0,0.0,0.0,0.0,0.0,0.0,0.0,0.0,0.0,0.0,0.0,0.0,0.0,0.0,0.0,0.0,0.0,0.0,0.0,0.0,0.0,0.0,0.0,0.0,0.0,0.0,0.0,0.0,0.0,0.0,0.0,0.0,0.0,0.0,0.0,0.0,0.0,0.3471,0.1801,0.0625,0.0,0.0,0.0,0.0,0.0,0.0,0.0,0.0,0.0,0.0,0.0,0.0,0.0,0.0,0.0,0.0,0.0,0.0,0.0,0.0,0.0,0.0,0.0,0.0,0.0,0.0,0.0,0.0,0.0,0.0,0.0,0.0,0.0,0.0,0.0,0.0,0.0,0.0,0.0,0.0,0.0,0.0,0.0,0.0,0.0,0.0,0.0,0.0,0.0,0.0,0.0,0.0,0.0,0.0,0.0,0.0,0.0,0.0,0.0,0.0,0.0,0.0,0.0,0.0,0.0,0.0,0.0,0.0,0.0,0.0,0.0,0.0,0.0,0.0,0.0,0.0,0.0,0.0,0.0,0.0,0.0,0.0,0.0,0.0,0.0,0.0,0.0,0.0,0.0,0.0,0.0,0.0,0.0,0.0,0.0,0.0,0.0,0.0,0.0,0.0,0.0,0.0,0.0,0.0,0.0,0.0,0.0,0.0,0.0,0.0,0.0,0.0,0.5279,0.3655,0.1958,0.0,0.0,0.0119,0.0,0.0,0.0,0.0,0.0,0.0,0.0,0.0,0.0,0.0,0.0,0.0,0.0,0.0,0.0,0.0,0.0,0.0,0.0,0.0,0.0,0.0,0.0,0.0,0.0,0.0,0.0,0.0,0.0,0.0,0.0,0.0,0.0,0.0,0.0,0.0,0.0,0.0,0.0,0.0,0.0,0.0,0.0,0.0,0.0,0.0,0.0,0.0,0.0,0.0,0.0,0.0,0.0,0.0,0.0,0.0,0.0,0.0,0.0,0.0,0.0,0.0,0.0,0.0,0.0,0.0,0.0,0.0,0.0,0.0,0.0,0.0,0.0,0.0,0.0,0.0,0.0,0.0,0.0,0.0,0.0,0.0,0.0,0.0,0.0,0.0,0.0,0.0,0.0,0.0,0.0,0.0,0.0,0.0,0.0,0.0,0.0,0.0,0.0,0.0,0.0,0.0,0.0,0.0,0.0,0.0,0.0,0.0,0.0,0.7016,0.658,0.5036,0.2111,0.1991,0.1336,0.0,0.0,0.0,0.0,0.0,0.0,0.0,0.0,0.0,0.0,0.0,0.0,0.0,0.0,0.0,0.0,0.0,0.0,0.0,0.0,0.0,0.0,0.0,0.0,0.0,0.0,0.0,0.0,0.0,0.0,0.0,0.0,0.0,0.0,0.0,0.0,0.0,0.0,0.0,0.0,0.0,0.0,0.0,0.0,0.0,0.0,0.0,0.0,0.0,0.0,0.0,0.0,0.0,0.0,0.0,0.0,0.0,0.0,0.0,0.0,0.0,0.0,0.0,0.0,0.0,0.0,0.0,0.0,0.0,0.0,0.0,0.0,0.0,0.0,0.0,0.0,0.0,0.0,0.0,0.0,0.0,0.0,0.0,0.0,0.0,0.0,0.0,0.0,0.0,0.0,0.0,0.0,0.0,0.0,0.0,0.0,0.0,0.0,0.0,0.0,0.0,0.0,0.0,0.0,0.0,0.0,0.0,0.0,0.9706,0.8805,0.8935,0.7667,0.4883,0.4083,0.2881,0.0,0.0,0.0,0.0,0.0,0.0,0.0,0.0,0.0,0.0,0.0,0.0,0.0,0.0,0.0,0.0,0.0,0.0,0.0,0.0,0.0,0.0,0.0,0.0,0.0,0.0,0.0,0.0,0.0,0.0,0.0,0.0,0.0,0.0,0.0,0.0,0.0,0.0,0.0,0.0,0.0,0.0,0.0,0.0,0.0,0.0,0.0,0.0,0.0,0.0,0.0,0.0,0.0,0.0,0.0,0.0,0.0,0.0,0.0,0.0,0.0,0.0,0.0,0.0,0.0,0.0,0.0,0.0,0.0,0.0,0.0,0.0,0.0,0.0,0.0,0.0,0.0,0.0,0.0,0.0,0.0,0.0,0.0,0.0,0.0,0.0,0.0,0.0,0.0,0.0,0.0,0.0,0.0,0.0,0.0,0.0,0.0,0.0,0.0,0.0,0.0,0.0,0.0,0.0,0.0,0.0,0.0,0.0,1.0348,1.049,1.0639,0.9848,0.8098,0.6336,0.4435,0.0,0.0,0.0,0.0,0.0,0.0,0.0,0.0,0.0,0.0,0.0,0.0,0.0,0.0,0.0,0.0,0.0,0.0,0.0,0.0,0.0,0.0,0.0,0.0,0.0,0.0,0.0,0.0,0.0,0.0,0.0,0.0,0.0,0.0,0.0,0.0,0.0,0.0,0.0,0.0,0.0,0.0,0.0,0.0,0.0,0.0,0.0,0.0,0.0,0.0,0.0,0.0,0.0,0.0,0.0,0.0,0.0,0.0,0.0,0.0,0.0,0.0,0.0,0.0,0.0,0.0,0.0,0.0,0.0,0.0,0.0,0.0,0.0,0.0,0.0,0.0,0.0,0.0,0.0,0.0,0.0,0.0,0.0,0.0,0.0,0.0,0.0,0.0,0.0,0.0,0.0,0.0,0.0,0.0,0.0,0.0,0.0,0.0,0.0,0.0,0.0,0.0,0.0,0.0,0.0,0.0,0.0,0.0,1.0348,1.049,1.0639,1.0379,0.9767,0.8129,0.5726,0.0,0.0,0.0,0.0,0.0,0.0,0.0,0.0,0.0,0.0,0.0,0.0,0.0,0.0,0.0,0.0,0.0,0.0,0.0,0.0,0.0,0.0,0.0,0.0,0.0,0.0,0.0,0.0,0.0,0.0,0.0,0.0,0.0,0.0,0.0,0.0,0.0,0.0,0.0,0.0,0.0,0.0,0.0,0.0,0.0,0.0,0.0,0.0,0.3777,0.0,0.0,0.0,0.0,0.0,0.0,0.0,0.0,0.0,0.0,0.0,0.0,0.0,0.0,0.0,0.0,0.0,0.0,0.0,0.0,0.0,0.0,0.0,0.0,0.0,0.0,0.0,0.0,0.0,0.0,0.0,0.0,0.0,0.0,0.0,0.0,0.0,0.0,0.0,0.0,0.0,0.0,0.0,0.0,0.0,0.0,0.0,0.0,0.0,0.0,0.0,0.0,0.0,0.0,0.0,0.0,0.0,0.0,0.0,1.0385,1.0595,1.0677,1.0578,1.03,0.944,0.7619,0.0,0.0,0.0,0.0,0.0,0.0,0.0,0.0,0.0,0.0,0.0,0.0,0.0,0.0,0.0,0.0,0.0,0.0,0.0,0.0,0.0,0.0,0.0,0.0,0.0,0.0,0.0,0.0,0.0,0.0,0.0,0.0,0.0,0.0,0.0,0.0,0.0,0.0,0.0,0.0,0.0,0.0,0.0,0.0,0.0,0.0,0.0,0.0,0.0,0.0,0.0,0.0,0.0,0.0,0.0,0.0,0.0,0.0,0.0,0.0,0.0,0.0,0.0,0.0,0.0,0.0,0.0,0.0,0.0,0.0,0.0,0.0,0.0,0.0,0.0,0.0,0.0,0.0,0.0,0.0,0.0,0.0,0.0,0.0,0.0,0.0,0.0,0.0,0.0,0.0,0.0,0.0,0.0,0.0,0.0,0.0,0.0,0.0,0.0,0.0,0.0,0.0,0.0,0.0,0.0,0.0,0.0,1.0124,1.0402,1.0704,1.0721,1.0582,1.0354,1.0343,0.937,0.7524,0.0,0.0,0.0,0.0,0.0,0.0,0.0,0.0,0.0,0.0,0.0,0.0,0.0,0.0,0.0,0.0,0.0,0.0,0.0,0.0,0.0,0.0,0.0,0.0,0.0,0.0,0.0,0.0,0.0,0.0,0.0,0.0,0.0,0.0,0.0,0.0,0.0,0.0,0.8825,0.9161,0.0,0.0,0.0,0.0,0.0,0.0,0.0,0.0,0.5326,0.0,0.0,0.0,0.0,0.0,0.0,0.0,0.0,0.0,0.0,0.0,0.0,0.0,0.0,0.0,0.0,0.0,0.0,0.0,0.0,0.0,0.0,0.0,0.0,0.0,0.0,0.0,0.0,0.0,0.0,0.0,0.0,0.0,0.0,0.0,0.0,0.0,0.0,0.0,0.0,0.0,0.0,0.0,0.0,0.0,0.0,0.0,0.0,0.0,0.0,0.0,0.0,0.0,0.0,0.0,0.0,1.0195,1.0131,1.0293,1.0707,1.0721,1.0578,1.0297,1.0343,0.9936,0.901,0.0,0.0,0.0,0.0,0.0,0.0,0.0,0.0,0.0,0.0,0.0,0.0,0.0,0.0,0.0,0.0,0.0,0.0,0.0,0.0,0.0,0.0,0.0,0.0,0.0,0.0,0.0,0.0,0.0,0.0,0.0,0.0,0.0,0.0,0.0,0.0,0.0,0.0,0.0,0.9445,0.9588,0.0,0.0,0.0,0.0,0.0,0.0,0.0,0.0,0.608,0.0,0.0,0.0,0.0,0.0,0.0,0.0,0.0,0.0,0.0,0.0,0.0,0.0,0.0,0.0,0.0,0.0,0.0,0.0,0.0,0.0,0.0,0.0,0.0,0.0,0.0,0.0,0.0,0.0,0.0,0.0,0.0,0.0,0.0,0.0,0.0,0.0,0.0,0.0,0.0,0.0,0.0,0.0,0.0,0.0,0.0,0.0,0.0,0.0,0.0,0.0,0.0,0.0,0.0,0.0,1.0015,1.0127,1.0348,1.07,1.0643,1.05,1.0283,1.0127,0.9832,0.0,0.0,0.0,0.0,0.0,0.0,0.0,0.0,0.0,0.0,0.0,0.0,0.0,0.0,0.0,0.0,0.0,0.0,0.0,0.0,0.0,0.0,0.0,0.0,0.0,0.0,0.0,0.0,0.0,0.0,0.0,0.0,0.0,0.0,0.0,0.0,0.0,0.0,0.0,0.0,0.9513,0.9635,0.971,0.0,0.0,0.0,0.0,0.0,0.0,0.8078,0.6794,0.0,0.0,0.0,0.0,0.0,0.0,0.0,0.0,0.0,0.0,0.0,0.0,0.0,0.0,0.0,0.0,0.0,0.0,0.0,0.0,0.0,0.0,0.0,0.0,0.0,0.0,0.0,0.0,0.0,0.0,0.0,0.0,0.0,0.0,0.0,0.0,0.0,0.0,0.0,0.0,0.0,0.0,0.0,0.0,0.0,0.0,0.0,0.0,0.0,0.0,0.0,0.0,0.0,0.0,0.0,0.9819,1.0093,1.0392,1.0697,1.0571,1.0426,1.0283,1.0012,0.9713,0.0,0.0,0.0,0.0,0.0,0.0,0.0,0.0,0.0,0.0,0.0,0.0,0.0,0.0,0.0,0.0,0.0,0.0,0.0,0.0,0.0,0.0,0.0,0.0,0.0,0.0,0.0,0.0,0.0,0.0,0.0,0.0,0.0,0.0,0.0,0.0,0.0,0.0,0.0,0.0,0.0,0.9683,0.9764,0.968,0.0,0.0,0.0,0.0,0.9591,0.8493,0.0,0.0,0.0,0.0,0.0,0.0,0.0,0.0,0.0,0.0,0.0,0.0,0.0,0.0,0.0,0.0,0.0,0.0,0.0,0.0,0.0,0.0,0.0,0.0,0.0,0.0,0.0,0.0,0.0,0.0,0.0,0.0,0.0,0.0,0.0,0.0,0.0,0.0,0.0,0.0,0.0,0.0,0.0,0.0,0.0,0.0,0.0,0.0,0.0,0.0,0.0,0.0,0.0,0.0,0.0,0.0,0.9805,0.9988,1.0287,1.0687,1.0568,1.0426,1.0283,1.0051,0.9758,0.0,0.0,0.0,0.0,0.0,0.0,0.0,0.0,0.0,0.0,0.0,0.0,0.0,0.0,0.0,0.0,0.0,0.0,0.0,0.0,0.0,0.0,0.0,0.0,0.0,0.0,0.0,0.0,0.0,0.0,0.0,0.0,0.0,0.0,0.0,0.0,0.0,0.0,0.0,0.0,0.0,0.9758,0.9649,0.9618,0.9612,0.0,0.0,0.9588,0.9605,0.9413,0.0,0.0,0.0,0.0,0.0,0.0,0.0,0.0,0.0,0.0,0.0,0.0,0.0,0.0,0.0,0.0,0.0,0.0,0.0,0.0,0.0,0.0,0.0,0.0,0.0,0.0,0.0,0.0,0.0,0.0,0.0,0.0,0.0,0.0,0.0,0.0,0.0,0.0,0.0,0.0,0.0,0.0,0.0,0.0,0.0,0.0,0.0,0.0,0.0,0.0,0.0,0.0,0.0,0.0,0.0,0.9391,0.9693,0.9934,1.0185,1.0453,1.0321,1.0212,1.0151,0.9924,0.9625,0.0,0.0,0.0,0.0,0.0,0.0,0.0,0.0,0.0,0.0,0.0,0.0,0.0,0.0,0.0,0.0,0.0,0.0,0.0,0.0,0.0,0.0,0.0,0.0,0.0,0.0,0.0,0.0,0.0,0.0,0.0,0.0,0.0,0.0,0.0,0.0,0.0,0.0,0.0,0.0,0.0,0.0,0.9713,0.9727,0.0,0.0,0.0,0.9635,0.972,0.0,0.0,0.0,0.0,0.0,0.0,0.0,0.0,0.0,0.0,0.0,0.0,0.0,0.0,0.0,0.0,0.0,0.0,0.0,0.0,0.0,0.0,0.0,0.0,0.0,0.0,0.0,0.0,0.0,0.0,0.0,0.0,0.0,0.0,0.0,0.0,0.0,0.0,0.0,0.0,0.0,0.0,0.0,0.0,0.0,0.0,0.0,0.0,0.0,0.0,0.0,0.0,0.0,0.0,0.0,0.0,0.0,0.9551,1.0239,1.0496,1.033,1.0127,0.999,0.9984,0.9798,0.0,0.0,0.0,0.0,0.0,0.0,0.0,0.0,0.0,0.0,0.0,0.0,0.0,0.0,0.0,0.0,0.0,0.0,0.0,0.0,0.0,0.0,0.0,0.0,0.0,0.0,0.0,0.8172,0.0,0.0,0.0,0.0,0.0,0.0,0.0,0.0,0.0,0.0,0.0,0.0,0.0,0.0,1.0452,1.0381,1.0393,1.024,0.0,0.0,0.97,0.9802,0.973,0.9571,0.0,0.0,0.0,0.0,0.0,0.0,0.0,0.0,0.0,0.0,0.0,0.0,0.0,0.0,0.0,0.0,0.0,0.0,0.0,0.0,0.0,0.0,0.0,0.0,0.0,0.0,0.0,0.0,0.0,0.0,0.0,0.0,0.0,0.0,0.0,0.0,0.0,0.0,0.0,0.0,0.0,0.0,0.0,0.0,0.0,0.0,0.0,0.0,0.0,0.0,0.0,0.0,0.0,0.0,1.075,0.9518,1.1265,1.1604,1.033,1.0131,0.999,0.9987,0.989,0.9602,0.0,0.0,0.0,0.0,0.0,0.0,0.0,0.0,0.0,0.0,0.0,0.0,0.0,0.0,0.0,0.0,0.0,0.0,0.0,0.0,0.0,0.0,0.0,0.0,0.0,0.0,0.0,0.0,0.0,0.0,0.0,0.0,0.0,0.0,0.0,0.0,0.0,0.0,0.0,0.0,0.0,1.3036,1.198,1.1984,1.1499,0.0,0.9812,0.9812,0.9819,0.9812,0.9618,0.9003,0.0,0.0,0.0,0.0,0.0,0.0,0.0,0.0,0.0,0.0,0.0,0.0,0.0,0.0,0.0,0.0,0.0,0.0,0.0,0.0,0.0,0.0,0.0,0.0,0.0,0.0,0.0,0.0,0.0,0.0,0.0,0.0,0.0,0.0,0.0,0.0,0.0,0.0,0.0,0.0,0.0,0.0,0.0,0.0,0.0,0.0,0.0,0.0,0.0,0.0,0.0,0.0,0.0,1.1906,1.0482,1.1624,1.1996,1.1517,1.1394,1.1841,1.2803,1.1833,1.1024,0.0,0.0,0.0,0.0,0.0,0.0,0.0,0.0,0.0,0.0,0.0,0.0,0.0,0.0,0.0,0.0,0.0,0.0,0.0,0.0,0.0,0.0,0.0,0.0,0.0,0.0,0.0,0.0,1.137,1.1258,1.1246,0.0,0.0,0.0,0.0,0.0,0.0,0.0,0.0,0.0,0.0,1.3675,1.3633,1.3658,0.0,0.0,1.1257,1.0959,0.994,0.9747,0.9581,0.9262,0.9133,0.0,0.0,0.0,0.0,0.0,0.0,0.0,0.0,0.0,0.0,0.0,0.0,0.0,0.0,0.0,0.0,0.0,0.0,0.0,0.0,0.0,0.0,0.0,0.0,0.0,0.0,0.0,0.0,0.0,0.0,0.0,0.0,0.0,0.0,0.0,0.0,0.0,0.0,0.0,0.0,0.0,0.0,0.0,0.0,0.0,0.0,0.0,0.0,0.0,0.0,0.0,0.0,1.3262,1.1879,1.3033,1.3407,1.2928,1.2933,1.3467,1.454,1.3531,1.2646,0.0,0.0,0.0,0.0,0.0,0.0,0.0,0.0,0.0,0.0,0.0,0.0,0.0,0.0,0.0,0.0,0.0,0.0,0.0,0.0,0.0,0.0,0.0,0.0,0.0,0.0,0.0,0.0,1.2661,1.2492,1.2277,0.0,0.0,0.0,0.0,0.0,0.0,0.0,0.0,0.0,0.0,1.5159,1.528,1.5311,1.4599,1.2513,1.2213,1.1659,0.9999,0.971,0.9574,0.9296,0.0,0.0,0.0,0.0,0.0,0.0,0.0,0.0,0.0,0.0,0.0,0.0,0.0,0.0,0.0,0.0,0.0,0.0,0.0,0.0,0.0,0.0,0.0,0.0,0.0,0.0,0.0,1.8484,0.0,0.0,1.7955,0.0,0.0,0.0,0.0,0.0,0.0,0.0,0.0,0.0,0.0,0.0,0.0,0.0,0.0,0.0,0.0,0.0,0.0,0.0,0.0,0.0,0.0,1.4899,1.3709,1.5701,1.6079,1.4604,1.4545,1.4604,1.4723,1.4604,1.4281,1.3648,0.0,0.0,0.0,0.0,0.0,0.0,0.0,0.0,0.0,0.0,0.0,0.0,0.0,0.0,0.0,0.0,0.0,0.0,0.0,0.0,0.0,0.0,0.0,0.0,0.0,0.0,1.5239,1.4794,1.4319,0.0,0.0,0.0,0.0,0.0,0.0,0.0,0.0,0.0,1.7694,1.8187,1.8054,1.706,1.6968,1.5838,1.2749,1.2273,1.1679,0.9996,0.9784,0.9618,0.0,0.0,0.0,0.0,0.0,0.0,0.0,0.0,0.0,0.0,0.0,0.0,0.0,0.0,0.0,0.0,0.0,0.0,0.0,0.0,0.0,0.0,0.0,0.0,0.0,0.0,0.0,1.8945,1.8497,0.0,0.0,0.0,0.0,0.0,0.0,0.0,0.0,0.0,0.0,0.0,1.8196,1.829,0.0,0.0,0.0,0.0,0.0,0.0,0.0,0.0,0.0,0.0,0.0,0.0,1.6316,1.517,1.6344,1.6733,1.6203,1.6197,1.668,1.7753,1.6738,1.5363,1.3609,0.0,0.0,0.0,0.0,0.0,0.0,0.0,0.0,0.0,0.0,0.0,0.0,0.0,0.0,0.0,0.0,0.0,0.0,0.0,0.0,0.0,0.0,0.0,0.0,0.0,1.5156,0.0,0.0,0.0,0.0,0.0,0.0,0.0,0.0,0.0,0.0,0.0,1.7482,1.7929,1.8408,1.8675,1.8333,1.8461,1.7806,0.0,0.0,0.0,0.0,0.0,0.0,0.0,0.0,0.0,0.0,0.0,0.0,0.0,0.0,0.9259,0.8669,0.8435,0.8381,0.8533,0.0,0.0,0.0,0.0,0.0,0.0,0.0,0.0,0.0,0.0,0.0,0.0,0.0,0.0,1.8998,0.0,1.8531,0.0,0.0,0.0,0.0,0.0,0.0,0.0,0.0,1.8945,1.8978,1.8798,1.8798,1.8691,0.0,1.8303,1.7903,0.0,0.0,0.0,0.0,0.0,0.0,0.0,0.0,1.7393,1.6753,1.7443,1.7864,1.7864,1.7806,1.8344,1.9366,1.8249,1.6837,1.515,1.4145,1.3496,0.0,0.0,0.0,0.0,0.0,0.0,0.0,0.0,0.0,0.0,0.0,0.0,0.0,0.0,0.0,0.0,0.0,0.0,0.0,0.0,0.0,0.0,0.0,1.5122,0.0,0.0,0.0,0.0,0.0,0.0,0.0,0.0,0.0,1.678,1.7382,1.7896,1.8242,1.8771,1.9078,1.9078,0.0,0.0,0.0,0.0,0.0,0.0,0.0,1.278,1.2762,1.1801,1.087,1.0355,0.9898,0.9649,0.9547,0.0,0.0,0.9052,0.8862,0.8842,0.8994,0.9022,0.9042,0.915,0.9201,0.9279,0.0,0.0,0.0,0.0,0.0,0.0,0.0,0.0,1.8971,1.8965,0.0,1.8644,0.0,0.0,0.0,0.0,0.0,1.8595,0.0,0.0,1.9232,1.9424,1.9417,1.941,1.9417,1.9424,1.9397,1.9095,1.8464,1.7682,0.0,0.0,0.0,0.0,0.0,0.0,1.8142,1.8504,1.9072,1.9366,1.9366,1.9366,1.9366,1.9359,1.9098,1.8608,1.7975,1.6448,1.5694,1.5769,1.3265,0.0,0.0,0.0,0.0,0.0,0.0,0.0,0.0,0.0,0.0,0.0,0.0,0.0,0.0,0.0,0.0,0.0,0.0,0.0,0.0,1.5249,0.0,0.0,0.0,0.0,0.0,0.0,0.0,0.0,0.0,0.0,1.7199,1.7695,1.8215,1.8818,0.0,0.0,0.0,0.0,1.8829,1.7325,1.7085,1.6523,1.4898,1.4629,1.455,1.4251,0.0,0.0,1.2205,1.0806,0.9964,0.9569,0.9814,0.9883,0.9802,0.9551,0.9432,0.9561,0.9374,0.9293,0.9527,0.949,0.9442,2.1633,0.0,0.0,0.0,0.0,1.9766,1.9746,1.984,1.9633,1.9432,1.9219,1.8931,0.0,0.0,0.0,0.0,0.0,0.0,1.9038,1.9239,1.9332,1.9424,1.9424,1.9424,1.9424,1.9424,1.9424,1.9172,1.8798,1.8544,1.7836,1.6727,0.0,0.0,0.0,0.0,1.8242,1.8791,1.9172,1.9424,1.9424,1.9424,1.9424,1.9424,1.9285,1.8965,1.8384,1.769,1.7036,1.645,1.5281,0.0,0.0,0.0,0.0,0.0,0.0,0.0,0.0,0.0,0.0,0.0,0.0,0.0,0.0,0.0,0.0,0.0,0.0,0.0,1.4629,1.4723,1.491,0.0,0.0,0.0,0.0,0.0,0.0,0.0,0.0,0.0,1.7695,1.8123,1.8424,0.0,0.0,1.9212,1.8798,1.9098,1.9243,1.8771,1.87,0.0,1.8062,1.6942,1.6113,1.6147,1.528,1.4381,1.3903,1.3456,1.2837,1.1653,1.1487,1.1137,1.0058,0.9758,0.971,0.9744,0.9683,0.9652,0.973,0.972,0.9707,2.42,2.2569,2.0717,2.0074,2.0153,2.0047,2.0067,2.016,2.0054,1.9873,1.9693,1.9399,1.9112,1.8831,1.8711,0.0,0.0,0.0,1.9199,1.9424,1.9424,1.9424,1.9424,1.9424,1.9424,1.9424,1.9424,1.9279,1.9098,1.9098,1.8531,1.7455,0.0,0.0,1.7755,1.8156,1.8508,1.8918,1.9219,1.9424,1.9424,1.9424,1.9424,1.9424,1.9424,1.9092,1.8517,1.8317,1.7809,1.6921,1.6433,1.5912,0.0,0.0,0.0,0.0,0.0,0.0,0.0,0.0,0.0,0.0,0.0,1.4369,1.4021,0.0,0.0,0.0,1.4262,1.4603,1.4952,1.4992,0.0,0.0,0.0,0.0,0.0,0.0,0.0,1.7112,1.7088,1.7301,1.7909,1.8149,1.8404,1.8637,1.8971,1.9025,1.8551,0.0,1.9018,1.9025,1.9018,1.9018,1.9011,1.8165,1.7471,1.7576,1.6258,1.5268,1.5151,1.4744,1.3922,1.3102,1.2804,1.2283,1.0758,1.0465,1.0278,0.9916,0.9819,0.9819,0.9819,0.9819,0.9819,2.7135,2.6455,2.2389,2.0598,2.0476,2.0449,2.0402,2.0301,2.0395,2.0429,2.0389,2.0271,2.0037,1.9744,1.93,0.0,1.9299,1.9469,1.9584,1.9597,1.9597,1.9533,1.9424,1.9424,1.9424,1.9424,1.9424,1.9424,1.9424,1.9424,1.9098,1.8571,1.8564,1.8537,1.851,1.8778,1.8938,1.8965,1.9232,1.9424,1.9424,1.9424,1.9352,1.9383,1.9332,1.9052,1.849,1.845,1.8063,1.7286,1.6881,1.6446,1.5892,0.0,0.0,0.0,0.0,0.0,0.0,0.0,0.0,0.0,0.0,0.0,0.0,0.0,0.0,0.0,1.4843,0.0,1.5785,1.5825,0.0,0.0,0.0,1.5999,1.6388,1.6593,1.686,1.7199,0.0,0.0,1.7949,1.7989,1.8189,1.8784,1.8821,1.8784,1.849,1.8484,1.8497,1.8531,1.8504,1.8504,1.8551,1.8468,1.8413,1.837,1.7284,1.634,1.6233,1.5254,1.421,1.3947,1.3927,1.3425,1.1941,1.1738,1.1359,1.0437,0.9949,0.9778,0.9764,0.9761,0.9758,2.8871,2.8289,2.5708,2.3925,2.2773,2.2525,2.1841,2.1,2.1989,2.2231,2.1984,2.2987,2.3146,2.271,2.1511,2.1587,2.2599,2.1563,2.1088,2.1088,2.1088,2.0479,1.9424,1.9424,1.9424,1.9424,1.9424,1.9424,1.9424,1.9424,1.9357,1.9223,1.9158,1.8938,1.8517,1.8778,1.9032,1.9259,1.939,1.9424,1.9424,1.9424,1.9259,1.9038,1.9032,1.8751,1.8183,1.8102,1.7943,1.7495,1.6981,1.654,1.6179,1.519,0.0,0.0,0.0,0.0,0.0,0.0,0.0,0.0,0.0,1.4759,1.388,0.0,1.4901,0.0,1.5324,1.5678,1.5764,1.5825,0.0,0.0,1.648,1.646,1.7233,1.7186,1.7206,1.7442,1.7542,1.7702,1.7955,1.7989,1.8035,1.8189,1.845,1.8484,1.8149,1.835,1.8497,1.8477,1.847,1.8497,1.847,1.8497,1.8477,1.8497,1.8138,1.7916,1.7909,1.7631,1.6993,1.5856,1.5513,1.4888,1.3453,1.3179,1.3089,1.268,1.1039,0.9483,0.9486,0.949,0.949,3.0574,3.0041,2.8717,2.7211,2.568,2.4756,2.3994,2.3343,2.3863,2.3883,2.3607,2.4024,2.3674,2.2822,2.2645,2.3047,2.3718,2.2927,2.2589,2.2589,2.2597,2.2153,2.138,2.138,2.1045,2.0364,2.0364,2.0033,1.9424,1.9424,1.9424,1.9424,1.9424,1.9263,1.8905,1.9038,1.9199,1.9424,1.9424,1.9305,1.9178,1.9172,1.9025,1.8744,1.8731,1.845,1.7862,1.7842,1.7635,1.7208,1.6881,1.6573,1.6328,1.5531,1.491,0.0,0.0,0.0,0.0,0.0,0.0,0.0,0.0,0.0,0.0,0.0,1.6892,1.7078,1.6829,1.6831,1.7287,1.6799,1.6667,1.7326,1.7099,1.7048,1.7528,1.7494,1.7454,1.7562,1.7589,1.7642,1.7816,1.7836,1.7842,1.7836,1.7983,1.8029,1.7896,1.7989,1.8083,1.809,1.8083,1.809,1.8083,1.809,1.8083,1.8083,1.8083,1.8083,1.8083,1.8083,1.7805,1.6963,1.6739,1.629,1.4784,1.4453,1.4288,1.3462,1.2301,1.1082,1.0432,0.9834,0.9381,3.1826,3.1406,3.1035,3.003,2.8614,2.7202,2.6401,2.6012,2.5716,2.5562,2.5366,2.4682,2.3654,2.2533,2.3599,2.4211,2.4386,2.4156,2.4108,2.41,2.4108,2.3989,2.3822,2.3822,2.3095,2.1919,2.1862,2.1194,1.9989,1.9989,1.9924,1.9924,1.9764,1.9758,1.9924,1.9758,1.9591,1.9424,1.9383,1.9185,1.8931,1.8891,1.8731,1.845,1.8397,1.811,1.7608,1.7528,1.7295,1.68,1.6727,1.6587,1.6333,1.5979,1.5571,0.0,1.493,0.0,0.0,0.0,0.0,0.0,0.0,0.0,0.0,1.7917,1.9467,1.972,1.8823,1.8555,1.9368,1.8426,1.7857,1.8112,1.7943,1.7832,1.7891,1.7687,1.7589,1.7589,1.7589,1.7589,1.7595,1.7589,1.7589,1.7602,1.7622,1.7635,1.7595,1.7615,1.7635,1.7589,1.7589,1.7662,1.7642,1.7622,1.7615,1.7655,1.7628,1.7581,1.7549,1.7549,1.7535,1.7535,1.7437,1.7074,1.5896,1.5677,1.5234,1.4315,1.3732,1.3083,1.1976,1.0931,0.9892,3.1387,3.1006,3.0918,3.0713,3.0392,3.0089,2.8426,2.6073,2.6924,2.7664,2.8094,2.7666,2.7276,2.6997,2.61,2.6327,2.734,2.6218,2.5654,2.5654,2.5654,2.4986,2.3822,2.3822,2.3654,2.3375,2.3375,2.3263,2.2991,2.2991,2.2934,2.2934,2.1756,2.1756,2.2822,0.0,0.0,0.0,1.9132,1.8978,1.8911,1.8698,1.843,1.8082,1.7883,0.0,1.7306,1.728,1.7239,1.7119,1.6834,0.0,0.0,0.0,0.0,0.0,0.0,0.0,0.0,0.0,0.0,0.0,2.0506,2.0022,1.7356,1.9319,2.0622,2.0234,2.0621,2.0907,2.0818,2.0819,2.0867,2.088,1.993,1.922,1.9176,1.8297,1.7589,1.7589,1.7641,1.7641,1.7687,1.7589,1.7635,1.774,1.7641,1.7589,1.7635,1.7635,1.7589,1.7589,1.7589,1.7589,1.7589,1.7575,1.7555,1.7562,1.742,1.73,1.7286,1.7286,1.7286,1.7293,1.7286,1.7308,1.7147,1.7023,1.671,1.6772,1.5784,1.4583,1.3262,1.2736,1.2192,3.1279,0.0,3.0898,3.0898,0.0,3.0898,2.9838,2.8084,2.8475,2.8249,2.7569,2.8091,2.7897,2.7222,2.7168,2.7565,2.8237,2.7501,2.7168,2.7222,2.7168,2.6771,2.6054,2.5991,2.5663,2.4931,2.4931,2.4552,2.3822,2.3822,2.3822,2.3766,2.3047,2.2959,2.3447,2.2498,2.1461,2.0302,2.009,1.948,1.8497,1.8343,1.8442,1.8759,1.8643,0.0,0.0,0.0,0.0,0.0,0.0,0.0,0.0,0.0,0.0,1.8694,1.8786,1.9061,1.9708,1.9975,2.0188,2.0548,2.1905,2.2202,2.0898,2.1483,2.2127,2.2614,2.2501,2.2382,2.244,2.1996,2.1693,2.1643,2.1049,2.0641,2.059,2.0025,1.9369,1.8812,1.922,1.9361,1.8655,1.8551,1.8909,1.9465,1.9013,1.8603,1.8506,1.7996,1.7589,1.7589,1.7589,1.7588,1.7454,1.742,1.736,1.7174,1.7027,1.6947,1.6985,1.6978,1.7025,1.7146,1.7092,1.7027,1.732,1.7134,1.6981,1.705,1.6568,1.5884,1.5053,1.4124,1.3102,3.1201,3.0898,3.0898,3.0898,3.0898,3.0898,3.0586,3.0059,0.0,0.0,0.0,2.7789,2.7618,2.6608,2.7726,2.8301,2.8301,2.8301,2.8301,2.8301,2.8301,2.8301,2.8301,2.8301,2.7672,2.649,2.649,2.5818,2.4608,2.4608,2.4565,2.4459,2.4221,2.3879,2.3519,2.3387,2.2803,2.1775,2.1408,2.0448,1.8798,1.8668,1.9091,1.9937,1.9928,1.9768,1.9559,1.9537,1.8788,1.7267,1.719,1.7663,1.8712,1.8755,1.9463,2.0976,2.1097,2.1266,2.1526,2.1535,2.1617,2.1678,2.2919,2.3878,2.4235,2.3542,2.3729,2.5109,2.4142,2.3642,2.4011,2.3076,2.2408,2.2416,2.2206,2.2055,2.2005,2.1794,2.1143,2.0341,2.0939,2.1296,2.0135,1.9981,2.0341,2.1245,2.0641,1.9892,1.9656,1.8504,1.7527,1.7482,1.7408,1.7315,1.7192,1.7125,1.7018,1.6794,1.6687,1.6627,1.6633,1.6633,1.6727,1.6951,1.6824,1.678,1.7032,1.6834,1.6667,1.67,1.6707,1.6707,1.6539,1.5247,1.3917,3.0947,3.0898,3.0898,3.0898,3.0898,3.0898,3.042,2.9639,2.9199,2.8622,2.8014,2.8184,2.8174,2.8014,2.8184,2.8301,2.8301,2.8301,2.8301,2.8301,2.8301,2.8301,2.8301,2.8301,2.8184,2.8014,2.795,2.7897,2.7682,2.7628,2.75,2.7017,2.5808,2.5005,2.471,2.5759,2.5531,2.3866,2.2622,2.1796,2.1534,2.1282,2.1251,2.1389,2.1146,2.0957,2.0917,2.0908,2.081,2.0515,2.0507,2.0606,2.0745,2.0564,2.1007,2.2209,2.2321,2.2995,2.4355,2.4488,2.4641,2.4957,2.5208,2.4851,2.3618,2.4592,2.5383,2.5586,2.5373,2.5363,2.5421,2.5177,2.4962,2.4971,2.4106,2.3443,2.3384,2.2458,2.1752,2.1448,2.155,2.1744,2.1499,2.1397,2.1491,2.1693,2.1552,2.1259,2.0556,1.8753,1.7407,1.7226,1.6987,1.6834,1.6924,1.6767,1.6727,1.6714,1.648,1.6333,1.6333,1.6333,1.6373,1.6406,1.6429,1.6453,1.67,1.6533,1.6453,1.658,1.6633,1.6647,1.6633,1.6194,1.5643,3.0898,3.0898,3.0898,3.0898,3.0859,3.0391,3.0008,2.9567,2.8857,2.8476,2.8301,2.8301,2.8301,2.8301,2.8301,2.8301,2.8301,2.8301,2.8301,2.8301,2.8301,2.8301,2.8301,2.8301,2.8301,2.8301,2.8301,2.8301,2.8301,2.8301,2.8086,2.7656,2.6498,2.5848,2.572,2.6075,2.5913,2.5057,2.3907,2.2835,2.1907,2.1793,2.2055,2.2767,2.2644,2.2557,2.2557,2.2557,2.2156,2.1205,2.1197,2.1549,2.2292,2.2232,2.2781,2.4182,2.4297,2.4622,2.5362,2.543,2.5518,2.5664,2.5684,2.5402,2.4657,2.5266,2.5684,2.5684,2.5684,2.5684,2.5684,2.5684,2.5684,2.5684,2.5118,2.4815,2.4707,2.4295,2.3583,2.3026,2.3434,2.3583,2.2868,2.2767,2.302,2.3354,2.2806,2.1993,2.1715,2.0014,1.872,1.8805,1.8258,1.7662,1.7471,1.6854,1.6498,1.6217,1.6126,1.6039,1.6032,1.6032,1.6106,1.6226,1.6152,1.6166,1.6413,1.6233,1.6139,1.6166,1.6233,1.6233,1.6233,1.6233,1.6088,3.0898,3.0898,3.0898,3.083,3.0664,2.9902,2.9521,2.9355,2.8623,2.8301,2.8301,2.8301,2.8301,2.8301,2.8301,2.8301,2.8301,2.8301,2.8301,2.8301,2.8301,2.8301,2.8301,2.8301,2.8301,2.8301,2.8301,2.8301,2.8291,2.8203,2.7881,2.7405,2.6621,2.625,2.624,2.5859,2.5684,2.5655,2.4967,2.3948,2.2685,2.2617,2.3126,2.4048,2.4146,2.4156,2.4146,2.4146,2.3547,2.2342,2.2218,2.2726,2.3736,2.3842,2.4378,2.5538,2.5684,2.5684,2.5684,2.5684,2.5684,2.5684,2.5684,2.5684,2.5684,2.5684,2.5684,2.5684,2.5684,2.5684,2.5684,2.5684,2.5684,2.5684,2.5684,2.5625,2.5684,2.5684,2.5333,2.4452,2.5069,2.5197,2.434,2.4009,2.4175,2.4421,2.3466,2.2501,2.2469,2.1334,2.0589,2.057,1.9766,1.8697,1.8373,1.7445,1.6697,1.6272,1.5981,1.5899,1.5852,1.5838,1.5899,1.6092,1.5992,1.5959,1.6106,1.6005,1.5872,1.5892,1.5899,1.5865,1.5879,1.5879,1.5917,3.0898,3.0898,3.0898,3.0644,3.0244,2.9766,2.9355,2.8955,2.8486,2.8301,2.8301,2.8301,2.8301,2.8301,2.8301,2.8301,2.8301,2.8301,2.8301,2.8301,2.8301,2.8301,2.8301,2.8301,2.8301,2.8301,2.8301,2.8301,2.8271,2.79,2.7324,2.6543,2.5976,2.5762,2.5742,2.5713,2.5684,2.5684,2.5625,2.5518,2.5391,2.5333,2.5382,2.5489,2.5479,2.5538,2.543,2.5528,2.5411,2.5324,2.5198,2.5305,2.5412,2.547,2.5538,2.5674,2.5684,2.5684,2.5684,2.5684,2.5684,2.5684,2.5684,2.5684,2.5684,2.5684,2.5684,2.5684,2.5684,2.5684,2.5684,2.5684,2.5684,2.5684,2.5684,2.5684,2.5684,2.5684,2.5635,2.5538,2.5557,2.5489,2.5005,2.4784,2.4733,2.4438,2.3355,2.2704,2.3197,2.2437,2.1807,2.2148,2.0941,1.9629,1.9304,1.8373,1.7697,1.7458,1.6567,1.615,1.6103,1.5967,1.5852,1.5912,1.5879,1.5818,1.5824,1.5832,1.5832,1.5825,1.5825,1.5825,1.5825,1.5825,1.5899,3.0898,3.0898,3.0898,3.0625,3.0156,2.9746,2.9316,2.8887,2.8476,2.8301,2.8301,2.8301,2.8301,2.8301,2.8301,2.8301,2.8301,2.8301,2.8301,2.8301,2.8301,2.8301,2.8301,2.8301,2.8301,2.8301,2.8301,2.8291,2.8184,2.7617,2.6973,2.6406,2.5898,2.5684,2.5684,2.5684,2.5684,2.5684,2.5684,2.5684,2.5684,2.5684,2.5684,2.5684,2.5684,2.5684,2.5654,2.5488,2.5459,2.5645,2.5488,2.5469,2.5674,2.5684,2.5684,2.5684,2.5684,2.5684,2.5684,2.5684,2.5684,2.5684,2.5684,2.5684,2.5684,2.5684,2.5684,2.5684,2.5684,2.5684,2.5684,2.5684,2.5684,2.5684,2.5684,2.5684,2.5684,2.5684,2.5684,2.5664,2.5498,2.5293,2.5086,2.4666,2.4277,2.3978,2.3259,2.3021,2.3295,2.2901,2.279,2.292,2.2183,2.14,2.0666,1.9542,1.891,1.868,1.8357,1.7886,1.703,1.6943,1.6763,1.6008,1.592,1.592,1.5838,1.5825,1.5825,1.5825,1.5825,1.5825,1.5825,1.5825,1.5825,3.0898,3.0869,3.0762,3.0439,3.0,2.958,2.9141,2.874,2.8418,2.8301,2.8301,2.8301,2.8301,2.8301,2.8301,2.8301,2.8301,2.8301,2.8301,2.8301,2.8301,2.8301,2.8301,2.8301,2.8301,2.8301,2.8301,2.8174,2.791,2.7353,2.6748,2.624,2.584,2.5684,2.5684,2.5684,2.5684,2.5684,2.5684,2.5684,2.5684,2.5684,2.5684,2.5684,2.5684,2.5684,2.5684,2.542,2.54,2.5703,2.542,2.54,2.5654,2.5684,2.5684,2.5684,2.5684,2.5684,2.5684,2.5684,2.5684,2.5684,2.5684,2.5684,2.5684,2.5684,2.5684,2.5684,2.5684,2.5684,2.5684,2.5684,2.5684,2.5684,2.5684,2.5684,2.5684,2.5684,2.5635,2.5557,2.5273,2.4998,2.4678,2.4092,2.3623,2.353,2.3315,2.3101,2.3101,2.311,2.3057,2.3101,2.3091,2.2721,2.1889,2.08,2.0124,1.9852,1.9708,1.8985,1.8319,1.8234,1.7785,1.6983,1.6567,1.6109,1.5872,1.5825,1.5825,1.5825,1.5825,1.5825,1.5825,1.5825,1.5825,3.0898,3.083,3.042,3.001,2.9636,2.915,2.8721,2.8369,2.831,2.8301,2.8301,2.8301,2.8301,2.8301,2.8301,2.8301,2.8301,2.8301,2.8301,2.8301,2.8301,2.8301,2.8301,2.8301,2.8301,2.8301,2.8291,2.79,2.7168,2.7041,2.6592,2.5771,2.5703,2.5684,2.5684,2.5684,2.5684,2.5684,2.5684,2.5684,2.5684,2.5684,2.5684,2.5684,2.5684,2.5684,2.5684,2.5664,2.5664,2.5684,2.5596,2.5625,2.5684,2.5684,2.5684,2.5684,2.5684,2.5684,2.5684,2.5684,2.5684,2.5684,2.5684,2.5684,2.5684,2.5684,2.5684,2.5684,2.5684,2.5684,2.5684,2.5684,2.5684,2.5684,2.5684,2.5684,2.5684,2.5635,2.5527,2.5225,2.5077,2.4648,2.3965,2.3457,2.3218,2.3179,2.312,2.3101,2.3101,2.3101,2.3101,2.3101,2.3101,2.3047,2.2906,2.1987,2.1337,2.1114,2.0621,1.967,1.9488,1.9268,1.8634,1.8048,1.777,1.7163,1.6244,1.5825,1.5825,1.5825,1.5825,1.5825,1.5825,1.5825,1.5825,3.0898,3.085,3.0391,2.9951,2.9531,2.9101,2.8682,2.831,2.8301,2.8301,2.8301,2.8301,2.8301,2.8301,2.8301,2.8301,2.8301,2.8301,2.8301,2.8301,2.8301,2.8301,2.8301,2.8301,2.8301,2.8301,2.8291,2.7851,2.71,2.7012,2.6532,2.582,2.5684,2.5684,2.5684,2.5684,2.5684,2.5684,2.5684,2.5684,2.5684,2.5684,2.5684,2.5684,2.5684,2.5684,2.5684,2.5469,2.5439,2.5674,2.5167,2.5109,2.5615,2.5684,2.5684,2.5684,2.5684,2.5684,2.5684,2.5684,2.5684,2.5684,2.5684,2.5684,2.5684,2.5684,2.5684,2.5684,2.5684,2.5684,2.5684,2.5684,2.5684,2.5684,2.5684,2.5684,2.5625,2.5488,2.5234,2.5067,2.4675,2.4004,2.3574,2.3188,2.3101,2.3101,2.3101,2.3101,2.3101,2.3101,2.3101,2.3101,2.3101,2.3101,2.3101,2.2818,2.2448,2.2403,2.1996,2.1355,2.1033,2.0711,2.0169,1.9222,1.8856,1.8357,1.7436,1.6513,1.6379,1.615,1.615,1.6096,1.5825,1.5853,1.5826,3.0801,3.0596,3.0176,2.9756,2.9326,2.8896,2.8555,2.8301,2.8301,2.8301,2.8301,2.8301,2.8301,2.8301,2.8301,2.8301,2.8301,2.8301,2.8301,2.8301,2.8301,2.8301,2.8301,2.8301,2.8301,2.8301,2.8301,2.7851,2.7109,2.7012,2.6562,2.5732,2.5684,2.5684,2.5684,2.5684,2.5684,2.5684,2.5684,2.5684,2.5684,2.5684,2.5684,2.5684,2.5684,2.5684,2.5684,2.5449,2.541,2.5557,2.5118,2.507,2.5606,2.5684,2.5684,2.5684,2.5684,2.5684,2.5684,2.5684,2.5684,2.5684,2.5684,2.5684,2.5684,2.5684,2.5684,2.5684,2.5684,2.5684,2.5684,2.5684,2.5684,2.5684,2.5684,2.5684,2.5664,2.5469,2.5176,2.4785,2.4102,2.3525,2.3169,2.311,2.3101,2.3101,2.3101,2.3101,2.3101,2.3101,2.3101,2.3101,2.3101,2.3101,2.3033,2.2814,2.2766,2.2732,2.2703,2.2372,2.2098,2.1834,2.1408,2.0468,1.9798,1.9351,1.858,1.7569,1.7109,1.6882,1.6734,1.6767,1.6343,1.5886,1.5899,3.0596,3.0166,2.9746,2.9336,2.8945,2.8525,2.831,2.8301,2.8301,2.8301,2.8301,2.8301,2.8301,2.8301,2.8301,2.8301,2.8301,2.8301,2.8301,2.8301,2.8301,2.8301,2.8301,2.8301,2.8301,2.8301,2.8301,2.7861,2.7119,2.7012,2.6592,2.5849,2.5713,2.5684,2.5684,2.5684,2.5684,2.5684,2.5684,2.5684,2.5684,2.5684,2.5684,2.5684,2.5684,2.5684,2.5684,2.5664,2.5645,2.5674,2.5615,2.5654,2.5615,2.5664,2.5684,2.5684,2.5684,2.5684,2.5684,2.5684,2.5684,2.5684,2.5684,2.5684,2.5684,2.5684,2.5684,2.5684,2.5684,2.5684,2.5684,2.5684,2.5684,2.5684,2.5684,2.5684,2.5684,2.5654,2.5333,2.4512,2.3701,2.3159,2.3101,2.3101,2.3101,2.3101,2.3101,2.3101,2.3101,2.3101,2.3101,2.3101,2.3091,2.3081,2.2935,2.2789,2.2857,2.2896,2.2814,2.2611,2.2529,2.2303,2.2055,2.1316,2.081,2.0324,1.9807,1.8894,1.8718,1.8442,1.8049,1.7609,1.7342,1.6938,1.6128,3.0156,2.9726,2.9297,2.9053,2.8867,2.8467,2.8301,2.8301,2.8301,2.8301,2.8301,2.8301,2.8301,2.8301,2.8301,2.8301,2.8301,2.8301,2.8301,2.8301,2.8301,2.8301,2.8301,2.8301,2.8301,2.8301,2.8301,2.8018,2.75,2.7158,2.6709,2.624,2.5879,2.5693,2.5684,2.5684,2.5684,2.5684,2.5684,2.5684,2.5684,2.5684,2.5684,2.5684,2.5684,2.5684,2.5684,2.5684,2.5684,2.5684,2.5439,2.5273,2.5332,2.5576,2.5674,2.5684,2.5684,2.5684,2.5684,2.5684,2.5684,2.5684,2.5684,2.5684,2.5684,2.5684,2.5684,2.5684,2.5684,2.5684,2.5684,2.5684,2.5684,2.5684,2.5684,2.5684,2.5615,2.5167,2.4563,2.4072,2.3442,2.313,2.3101,2.3101,2.3101,2.3101,2.3101,2.3101,2.3101,2.3101,2.3101,2.3101,2.3081,2.2984,2.275,2.2568,2.249,2.2471,2.2441,2.2539,2.2539,2.2535,2.2356,2.2206,2.1706,2.131,2.0792,2.0395,2.0133,1.9724,1.916,1.8867,1.8643,1.7955,1.6994,2.9717,2.9307,2.9033,2.8818,2.8672,2.8389,2.8301,2.8301,2.8301,2.8301,2.8301,2.8301,2.8301,2.8301,2.8301,2.8301,2.8301,2.8301,2.8301,2.8301,2.8301,2.8301,2.8301,2.8301,2.8301,2.8301,2.8301,2.8076,2.7718,2.7383,2.6963,2.6416,2.6113,2.584,2.5703,2.5684,2.5684,2.5684,2.5684,2.5684,2.5684,2.5684,2.5684,2.5684,2.5684,2.5684,2.5684,2.5684,2.5684,2.5645,2.5449,2.5332,2.5352,2.5538,2.5684,2.5684,2.5684,2.5684,2.5684,2.5684,2.5684,2.5684,2.5684,2.5684,2.5684,2.5684,2.5684,2.5684,2.5684,2.5684,2.5684,2.5684,2.5684,2.5684,2.5684,2.5684,2.5567,2.4951,2.4394,2.4004,2.3471,2.3179,2.3101,2.3101,2.3101,2.3101,2.3101,2.3101,2.3101,2.3101,2.3101,2.3101,2.3091,2.2886,2.2588,2.2344,2.21,2.1982,2.1885,2.2021,2.2109,2.2207,2.2116,2.2432,2.2182,2.2303,2.1854,2.1587,2.132,2.0809,2.0387,2.0078,1.9745,1.854,1.7687,2.9277,2.8906,2.8887,2.8652,2.835,2.8301,2.8301,2.8301,2.8301,2.8301,2.8301,2.8301,2.8301,2.8301,2.8301,2.8301,2.8301,2.8301,2.8301,2.8301,2.8301,2.8301,2.8301,2.8301,2.8301,2.8301,2.8301,2.8096,2.7783,2.7699,2.7317,2.6621,2.6426,2.6191,2.5889,2.5723,2.5684,2.5684,2.5684,2.5684,2.5684,2.5684,2.5684,2.5684,2.5684,2.5684,2.5684,2.5684,2.5684,2.5684,2.5645,2.5664,2.5664,2.5684,2.5684,2.5684,2.5684,2.5684,2.5684,2.5684,2.5684,2.5684,2.5684,2.5684,2.5684,2.5684,2.5684,2.5684,2.5684,2.5684,2.5684,2.5684,2.5684,2.5684,2.5684,2.5684,2.5615,2.4914,2.4453,2.4248,2.3656,2.3101,2.3101,2.3101,2.3101,2.3101,2.3101,2.3101,2.3101,2.3101,2.3101,2.3081,2.3042,2.2734,2.2363,2.1963,2.1709,2.1416,2.1338,2.1465,2.1641,2.1758,2.21,2.2366,2.2576,2.2809,2.2862,2.2448,2.2359,2.2227,2.1815,2.1385,2.0641,1.9626,1.8929,2.8838,2.8467,2.8457,2.8389,2.8301,2.8301,2.8301,2.8301,2.8301,2.8301,2.8301,2.8301,2.8301,2.8301,2.8301,2.8301,2.8301,2.8301,2.8301,2.8301,2.8301,2.8301,2.8301,2.8301,2.8301,2.8301,2.8291,2.8242,2.8105,2.7832,2.7549,2.7366,2.668,2.6357,2.6201,2.584,2.5693,2.5684,2.5684,2.5684,2.5684,2.5684,2.5684,2.5684,2.5684,2.5684,2.5684,2.5684,2.5684,2.5684,2.5684,2.5684,2.5684,2.5684,2.5684,2.5684,2.5684,2.5684,2.5684,2.5684,2.5684,2.5684,2.5684,2.5684,2.5684,2.5684,2.5684,2.5684,2.5684,2.5684,2.5684,2.5684,2.5684,2.5684,2.5684,2.5684,2.5547,2.4933,2.4424,2.4326,2.3617,2.3198,2.3101,2.3101,2.3101,2.3101,2.3101,2.3101,2.3101,2.3101,2.3091,2.2974,2.2847,2.249,2.209,2.167,2.1279,2.0898,2.085,2.0909,2.1055,2.123,2.1768,2.2292,2.2399,2.2551,2.2862,2.2853,2.3038,2.3042,2.2824,2.2208,2.1889,2.116,2.0551,2.8672,2.8301,2.8301,2.8301,2.8301,2.8301,2.8301,2.8301,2.8301,2.8301,2.8301,2.8301,2.8301,2.8301,2.8301,2.8301,2.8301,2.8301,2.8301,2.8301,2.8301,2.8301,2.8301,2.8301,2.8301,2.8301,2.8301,2.8291,2.8252,2.8037,2.7861,2.7611,2.6992,2.6582,2.6338,2.5967,2.5684,2.5684,2.5684,2.5684,2.5684,2.5684,2.5684,2.5684,2.5684,2.5684,2.5684,2.5684,2.5684,2.5684,2.5684,2.5684,2.5684,2.5684,2.5684,2.5684,2.5684,2.5684,2.5684,2.5684,2.5684,2.5684,2.5684,2.5684,2.5684,2.5684,2.5684,2.5684,2.5684,2.5684,2.5684,2.5684,2.5684,2.5684,2.5684,2.5684,2.5674,2.4951,2.4502,2.4219,2.3666,2.3101,2.3101,2.3101,2.3101,2.3101,2.3101,2.3101,2.3101,2.3101,2.3081,2.2984,2.2852,2.2519,2.2109,2.168,2.1268,2.0889,2.0762,2.0723,2.0703,2.0898,2.1317,2.1843,2.21,2.2353,2.2656,2.2867,2.2925,2.2935,2.3023,2.2979,2.2568,2.2179,2.1643,2.8672,2.8301,2.8301,2.8301,2.8301,2.8301,2.8301,2.8301,2.8301,2.8301,2.8301,2.8301,2.8301,2.8301,2.8301,2.8301,2.8301,2.8301,2.8301,2.8301,2.8301,2.8301,2.8301,2.8301,2.8301,2.8301,2.8301,2.8301,2.8281,2.8262,2.8096,2.7764,2.7314,2.6875,2.6523,2.6064,2.5752,2.5684,2.5684,2.5684,2.5684,2.5684,2.5684,2.5684,2.5684,2.5684,2.5684,2.5684,2.5684,2.5684,2.5684,2.5684,2.5684,2.5684,2.5684,2.5684,2.5684,2.5684,2.5684,2.5684,2.5684,2.5684,2.5684,2.5684,2.5684,2.5684,2.5684,2.5684,2.5684,2.5684,2.5684,2.5684,2.5684,2.5684,2.5684,2.5684,2.5528,2.4904,2.4424,2.4365,2.3617,2.3188,2.3101,2.3101,2.3101,2.3101,2.3101,2.3101,2.3101,2.3101,2.3101,2.3071,2.2847,2.2607,2.2178,2.177,2.1387,2.1035,2.0908,2.082,2.0693,2.081,2.1015,2.1327,2.167,2.2002,2.2334,2.2529,2.2637,2.2744,2.2711,2.2867,2.2901,2.2504,2.2026,2.8672,2.8301,2.8301,2.8301,2.8301,2.8301,2.8301,2.8301,2.8301,2.8301,2.8301,2.8301,2.8301,2.8301,2.8301,2.8301,2.8301,2.8301,2.8301,2.8301,2.8301,2.8301,2.8301,2.8301,2.8301,2.8301,2.8301,2.8301,2.8301,2.8291,2.8262,2.8105,2.7666,2.7305,2.6855,2.6396,2.6055,2.5752,2.5684,2.5684,2.5684,2.5684,2.5684,2.5684,2.5684,2.5684,2.5684,2.5684,2.5684,2.5684,2.5684,2.5684,2.5684,2.5684,2.5684,2.5684,2.5684,2.5684,2.5684,2.5684,2.5684,2.5684,2.5684,2.5684,2.5684,2.5684,2.5684,2.5684,2.5684,2.5684,2.5684,2.5684,2.5684,2.5684,2.5684,2.5684,2.5547,2.4914,2.4473,2.4248,2.3647,2.3101,2.3101,2.3101,2.3101,2.3101,2.3101,2.3101,2.3101,2.3101,2.3101,2.3091,2.2828,2.2549,2.206,2.1611,2.123,2.1055,2.0986,2.0859,2.0703,2.0693,2.0879,2.1084,2.1259,2.1621,2.1924,2.2021,2.2109,2.2266,2.2441,2.2559,2.2617,2.248,2.2539,2.8672,2.8301,2.8301,2.8301,2.8301,2.8301,2.8301,2.8301,2.8301,2.8301,2.8301,2.8301,2.8301,2.8301,2.8301,2.8301,2.8301,2.8301,2.8301,2.8301,2.8301,2.8301,2.8301,2.8301,2.8301,2.8301,2.8301,2.8301,2.8301,2.8301,2.8291,2.8262,2.7881,2.7422,2.7021,2.6602,2.6162,2.5771,2.5684,2.5684,2.5684,2.5684,2.5684,2.5684,2.5684,2.5684,2.5684,2.5684,2.5684,2.5684,2.5684,2.5684,2.5684,2.5684,2.5684,2.5684,2.5684,2.5684,2.5684,2.5684,2.5684,2.5684,2.5684,2.5684,2.5684,2.5684,2.5684,2.5684,2.5684,2.5684,2.5684,2.5684,2.5684,2.5684,2.5684,2.5684,2.5547,2.4914,2.4424,2.4258,2.3627,2.3237,2.3101,2.3101,2.3101,2.3101,2.3101,2.3101,2.3101,2.3101,2.3101,2.3023,2.2769,2.2409,2.1943,2.1475,2.1025,2.0928,2.0957,2.082,2.0703,2.0683,2.0664,2.085,2.1016,2.1172,2.1426,2.1504,2.168,2.1953,2.2129,2.2197,2.2266,2.2314,2.2441,2.8672,2.8301,2.8301,2.8301,2.8301,2.8301,2.8301,2.8301,2.8301,2.8301,2.8301,2.8301,2.8301,2.8301,2.8301,2.8301,2.8301,2.8301,2.8301,2.8301,2.8301,2.8301,2.8301,2.8301,2.8301,2.8301,2.8301,2.8301,2.8301,2.8301,2.8301,2.8232,2.7978,2.7529,2.7051,2.668,2.626,2.5771,2.5684,2.5684,2.5684,2.5684,2.5684,2.5684,2.5684,2.5684,2.5684,2.5684,2.5684,2.5684,2.5684,2.5684,2.5684,2.5684,2.5684,2.5684,2.5684,2.5684,2.5684,2.5684,2.5684,2.5684,2.5684,2.5684,2.5684,2.5684,2.5684,2.5684,2.5684,2.5684,2.5684,2.5684,2.5684,2.5684,2.5684,2.5684,2.5528,2.4914,2.4502,2.4307,2.3666,2.3159,2.3101,2.3101,2.3101,2.3101,2.3101,2.3101,2.3101,2.3101,2.3101,2.2994,2.274,2.2204,2.1709,2.126,2.082,2.0791,2.0859,2.0762,2.0664,2.0654,2.0644,2.0635,2.0732,2.0898,2.0996,2.1074,2.1309,2.1641,2.1777,2.1787,2.1943,2.2158,2.2334,2.8672,2.8301,2.8301,2.8301,2.8301,2.8301,2.8301,2.8301,2.8301,2.8301,2.8301,2.8301,2.8301,2.8301,2.8301,2.8301,2.8301,2.8301,2.8301,2.8301,2.8301,2.8301,2.8301,2.8301,2.8301,2.8301,2.8301,2.8301,2.8301,2.8301,2.8301,2.8271,2.8203,2.7803,2.7226,2.6885,2.6484,2.5859,2.5713,2.5684,2.5684,2.5684,2.5684,2.5684,2.5684,2.5684,2.5684,2.5684,2.5684,2.5684,2.5684,2.5684,2.5684,2.5684,2.5684,2.5684,2.5684,2.5684,2.5684,2.5684,2.5684,2.5684,2.5684,2.5684,2.5684,2.5732,2.5781,2.5868,2.5878,2.5781,2.5684,2.5965,2.5781,2.5732,2.5732,2.5684,2.5518,2.5059,2.4512,2.4453,2.3734,2.3101,2.3101,2.3101,2.3101,2.3101,2.3101,2.3101,2.3101,2.3101,2.3101,2.2935,2.273,2.2077,2.1414,2.1016,2.0664,2.0683,2.0723,2.0723,2.0625,2.0625,2.0615,2.0615,2.0615,2.0713,2.0772,2.0752,2.0869,2.1124,2.1221,2.1357,2.1523,2.1728,2.2158,2.8476,2.8301,2.8301,2.8301,2.8301,2.8301,2.8301,2.8301,2.8301,2.8301,2.8301,2.8301,2.8301,2.8301,2.8301,2.8301,2.8301,2.8301,2.8301,2.8301,2.8301,2.8301,2.8301,2.8301,2.8301,2.8301,2.8301,2.8301,2.8301,2.8301,2.8301,2.8291,2.8291,2.7959,2.7432,2.71,2.6689,2.6152,2.582,2.5693,2.5684,2.5684,2.5684,2.5684,2.5684,2.5684,2.5684,2.5684,2.5684,2.5684,2.5684,2.5684,2.5684,2.5684,2.5684,2.5684,2.5684,2.5684,2.5684,2.5684,2.5684,2.5684,2.5684,2.5684,2.5684,2.5732,2.6014,2.6476,2.6716,2.6982,2.7626,2.702,2.6706,2.6572,2.6197,2.582,2.5634,2.5145,2.5031,2.4822,2.3978,2.3447,2.3101,2.3101,2.3101,2.3101,2.3101,2.3101,2.3101,2.3101,2.3091,2.2838,2.2627,2.2012,2.1357,2.0918,2.0625,2.0615,2.0615,2.0615,2.0615,2.0615,2.0615,2.0615,2.0615,2.0615,2.0635,2.0693,2.0644,2.0615,2.082,2.1035,2.1113,2.1338,2.1855,2.8301,2.8301,2.8301,2.8301,2.8301,2.8301,2.8301,2.8301,2.8301,2.8301,2.8301,2.8301,2.8301,2.8301,2.8301,2.8301,2.8301,2.8301,2.8301,2.8301,2.8301,2.8301,2.8301,2.8301,2.8301,2.8301,2.8301,2.8301,2.8301,2.8301,2.8301,2.8301,2.8291,2.8086,2.7656,2.7344,2.6894,2.6416,2.6084,2.581,2.5703,2.5684,2.5684,2.5684,2.5684,2.5684,2.5684,2.5684,2.5684,2.5684,2.5684,2.5684,2.5684,2.5684,2.5684,2.5684,2.5684,2.5684,2.5684,2.5684,2.5684,2.5684,2.5684,2.5684,2.5868,2.611,2.6572,2.74,2.7908,2.8226,2.8773,2.8495,2.8049,2.7814,2.7163,2.6494,2.6632,2.6488,2.6331,2.5736,2.4494,2.3909,2.3687,2.3101,2.3101,2.3101,2.3101,2.3101,2.3101,2.3101,2.3023,2.274,2.2422,2.1855,2.1309,2.0879,2.0674,2.0615,2.0615,2.0615,2.0615,2.0615,2.0615,2.0664,2.0615,2.0615,2.0615,2.0605,2.0615,2.0635,2.0683,2.081,2.1074,2.1426,2.1904,2.8301,2.8301,2.8301,2.8301,2.8301,2.8301,2.8301,2.8301,2.8301,2.8301,2.8301,2.8301,2.8301,2.8301,2.8301,2.8301,2.8301,2.8301,2.8301,2.8301,2.8301,2.8301,2.8301,2.8301,2.8301,2.8301,2.8301,2.8301,2.8301,2.8301,2.8301,2.8301,2.8262,2.8096,2.7836,2.763,2.7229,2.6543,2.6328,2.6094,2.5752,2.5684,2.5684,2.5684,2.5684,2.5684,2.5684,2.5684,2.5684,2.5684,2.5684,2.5684,2.5684,2.5684,2.5684,2.5684,2.5684,2.5684,2.5684,2.5684,2.5684,2.5684,2.5684,2.5684,2.5917,2.6668,2.7315,2.7552,2.8505,2.9361,2.9727,2.9361,2.9189,2.9096,2.8762,2.8577,2.8604,2.7789,2.7629,2.739,2.6437,2.5228,2.4513,2.3751,2.3101,2.3101,2.3091,2.3135,2.3266,2.343,2.3305,2.3093,2.2556,2.1953,2.1484,2.1025,2.0968,2.082,2.0673,2.0664,2.083,2.086,2.0761,2.0771,2.0751,2.0954,2.1193,2.1165,2.0799,2.0684,2.085,2.1016,2.1151,2.1592,2.2041,2.8301,2.8301,2.8301,2.8301,2.8301,2.8301,2.8301,2.8301,2.8301,2.8301,2.8301,2.8301,2.8301,2.8301,2.8301,2.8301,2.8301,2.8301,2.8301,2.8301,2.8301,2.8301,2.8301,2.8301,2.8301,2.8301,2.8301,2.8301,2.8301,2.8301,2.8301,2.8301,2.8291,2.8232,2.7959,2.7826,2.7334,2.6787,2.6309,2.5898,2.5732,2.5684,2.5684,2.5684,2.5684,2.5684,2.5684,2.5684,2.5684,2.5684,2.5684,2.5684,2.5684,2.5684,2.5684,2.5684,2.5684,2.5684,2.5684,2.5732,2.5684,2.5684,2.5684,2.5684,2.5965,2.6849,2.8049,2.8634,2.9727,3.0586,3.1057,3.0777,3.0496,3.0316,3.0045,2.9772,2.9647,2.9329,2.8833,2.8634,2.8331,2.7097,2.59,2.4982,2.41,2.3343,2.3474,2.3637,2.3887,2.4211,2.4007,2.3679,2.2962,2.2158,2.1738,2.1318,2.1549,2.1362,2.0879,2.0948,2.1163,2.1222,2.133,2.147,2.1691,2.1831,2.1977,2.1548,2.1051,2.1026,2.1094,2.138,2.1667,2.1934,2.2363,2.8301,2.8301,2.8301,2.8301,2.8301,2.8301,2.8301,2.8301,2.8301,2.8301,2.8301,2.8301,2.8301,2.8301,2.8301,2.8301,2.8301,2.8301,2.8301,2.8301,2.8301,2.8301,2.8301,2.8301,2.8301,2.8301,2.8301,2.8301,2.8301,2.8301,2.8301,2.8301,2.8301,2.8271,2.8213,2.7988,2.7588,2.6963,2.6328,2.5947,2.5723,2.5684,2.5684,2.5684,2.5684,2.5684,2.5684,2.5684,2.5684,2.5684,2.5684,2.5684,2.5684,2.5684,2.5684,2.582,2.6004,2.6332,2.6197,2.6014,2.5781,2.5684,2.5781,2.5868,2.6428,2.7315,2.8552,2.9772,3.1,3.2052,3.2599,3.2096,3.1865,3.1456,3.1057,3.0598,3.0305,3.0415,3.0557,3.0596,3.0103,2.9048,2.7813,2.6539,2.5317,2.395,2.3767,2.4135,2.4628,2.5157,2.4745,2.4427,2.4177,2.333,2.2584,2.2231,2.2291,2.2191,2.1688,2.1813,2.2417,2.2453,2.2471,2.2596,2.2717,2.2773,2.295,2.2126,2.1438,2.1853,2.2177,2.209,2.2238,2.2468,2.2683,2.8301,2.8301,2.8301,2.8301,2.8301,2.8301,2.8301,2.8301,2.8301,2.8301,2.8301,2.8301,2.8301,2.8301,2.8301,2.8301,2.8301,2.8301,2.8301,2.8301,2.8301,2.8301,2.8301,2.8301,2.8301,2.8301,2.8301,2.8301,2.8301,2.8301,2.8301,2.8301,2.8301,2.8301,2.8252,2.8105,2.7725,2.7139,2.6533,2.6113,2.5889,2.5713,2.5684,2.5684,2.5684,2.5684,2.5684,2.5684,2.5684,2.5684,2.5684,2.5684,2.5684,2.5684,2.5732,2.6149,2.6754,2.7173,2.7268,2.6754,2.5965,2.5771,2.6004,2.661,2.74,2.8588,2.9772,3.081,3.1877,3.2655,3.3025,3.2982,3.2655,3.2469,3.2152,3.2064,3.1921,3.2152,3.2327,3.2462,3.1699,3.032,2.9178,2.777,2.6365,2.4978,2.5168,2.5535,2.5922,2.6262,2.5587,2.5276,2.544,2.4835,2.3854,2.3697,2.3911,2.3777,2.3377,2.3753,2.4337,2.4139,2.3226,2.3867,2.3973,2.3962,2.3905,2.3575,2.3346,2.3288,2.3281,2.3071,2.2999,2.3186,2.3293,2.8301,2.8301,2.8301,2.8301,2.8301,2.8301,2.8301,2.8301,2.8301,2.8301,2.8301,2.8301,2.8301,2.8301,2.8301,2.8301,2.8301,2.8301,2.8301,2.8301,2.8301,2.8301,2.8301,2.8301,2.8301,2.8301,2.8301,2.8301,2.8301,2.8301,2.8301,2.8301,2.8301,2.8301,2.8252,2.8096,2.7725,2.7373,2.6787,2.6289,2.6162,2.5791,2.5684,2.5684,2.5684,2.5684,2.5684,2.5684,2.5684,2.5693,2.5703,2.5732,2.5801,2.5791,2.6189,2.6736,2.7478,2.8038,2.8588,2.8226,2.8038,2.7992,2.8038,2.8179,2.8727,2.9761,3.0541,3.1456,3.2339,3.3081,3.3124,3.3081,3.3038,3.3081,3.3124,3.3124,3.3124,3.3124,3.2955,3.2682,3.2006,3.0971,2.9915,2.8859,2.7463,2.6171,2.6573,2.6942,2.729,2.7412,2.6811,2.6384,2.6525,2.6363,2.5411,2.5427,2.5633,2.5362,2.5061,2.5249,2.5425,2.4179,2.359,2.444,2.518,2.5094,2.5135,2.5277,2.5028,2.443,2.413,2.3924,2.391,2.3902,2.401,2.8301,2.8301,2.8301,2.8301,2.8301,2.8301,2.8301,2.8301,2.8301,2.8301,2.8301,2.8301,2.8301,2.8301,2.8301,2.8301,2.8301,2.8301,2.8301,2.8301,2.8301,2.8301,2.8301,2.8301,2.8301,2.8301,2.8301,2.8301,2.8301,2.8301,2.8301,2.8301,2.8301,2.8301,2.8223,2.8037,2.7845,2.7562,2.7229,2.667,2.6572,2.6328,2.5986,2.6005,2.6054,2.5918,2.5859,2.582,2.5977,2.5977,2.5986,2.6025,2.6133,2.6388,2.6909,2.7604,2.8395,2.905,2.9636,2.9544,2.9453,2.9085,2.9131,2.9407,3.0079,3.0754,3.1178,3.1909,3.2655,3.3124,3.3124,3.3124,3.3124,3.3124,3.3124,3.3124,3.3124,3.3111,3.2893,3.2692,3.1938,3.1207,3.0645,2.9644,2.8487,2.7342,2.7267,2.7815,2.849,2.853,2.8243,2.7893,2.7761,2.7423,2.7018,2.7287,2.7426,2.7064,2.6719,2.6219,2.5908,2.4798,2.4628,2.5683,2.6202,2.6194,2.6142,2.6105,2.5719,2.5167,2.4934,2.474,2.4454,2.4447,2.4853,2.8301,2.8301,2.8301,2.8301,2.8301,2.8301,2.8301,2.8301,2.8301,2.8301,2.8301,2.8301,2.8301,2.8301,2.8301,2.8301,2.8301,2.8301,2.8301,2.8301,2.8301,2.8301,2.8301,2.8301,2.8301,2.8301,2.8301,2.8301,2.8301,2.8301,2.8301,2.8301,2.8301,2.8291,2.8281,2.8281,2.8066,2.7787,2.7669,2.7314,2.706,2.6885,2.6621,2.6514,2.6571,2.6455,2.6132,2.624,2.6357,2.6377,2.6656,2.6834,2.7112,2.7739,2.8225,2.8578,3.0068,3.0845,3.1134,3.0079,2.9852,3.0,3.0271,3.0418,3.0956,3.1412,3.1777,3.2556,3.3025,3.3124,3.3124,3.3124,3.3124,3.3124,3.3124,3.3124,3.3124,3.3111,3.2905,3.2528,3.1913,3.1311,3.0959,3.0386,2.9364,2.8554,2.8187,2.8557,2.9287,2.9365,2.9067,2.8937,2.8688,2.853,2.8371,2.9079,2.9221,2.8812,2.8176,2.7445,2.714,2.6639,2.6721,2.7165,2.7018,2.6808,2.6801,2.6819,2.6265,2.5755,2.566,2.5471,2.5139,2.5137,2.5661,2.8301,2.8301,2.8301,2.8301,2.8301,2.8301,2.8301,2.8301,2.8301,2.8301,2.8301,2.8301,2.8301,2.8301,2.8301,2.8301,2.8301,2.8301,2.8301,2.8301,2.8301,2.8301,2.8301,2.8301,2.8301,2.8301,2.8301,2.8301,2.8301,2.8301,2.8301,2.8301,2.8301,2.8301,2.8291,2.8291,2.8184,2.8057,2.7885,2.762,2.7422,2.7197,2.6982,2.6836,2.6982,2.6976,2.6633,2.6911,2.6989,2.71,2.7432,2.8074,2.8406,2.9074,2.9883,3.0313,3.1499,3.1601,3.2096,3.2021,3.1877,3.1789,3.1701,3.1789,3.2426,3.2481,3.2797,3.2927,3.3081,3.3124,3.3124,3.3124,3.3124,3.3124,3.3124,3.3124,3.3124,3.3111,3.296,3.2365,3.1763,3.1072,3.0595,3.0758,3.0025,2.9574,2.9184,2.9077,2.9636,2.9663,2.9534,2.9534,2.9443,2.9443,2.9573,2.9702,2.9502,2.89,2.8537,2.8139,2.7962,2.7733,2.7444,2.7147,2.727,2.7392,2.7052,2.6751,2.665,2.6372,2.6268,2.6334,2.625,2.6417,2.6883,2.8301,2.8301,2.8301,2.8301,2.8301,2.8301,2.8301,2.8301,2.8301,2.8301,2.8301,2.8301,2.8301,2.8301,2.8301,2.8301,2.8301,2.8301,2.8301,2.8301,2.8301,2.8301,2.8301,2.8301,2.8301,2.8301,2.8301,2.8301,2.8301,2.8301,2.8301,2.8301,2.8301,2.8301,2.8301,2.8291,2.8291,2.8193,2.8018,2.7973,2.7812,2.7646,2.7422,2.7489,2.7746,2.8065,2.7874,2.7813,2.7923,2.8218,2.8714,2.9368,2.9742,3.0652,3.154,3.2038,3.22,3.2337,3.2785,3.2982,3.2754,3.2853,3.3124,3.3124,3.3124,3.2982,3.2995,3.3081,3.3124,3.3124,3.3124,3.3124,3.3124,3.3124,3.3124,3.3124,3.3124,3.3111,3.3061,3.2428,3.1989,3.1185,3.0532,3.0708,3.0728,3.0415,3.0179,3.003,2.9842,2.9804,2.9792,2.9779,2.974,2.9702,2.9663,2.974,2.9478,2.8963,2.8775,2.8612,2.8059,2.7695,2.7394,2.714,2.7153,2.7077,2.6801,2.66,2.6813,2.6889,2.6799,2.6951,2.7291,2.7507,2.7758,2.8301,2.8301,2.8301,2.8301,2.8301,2.8301,2.8301,2.8301,2.8301,2.8301,2.8301,2.8301,2.8301,2.8301,2.8301,2.8301,2.8301,2.8301,2.8301,2.8301,2.8301,2.8301,2.8301,2.8301,2.8301,2.8301,2.8301,2.8301,2.8301,2.8301,2.8301,2.8301,2.8301,2.8301,2.8301,2.8301,2.8301,2.8262,2.8232,2.8367,2.8509,2.8506,2.8521,2.8785,2.9425,2.9709,2.9631,2.9558,2.9716,2.9859,3.0011,3.0266,3.103,3.2419,3.2816,3.2937,3.2913,3.299,3.3068,3.3124,3.3124,3.3124,3.3124,3.3124,3.3124,3.3124,3.3124,3.3124,3.3124,3.3124,3.3124,3.3124,3.3124,3.3124,3.3124,3.3124,3.3124,3.3124,3.3124,3.2792,3.2503,3.1901,3.126,3.121,3.1198,3.0871,3.0532,3.0193,3.0005,2.9829,2.9817,2.9779,2.9779,2.9779,2.9779,2.9779,2.9654,2.9264,2.9101,2.8925,2.831,2.7921,2.7908,2.7706,2.709,2.6876,2.7052,2.7155,2.7281,2.7318,2.7381,2.7419,2.767,2.7984,2.826,2.8301,2.8301,2.8301,2.8301,2.8301,2.8301,2.8301,2.8301,2.8301,2.8301,2.8301,2.8301,2.8301,2.8301,2.8301,2.8301,2.8301,2.8301,2.8301,2.8301,2.8301,2.8301,2.8301,2.8301,2.8301,2.8301,2.8301,2.8301,2.8301,2.8301,2.8301,2.8301,2.8301,2.8301,2.8301,2.8291,2.8344,2.8451,2.8504,2.89,2.946,2.966,2.9922,3.0696,3.1207,3.1438,3.1433,3.14,3.1532,3.1543,3.2528,3.3086,3.3311,3.3909,3.4045,3.3093,3.3064,3.3124,3.3124,3.3124,3.3124,3.3124,3.3124,3.3124,3.3124,3.3124,3.3124,3.3124,3.3124,3.3124,3.3124,3.3124,3.3124,3.3124,3.3124,3.3124,3.3124,3.3124,3.3124,3.3061,3.2729,3.2428,3.1867,3.1599,3.1524,3.1198,3.0859,3.0495,3.0156,2.9967,2.9817,2.9792,2.9779,2.9779,2.9779,2.9779,2.9716,2.9591,2.9453,2.9251,2.8925,2.8637,2.8599,2.8285,2.7806,2.7632,2.7708,2.7808,2.7846,2.8021,2.8097,2.8059,2.8097,2.8373,2.8662,2.8301,2.8301,2.8301,2.8301,2.8301,2.8301,2.8301,2.8301,2.8301,2.8301,2.8301,2.8301,2.8301,2.8301,2.8301,2.8301,2.8301,2.8301,2.8301,2.8301,2.8301,2.8301,2.8301,2.8301,2.8301,2.8301,2.8301,2.8301,2.8301,2.8301,2.8301,2.8301,2.8301,2.8301,2.8301,2.8344,2.8708,2.8953,2.926,2.9618,3.0172,3.0876,3.1633,3.2292,3.2744,3.3105,3.3155,3.3155,3.3155,3.3155,3.4178,3.4337,3.4353,3.4505,3.4347,3.3508,3.3206,3.3162,3.3124,3.3124,3.3124,3.3124,3.3124,3.3124,3.3124,3.3124,3.3124,3.3124,3.3124,3.3124,3.3124,3.3124,3.3124,3.3124,3.3124,3.3124,3.3124,3.3124,3.3124,3.3124,3.296,3.2734,3.2432,3.2139,3.1901,3.1662,3.1273,3.0809,3.0394,3.003,2.988,2.9792,2.9779,2.9779,2.9779,2.9779,2.9741,2.9716,2.9691,2.9528,2.9352,2.9038,2.8775,2.8662,2.8536,2.8423,2.8285,2.836,2.8423,2.8549,2.8599,2.8574,2.8536,2.8637,2.8925,2.8301,2.8301,2.8301,2.8301,2.8301,2.8301,2.8301,2.8301,2.8301,2.8301,2.8301,2.8301,2.8301,2.8301,2.8301,2.8301,2.8301,2.8301,2.8301,2.8301,2.8301,2.8301,2.8301,2.8301,2.8301,2.8301,2.8301,2.8301,2.8301,2.8301,2.8301,2.8301,2.8301,2.8301,2.8301,2.8301,2.8804,2.9817,3.0317,3.0773,3.1184,3.1836,3.2593,3.2994,3.381,3.4569,3.4569,3.4581,3.4544,3.4581,3.4569,3.4678,3.4508,3.4585,3.4295,3.3822,3.3282,3.3187,3.3124,3.3124,3.3124,3.3124,3.3124,3.3124,3.3124,3.3124,3.3124,3.3124,3.3124,3.3124,3.3124,3.3124,3.3124,3.3124,3.3124,3.3124,3.3124,3.3124,3.3124,3.3061,3.2847,3.2671,3.2759,3.2441,3.2152,3.2026,3.1637,3.1097,3.0721,3.0269,2.9955,2.9817,2.9779,2.9779,2.9779,2.9779,2.9779,2.9779,2.9779,2.9754,2.9591,2.9239,2.8813,2.8938,2.9051,2.8913,2.8812,2.89,2.89,2.88,2.8875,2.8938,2.8988,2.9001,2.9189,2.8301,2.8301,2.8301,2.8301,2.8301,2.8301,2.8301,2.8301,2.8301,2.8301,2.8301,2.8301,2.8301,2.8301,2.8301,2.8301,2.8301,2.8301,2.8301,2.8301,2.8301,2.8301,2.8301,2.8301,2.8301,2.8301,2.8301,2.8301,2.8301,2.8301,2.8301,2.8301,2.8301,2.8301,2.8301,2.8344,2.9154,3.0514,3.148,3.2392,3.3254,3.3662,3.4264,3.4957,3.5823,3.5763,3.5763,3.5823,3.587,3.5918,3.5918,3.5496,3.4715,3.4715,3.4191,3.347,3.3181,3.3149,3.3124,3.3124,3.3124,3.3124,3.3124,3.3124,3.3124,3.3124,3.3124,3.3124,3.3124,3.3124,3.3124,3.3124,3.3124,3.3124,3.3124,3.3124,3.3124,3.3124,3.3124,3.2948,3.2679,3.2717,3.2885,3.2772,3.2441,3.2077,3.1675,3.126,3.1022,3.062,3.008,2.9892,2.9804,2.9779,2.9779,2.9779,2.9779,2.9779,2.9779,2.9779,2.9779,2.9541,2.9289,2.9465,2.9553,2.9365,2.9302,2.949,2.9453,2.9227,2.9202,2.934,2.944,2.9478,2.9591,2.8301,2.8301,2.8301,2.8301,2.8301,2.8301,2.8301,2.8301,2.8301,2.8301,2.8301,2.8301,2.8301,2.8301,2.8301,2.8301,2.8301,2.8301,2.8301,2.8301,2.8301,2.8301,2.8301,2.8301,2.8301,2.8301,2.8301,2.8301,2.8301,2.8301,2.8301,2.8301,2.8301,2.8344,2.8398,2.8847,2.9807,3.1224,3.2493,3.381,3.5066,3.5367,3.5523,3.631,3.6417,3.6417,3.6417,3.6417,3.6417,3.6417,3.631,3.5708,3.4978,3.4718,3.4148,3.3458,3.3136,3.3124,3.3124,3.3124,3.3124,3.3124,3.3124,3.3124,3.3124,3.3124,3.3124,3.3124,3.3124,3.3124,3.3124,3.3124,3.3124,3.3124,3.3124,3.3124,3.3124,3.3124,3.3124,3.3061,3.288,3.2893,3.2968,3.2998,3.2629,3.2164,3.1738,3.1273,3.106,3.0896,3.0369,2.9942,2.9829,2.9779,2.9779,2.9779,2.9779,2.9779,2.9779,2.9779,2.9779,2.9779,2.9767,2.9754,2.9754,2.9716,2.9741,2.9779,2.9779,2.9566,2.9616,2.9716,2.9779,2.9779,2.9779,2.8301,2.8301,2.8301,2.8301,2.8301,2.8301,2.8301,2.8301,2.8301,2.8301,2.8301,2.8301,2.8301,2.8301,2.8301,2.8301,2.8301,2.8301,2.8301,2.8301,2.8301,2.8301,2.8301,2.8301,2.8301,2.8301,2.8301,2.8301,2.8301,2.8301,2.8301,2.8301,2.8344,2.8388,2.8847,2.966,3.0824,3.2342,3.3712,3.4921,3.5823,3.6417,3.6358,3.637,3.6417,3.6417,3.6417,3.6417,3.6417,3.6342,3.6254,3.5579,3.4989,3.4562,3.3947,3.3332,3.3124,3.3124,3.3124,3.3124,3.3124,3.3124,3.3124,3.3124,3.3124,3.3124,3.3124,3.3124,3.3124,3.3124,3.3124,3.3124,3.3124,3.3124,3.3124,3.3124,3.3124,3.3124,3.3124,3.3111,3.3048,3.298,3.3043,3.3074,3.2729,3.2265,3.1876,3.1336,3.0947,3.0821,3.052,3.0093,2.9817,2.9779,2.9779,2.9779,2.9779,2.9779,2.9779,2.9779,2.9779,2.9779,2.9779,2.9779,2.9779,2.9779,2.9779,2.9779,2.9779,2.9779,2.9779,2.9779,2.9779,2.9779,2.9779,2.8301,2.8301,2.8301,2.8301,2.8301,2.8301,2.8301,2.8301,2.8301,2.8301,2.8301,2.8301,2.8301,2.8301,2.8301,2.8301,2.8301,2.8301,2.8301,2.8301,2.8301,2.8301,2.8301,2.8301,2.8301,2.8301,2.8301,2.8301,2.8301,2.8301,2.8301,2.8301,2.8301,2.8794,2.9859,3.0669,3.1542,3.3204,3.4264,3.5223,3.6013,3.6417,3.6417,3.6417,3.6417,3.6417,3.6417,3.6417,3.6417,3.6292,3.5943,3.5391,3.4864,3.4349,3.3746,3.3319,3.3124,3.3124,3.3124,3.3124,3.3124,3.3124,3.3124,3.3124,3.3124,3.3124,3.3124,3.3124,3.3124,3.3124,3.3124,3.3124,3.3124,3.3124,3.3124,3.3124,3.3124,3.3124,3.3124,3.2973,3.2767,3.288,3.3086,3.3011,3.278,3.2503,3.2604,3.2051,3.1223,3.0947,3.067,3.0231,2.9829,2.9779,2.9779,2.9779,2.9779,2.9779,2.9779,2.9779,2.9779,2.9779,2.9779,2.9779,2.9779,2.9779,2.9779,2.9779,2.9779,2.9779,2.9779,2.9779,2.9779,2.9779,2.9779]}]]